ECMWFNIL_500_spd_000.txt.gz
Wind_Speed
18 15 14 15 16 16 17 18 19 20 20 20 21 21 21 20 20 20 19 19 19 19 18 18 17 17 16 16 16 16 16 16 15 14 13 13 14 14 14 15 16 17
19 16 16 16 16 17 17 18 19 19 20 21 21 21 21 21 21 21 21 20 20 20 19 19 18 17 16 15 15 15 15 15 14 14 13 13 13 14 14 14 15 15
20 18 17 17 17 18 18 18 18 19 20 21 21 21 21 21 21 21 21 21 21 21 21 20 19 18 17 16 15 15 14 13 13 12 12 12 13 14 15 15 15 15
22 20 19 19 19 20 20 19 19 20 21 21 20 20 20 20 21 21 21 22 22 22 21 21 21 20 19 18 17 17 16 15 14 13 12 12 12 13 14 15 16 16
24 22 22 22 22 22 22 22 21 21 21 21 20 19 19 21 22 22 22 23 23 23 22 22 22 21 20 20 19 19 19 18 17 16 15 14 14 14 14 15 16 17
25 25 24 24 23 22 23 23 23 23 23 22 20 19 20 21 22 22 22 22 23 23 23 23 22 22 21 21 20 19 19 19 19 18 18 17 17 16 16 16 17 18
27 27 26 25 24 23 23 22 23 24 24 23 21 19 19 20 21 21 21 22 22 22 22 23 23 23 22 22 21 20 19 19 19 19 18 18 18 18 18 18 18 19
29 28 29 28 27 27 26 24 24 24 24 22 20 19 19 20 21 21 21 21 21 21 22 23 23 23 23 23 23 22 21 19 19 19 19 18 18 18 18 18 18 19
29 28 31 32 31 30 29 26 25 24 23 21 20 20 21 22 23 23 23 23 23 22 22 23 23 23 23 24 24 23 22 21 20 20 19 19 19 19 19 19 20 20
33 32 32 33 33 33 31 29 28 26 24 24 24 24 24 25 26 25 24 24 25 25 25 25 25 25 25 25 24 24 23 23 22 22 21 21 21 22 22 22 23 23
37 37 35 34 34 34 33 32 32 31 31 30 30 30 29 28 28 27 26 25 26 28 29 29 28 27 26 25 25 25 25 24 23 23 23 23 24 25 26 26 26 26
37 37 37 37 37 36 35 34 33 34 37 37 35 35 34 32 30 30 30 29 28 30 30 30 30 30 28 27 27 27 27 26 26 26 26 26 28 29 30 30 30 30
36 36 38 39 38 36 36 37 37 38 39 39 39 39 37 35 34 32 31 31 31 31 31 31 31 30 29 29 29 30 30 30 30 30 30 30 30 31 32 33 33 33
39 39 39 39 39 39 39 40 42 41 41 41 41 41 39 36 35 35 34 34 34 34 34 33 33 32 31 30 30 31 32 32 32 33 33 32 31 32 34 35 36 36
43 43 43 43 43 43 41 41 42 43 43 42 42 44 44 42 40 39 40 39 37 36 36 36 36 36 35 33 32 32 33 34 34 35 35 35 35 35 37 39 40 40
46 44 45 46 46 47 46 45 46 47 47 46 45 46 47 48 47 46 47 47 44 39 38 38 38 38 38 38 35 34 35 35 37 38 38 39 39 39 40 40 40 40
48 47 48 49 49 50 50 50 50 51 51 50 49 49 49 50 51 51 51 51 47 43 41 39 39 38 39 41 39 36 36 36 37 38 39 41 42 42 41 40 40 41
49 48 50 51 51 51 52 52 53 53 54 53 53 53 53 53 53 53 53 52 50 49 47 45 43 42 41 43 43 41 41 40 39 40 41 43 44 44 44 43 43 45
50 49 50 51 51 52 53 54 55 55 55 56 55 54 55 55 55 54 54 53 51 51 50 48 47 47 46 45 46 45 45 45 44 44 45 45 46 47 47 47 47 48
53 53 53 54 54 54 54 55 56 57 57 57 58 58 58 58 56 53 51 51 51 51 51 48 47 47 48 47 47 48 49 49 48 48 49 49 48 48 49 50 50 51
53 53 54 56 57 57 57 57 57 59 60 60 59 60 60 60 59 56 52 51 51 52 51 49 48 48 48 48 49 50 52 53 52 52 52 52 50 49 50 52 52 52
52 52 53 54 56 57 58 59 59 60 61 61 61 60 61 61 61 60 56 55 55 54 52 51 50 50 50 50 51 51 52 54 55 55 54 54 53 52 53 53 52 53
52 52 52 53 54 55 57 58 59 60 61 62 62 63 63 63 63 62 61 59 58 56 55 53 51 50 50 50 51 51 51 52 52 52 53 54 54 54 53 51 51 51
52 53 53 54 54 55 55 56 57 58 58 60 61 62 63 63 62 63 62 61 59 57 55 54 53 53 52 51 50 49 48 49 49 50 51 53 53 53 52 51 51 50
53 53 54 55 55 56 56 57 57 58 58 58 59 59 60 60 60 60 60 59 57 56 55 54 54 54 53 52 50 49 48 49 49 50 51 51 51 51 51 51 51 50
53 54 55 55 55 56 57 57 58 58 58 58 58 58 58 58 58 58 56 55 54 54 54 54 54 53 53 52 51 51 50 50 50 50 50 50 50 50 50 51 51 51

ECMWFNIL_500_spd_003.txt.gz
Wind_Speed
19 18 15 14 16 15 12 11 11 12 13 13 14 14 14 14 14 14 14 14 14 13 13 13 13 13 13 13 12 11 11 10 10 10 10 10 11 12 12 12 12 12
20 18 15 13 15 15 13 11 10 12 13 14 14 14 14 14 14 14 14 13 13 12 12 12 13 13 14 14 13 13 12 11 11 10 10 10 10 11 11 11 11 11
23 21 17 14 14 14 13 11 11 12 14 15 15 15 15 15 14 13 13 12 12 12 12 12 13 13 14 14 14 14 13 13 12 11 11 11 10 10 11 11 11 10
23 22 19 17 15 13 13 13 13 13 14 16 17 16 16 16 15 14 13 13 13 13 13 13 13 14 14 14 15 14 14 14 13 13 12 12 12 12 11 12 12 11
24 24 22 20 17 15 13 14 16 15 14 16 17 17 17 17 17 16 15 16 15 15 15 15 15 15 15 15 15 15 15 15 15 15 14 14 14 13 13 14 14 14
27 25 21 19 19 18 16 16 17 17 16 16 18 19 19 19 18 17 18 17 17 16 16 16 16 16 16 16 16 16 15 16 15 15 15 15 15 15 15 15 15 15
27 25 21 20 22 21 19 19 20 20 18 17 17 20 22 21 20 19 18 17 17 18 18 17 17 17 17 17 17 17 17 17 16 16 16 15 15 15 14 15 15 16
28 26 24 24 25 25 24 22 23 23 21 18 18 19 20 20 20 20 19 18 19 20 20 20 20 20 20 19 19 19 19 18 17 16 16 16 15 15 14 14 14 15
29 28 27 28 28 28 27 24 24 25 23 22 21 19 18 19 20 20 20 20 20 21 22 23 23 22 22 21 21 20 20 20 19 18 17 17 16 16 16 16 15 14
31 29 29 30 30 30 29 27 26 26 25 24 24 23 21 20 22 22 22 23 23 23 24 24 24 25 25 25 24 23 21 21 21 21 20 19 18 18 18 18 17 17
34 32 32 32 32 33 32 31 30 30 31 29 27 26 25 24 25 26 27 27 27 27 27 27 27 28 28 29 28 26 24 24 23 22 22 21 21 21 20 20 20 20
34 35 36 36 35 35 35 34 33 34 35 35 33 31 30 28 28 30 30 30 30 31 31 32 33 33 33 33 32 30 28 27 26 25 24 24 23 23 23 23 24 24
32 33 34 36 37 36 36 36 36 35 35 35 36 36 34 31 30 32 33 34 34 34 34 36 37 34 31 30 30 31 30 29 28 28 28 27 26 26 26 27 27 28
35 35 35 35 35 34 34 36 36 35 34 35 36 36 36 35 35 36 36 36 36 36 35 36 35 33 30 28 29 31 31 31 30 29 29 29 29 29 29 29 29 30
39 42 42 39 36 33 33 35 36 36 35 37 37 38 39 40 39 38 38 38 38 38 37 37 37 38 39 37 35 34 32 33 33 33 33 32 31 31 31 30 30 31
44 46 47 46 45 44 41 39 40 40 40 41 42 42 42 42 41 40 42 42 41 40 40 41 41 43 44 42 40 38 34 33 33 35 36 36 34 34 34 33 33 33
49 49 51 51 52 51 47 43 42 43 43 43 44 43 43 42 42 44 45 45 44 43 44 44 44 46 46 46 45 44 42 38 36 37 38 38 37 37 36 35 34 34
53 53 54 55 55 54 52 49 48 48 48 48 47 46 46 46 46 46 46 46 47 47 47 46 47 47 48 48 48 48 48 46 43 43 43 42 41 41 39 38 37 37
52 53 53 54 54 55 55 55 55 55 55 55 54 52 51 51 50 50 50 49 50 50 49 48 48 48 48 48 48 48 48 48 47 46 45 44 44 43 43 42 42 43
48 48 48 49 50 52 53 54 55 56 57 58 58 57 55 54 53 52 52 52 52 52 52 51 50 49 49 49 49 49 49 48 47 45 45 45 45 44 44 44 44 46
47 46 47 48 49 50 50 51 52 53 54 55 56 57 57 56 55 54 54 53 53 53 54 54 54 53 52 51 51 50 50 50 48 47 48 48 47 47 48 47 46 47
50 50 51 51 51 51 51 51 51 52 52 52 53 55 56 56 56 56 56 55 55 54 54 55 55 55 55 54 54 53 53 53 52 51 51 50 49 49 50 49 48 49
54 55 54 52 52 52 52 52 52 52 52 52 52 53 54 54 55 55 55 55 55 54 54 55 55 55 55 55 56 56 55 55 54 52 51 51 51 50 51 50 50 50
55 54 53 52 52 52 53 52 52 52 52 52 52 53 53 53 53 52 52 52 53 53 53 54 54 54 54 53 53 53 53 53 53 53 52 51 50 49 49 49 49 49
54 53 51 51 52 53 53 53 53 52 52 53 53 53 53 53 53 52 52 52 52 53 54 54 55 55 54 53 52 52 51 50 50 51 51 49 48 48 48 49 49 48
54 52 51 51 51 52 52 52 52 53 53 54 54 54 54 54 54 53 53 54 54 54 55 55 55 55 54 54 53 51 50 48 48 48 48 47 47 48 48 48 47 47

ECMWFNIL_500_spd_006.txt.gz
Wind_Speed
18 15 15 16 15 13 12 12 12 13 14 13 10 7 6 7 8 9 9 9 9 9 8 8 8 7 7 7 7 7 8 8 9 10 11 12 12 13 14 14 14 13
18 18 17 17 14 13 13 14 14 13 13 12 10 7 6 7 7 8 9 9 9 8 8 8 8 8 7 7 7 7 7 8 9 9 10 11 12 13 13 13 13 13
18 20 19 17 14 14 14 15 15 14 12 11 11 9 8 8 8 8 9 10 10 9 9 10 10 10 9 9 8 8 8 8 9 10 11 11 12 13 13 13 13 13
19 21 20 18 16 14 15 16 16 15 14 13 12 12 11 9 9 9 10 10 11 11 12 12 12 12 12 12 11 11 10 9 10 10 11 12 13 14 14 14 14 13
20 19 18 18 18 16 17 18 18 17 16 15 13 12 11 10 9 9 10 11 12 13 13 13 13 13 13 13 13 13 12 12 11 11 11 12 13 14 15 16 15 15
19 17 16 17 18 19 20 21 20 18 17 15 14 13 12 11 11 10 11 12 13 14 14 13 12 12 12 12 13 14 14 14 13 12 12 12 13 14 15 16 17 17
20 19 18 19 19 20 21 22 21 19 18 16 15 14 14 14 14 13 12 12 13 14 14 14 13 12 12 12 12 13 15 16 15 15 15 14 14 15 15 16 17 17
23 23 23 23 21 21 22 23 23 21 19 17 16 16 16 17 17 16 14 13 14 14 14 14 13 13 14 14 14 15 15 16 16 17 17 17 17 17 17 17 17 17
26 25 26 25 24 24 23 24 24 24 22 19 18 17 17 18 19 18 17 16 15 16 16 15 16 17 17 17 17 17 17 17 17 18 19 19 20 20 20 20 19 18
28 27 26 25 26 26 26 25 25 25 24 22 20 20 19 19 20 21 20 19 18 19 20 20 20 21 21 21 21 21 21 20 20 20 21 21 22 22 22 22 22 21
28 26 24 25 26 27 28 29 28 27 27 25 24 24 24 24 23 23 22 22 22 23 24 25 25 25 24 24 25 26 25 25 24 23 24 24 24 24 24 25 25 24
23 23 26 28 27 26 27 28 29 27 26 26 26 27 28 28 27 27 27 27 26 26 26 27 28 28 28 28 29 31 32 33 33 30 27 25 25 25 25 26 27 26
23 26 29 30 29 27 27 26 26 26 25 25 28 29 30 30 30 29 30 30 29 29 28 28 29 30 31 31 32 33 33 33 33 31 27 24 24 26 26 27 28 29
29 29 28 29 29 29 28 28 29 30 30 30 31 30 28 29 31 31 31 31 31 30 29 29 31 33 34 34 33 33 33 31 30 28 26 25 25 25 26 28 29 30
31 31 26 25 26 27 26 24 25 28 30 32 32 28 26 28 31 32 33 33 33 31 31 32 34 36 37 37 36 36 36 36 34 31 30 30 30 29 28 29 30 31
33 34 32 31 33 34 31 28 29 31 33 35 36 35 35 35 34 34 35 37 37 36 37 38 39 39 40 39 39 39 40 40 39 36 35 35 35 35 34 33 32 33
36 36 37 40 42 42 40 40 41 41 40 40 41 43 45 44 42 42 43 43 42 40 39 39 39 40 42 42 42 42 42 43 42 41 40 39 38 38 38 38 37 37
38 38 39 41 43 43 43 43 43 43 43 43 44 46 48 48 48 48 48 47 46 45 44 43 43 44 45 47 47 47 47 47 46 44 43 42 41 41 40 40 40 39
41 41 41 42 42 41 40 40 41 42 43 44 45 47 48 48 48 48 48 48 49 50 50 49 49 49 49 51 51 50 50 50 48 47 45 44 44 43 42 42 41 40
43 43 42 42 41 40 40 40 41 42 43 45 46 46 46 46 46 46 46 47 48 50 51 52 51 51 51 52 52 51 51 50 49 47 47 47 47 46 46 45 45 44
43 42 42 42 42 41 42 43 43 44 45 46 47 47 48 48 48 48 47 47 47 47 48 49 49 49 49 50 50 51 51 51 51 51 51 51 51 50 50 49 49 48
45 44 43 43 43 44 45 46 47 47 48 49 49 50 52 52 52 51 49 48 47 47 46 47 47 47 47 47 48 49 50 51 52 53 53 52 52 52 52 51 51 51
49 48 47 47 47 48 49 50 50 51 51 51 51 52 53 53 53 52 51 50 49 48 47 47 47 47 47 47 47 48 49 49 50 51 51 51 51 51 51 51 51 50
52 51 52 52 52 53 53 53 52 52 52 52 53 53 53 53 52 52 52 51 50 50 49 48 48 48 48 48 48 48 48 49 50 50 50 51 51 51 51 51 50 50
56 55 56 56 55 55 54 53 52 52 53 54 54 54 54 53 52 52 52 52 52 51 51 51 51 50 50 49 49 50 50 50 51 51 52 52 52 52 52 52 52 51
57 56 55 55 54 54 53 53 52 53 54 55 55 55 55 54 52 52 52 53 53 53 53 53 53 53 52 52 52 52 52 52 51 51 50 51 51 51 51 51 52 52

ECMWFNIL_500_spd_009.txt.gz
Wind_Speed
25 24 21 21 19 15 14 16 17 15 15 14 14 12 11 12 12 10 8 7 7 7 8 9 9 9 9 9 9 8 9 9 9 10 11 11 12 13 13 14 14 15
25 27 22 17 18 17 16 17 18 17 15 14 14 13 11 11 11 9 8 6 6 6 6 7 8 8 8 9 9 9 9 9 9 9 9 10 10 11 12 12 13 13
25 28 24 14 15 19 18 18 18 17 15 14 14 13 12 11 10 9 8 7 7 7 8 8 8 8 8 8 9 9 9 9 9 9 9 10 10 11 11 12 12 12
25 27 25 15 14 18 17 16 18 18 17 15 14 14 13 12 11 10 9 9 9 9 9 10 10 10 10 10 10 9 9 9 9 10 10 10 11 11 12 12 12 12
19 20 20 13 13 15 13 14 17 19 19 17 16 15 15 14 13 12 12 11 11 11 11 11 12 12 12 12 12 11 11 10 10 10 10 11 11 12 12 13 13 14
15 16 16 14 13 12 11 12 16 18 20 19 18 16 16 16 15 14 13 12 12 12 12 12 12 11 11 11 11 11 11 11 11 11 11 11 12 12 13 14 14 15
16 15 14 13 13 14 13 13 15 17 19 19 18 17 16 17 17 16 14 13 12 12 12 12 11 10 9 9 9 10 10 11 11 12 12 12 12 12 13 14 15 16
20 17 15 15 15 17 17 16 17 17 18 18 19 19 18 19 18 17 15 14 13 13 12 12 12 11 11 11 10 10 11 12 12 12 13 13 13 14 15 15 16 17
20 20 18 18 18 18 19 18 18 18 19 20 22 22 22 22 21 19 17 15 14 14 13 14 14 14 15 15 14 14 15 14 14 13 14 15 15 16 17 18 19 20
19 22 24 23 21 18 18 18 18 19 20 21 22 24 25 25 23 22 20 18 17 16 16 16 16 17 18 18 18 18 18 17 17 16 16 17 18 19 20 21 21 22
19 21 24 26 23 19 18 18 19 20 20 21 22 25 27 27 26 25 24 22 20 19 19 19 20 20 20 20 21 21 20 19 19 19 19 20 22 25 26 26 25 24
19 20 21 24 25 23 19 19 19 19 21 23 25 27 29 30 29 28 27 25 23 23 23 23 23 23 23 24 24 24 23 23 22 22 22 23 24 25 26 26 27 26
21 22 24 24 25 24 22 22 22 22 23 24 26 29 31 31 32 31 28 26 26 26 26 27 28 28 27 26 26 26 26 26 26 26 26 27 27 26 25 24 24 24
25 24 23 22 21 22 23 24 24 23 22 23 26 29 30 30 31 29 25 25 26 27 29 31 31 30 29 28 27 26 26 27 29 29 30 30 30 29 29 28 26 26
27 24 22 22 22 22 22 24 26 25 24 24 25 27 30 30 30 25 23 25 26 26 28 29 28 28 28 28 27 27 27 30 32 33 34 34 34 34 33 32 31 31
27 26 25 25 27 27 26 28 29 28 25 23 22 24 28 30 28 26 27 26 26 27 30 32 33 33 34 34 32 31 32 34 35 36 36 36 36 36 36 36 36 35
29 29 29 30 32 34 33 32 32 31 29 30 30 31 32 32 33 35 35 33 34 35 37 38 38 37 38 38 37 37 37 38 38 38 38 38 39 39 40 41 41 41
33 33 33 34 35 36 36 34 34 34 35 36 37 36 37 38 40 41 39 37 37 37 37 37 36 36 37 39 40 40 40 41 42 42 43 43 44 44 45 45 45 45
37 35 34 35 36 36 36 36 36 37 37 38 38 38 39 39 39 39 38 36 35 35 36 36 36 37 38 39 40 41 42 43 44 44 45 46 47 48 49 49 48 47
42 39 37 36 36 35 35 34 35 37 38 39 38 38 38 37 37 37 37 37 36 36 37 39 40 42 42 43 43 43 43 44 44 45 46 47 48 50 50 51 50 49
45 43 41 38 36 35 35 35 36 37 38 39 39 39 38 37 37 38 39 40 41 41 41 42 43 44 45 46 46 45 45 45 45 46 46 47 48 49 50 50 50 50
45 45 44 42 40 40 41 41 40 41 41 42 42 42 41 40 39 40 42 43 44 44 44 44 45 46 46 47 46 46 45 46 46 47 47 48 48 48 49 50 50 50
44 44 44 43 44 46 47 47 46 46 46 46 46 45 44 43 43 44 45 46 47 47 46 46 47 47 48 48 47 46 46 46 47 47 48 48 49 49 49 50 50 50
44 45 46 48 50 51 51 51 51 51 50 49 48 47 46 46 46 47 47 47 48 47 45 46 47 48 48 48 49 49 48 47 47 47 48 48 49 49 49 50 50 51
48 49 49 51 52 52 50 49 49 50 50 50 50 49 49 49 49 48 47 47 47 46 46 48 48 48 48 48 49 50 50 50 49 48 48 48 48 48 49 49 50 50
51 51 50 49 49 48 47 47 47 47 49 50 51 51 51 51 50 48 48 47 47 48 50 51 51 50 50 50 50 50 50 50 49 49 48 48 48 48 48 49 49 49

ECMWFNIL_500_spd_012.txt.gz
Wind_Speed
27 26 24 21 20 23 24 22 19 16 15 14 12 11 11 12 12 13 14 15 16 16 16 15 14 14 13 13 12 12 12 12 12 12 12 12 11 11 11 11 12 12
28 28 27 24 24 25 26 23 20 16 16 14 11 10 11 11 12 12 13 14 15 15 15 15 14 14 14 13 13 12 12 12 12 11 11 10 10 9 9 9 9 9
28 28 27 28 28 26 24 22 20 17 16 13 10 10 10 11 12 12 12 13 13 13 13 13 13 13 14 13 13 13 13 13 13 12 12 11 10 9 8 8 8 8
30 30 27 25 26 27 26 24 20 17 16 14 12 10 10 11 12 12 12 12 13 13 13 13 13 13 13 13 13 13 13 13 13 13 13 12 11 11 10 9 8 8
30 28 23 19 20 22 22 21 18 16 17 15 13 13 12 12 13 13 13 14 14 14 15 15 15 15 15 15 14 13 13 13 13 13 13 13 12 11 10 9 9 8
21 19 17 15 16 17 17 17 17 18 19 16 13 13 13 14 14 14 14 14 14 15 15 16 16 17 17 16 16 15 14 14 14 14 13 13 13 12 11 10 10 10
15 16 16 17 16 16 16 16 16 18 19 16 14 13 13 14 15 15 15 14 15 15 16 16 16 16 16 16 16 16 15 15 14 14 13 13 13 12 11 10 10 10
19 19 18 17 15 14 14 15 15 17 18 17 16 15 14 14 14 15 16 16 16 16 16 17 16 16 16 16 16 16 15 15 14 13 13 13 13 12 10 9 9 10
20 18 17 17 15 15 15 15 16 17 18 18 18 18 17 16 16 16 17 17 17 17 18 18 18 18 17 17 16 17 16 16 14 13 13 13 13 13 12 11 10 12
17 18 17 16 16 18 19 18 17 17 18 19 20 20 20 19 19 19 19 19 19 19 19 20 20 19 18 18 17 17 17 17 16 16 15 15 15 15 14 14 14 15
16 18 18 17 17 19 22 22 22 20 18 20 22 23 23 22 21 21 21 22 21 20 20 21 21 21 20 20 20 19 19 19 18 18 17 16 16 16 17 17 18 18
18 18 18 19 19 19 20 21 23 22 21 22 23 23 23 22 22 23 24 24 25 25 24 23 23 24 23 23 23 23 21 20 20 20 20 19 19 19 19 20 20 20
20 19 19 19 19 21 21 21 22 24 24 24 22 22 21 20 23 27 27 27 27 27 26 25 24 24 26 27 27 26 24 23 22 23 23 23 23 23 23 23 23 23
24 23 22 22 22 22 22 23 24 25 26 25 24 23 23 22 24 26 27 29 30 29 26 26 25 25 28 30 29 28 26 25 24 24 24 25 25 25 25 26 26 27
30 28 26 25 24 22 20 21 22 22 25 28 27 25 25 25 25 26 27 29 31 31 29 29 29 29 31 29 25 23 23 22 22 23 24 25 26 27 28 29 30 31
33 32 29 28 27 26 24 23 22 23 25 28 28 24 23 25 28 30 30 27 27 29 32 33 31 30 30 27 24 23 24 26 27 27 28 28 29 31 33 34 34 35
36 35 33 31 31 31 31 30 28 27 26 28 29 28 28 30 32 32 32 31 30 30 31 32 33 32 32 31 31 31 32 33 32 31 31 32 32 34 36 37 38 39
39 38 36 34 33 32 32 33 32 30 29 31 33 35 35 36 36 35 36 38 38 35 32 32 35 38 37 36 35 35 35 34 33 32 32 33 34 36 37 39 40 41
39 38 37 37 36 34 33 34 34 33 33 33 36 38 38 37 38 38 39 40 40 37 35 34 36 37 36 34 34 35 34 33 32 32 32 33 34 36 37 39 41 42
40 39 39 39 39 38 38 38 37 36 35 34 36 37 37 37 36 37 37 37 38 37 36 34 33 33 33 32 33 34 35 35 35 34 34 34 34 34 35 37 38 40
43 42 42 42 42 42 43 42 40 37 35 35 37 39 39 37 36 35 35 35 35 36 36 36 35 34 34 34 35 36 37 38 38 37 36 35 34 35 35 36 37 38
46 46 45 45 45 45 45 44 42 40 37 37 39 40 40 39 38 38 38 38 38 38 38 38 39 39 39 39 39 39 38 38 38 39 37 36 35 36 37 38 38 39
46 47 48 47 47 46 45 44 43 41 40 40 42 42 43 43 42 41 41 41 42 42 41 41 42 42 43 43 42 41 39 38 38 39 39 39 39 39 40 40 41 41
43 44 44 44 44 43 43 43 42 41 41 42 43 45 45 45 46 46 46 46 45 45 44 44 44 44 44 45 44 42 40 39 39 40 41 42 43 44 43 43 43 44
41 40 39 40 42 43 43 41 40 41 41 42 44 45 47 48 50 50 48 46 44 44 44 43 44 45 45 45 44 43 41 41 41 42 43 45 46 46 46 45 45 45
43 41 39 38 40 43 44 44 43 43 43 44 45 47 49 50 51 50 46 43 42 42 42 43 44 44 44 44 43 43 42 42 43 44 45 46 47 47 47 47 46 46

ECMWFNIL_500_spd_015.txt.gz
Wind_Speed
21 22 22 22 23 23 22 21 22 22 22 20 20 20 20 19 17 16 15 14 14 14 15 17 19 20 21 21 21 21 21 21 20 20 19 18 17 16 15 14 13 13
23 23 22 23 23 23 23 22 23 26 26 23 22 23 22 21 19 17 16 14 14 14 14 15 17 19 21 21 21 21 20 20 19 18 18 17 16 16 15 14 14 13
26 27 26 26 27 26 27 25 23 27 29 26 23 23 23 21 20 18 16 15 14 13 13 14 15 17 18 19 19 19 18 18 18 17 17 17 16 16 15 15 14 14
25 26 28 28 29 30 31 30 28 29 32 29 25 23 22 22 20 18 17 15 14 13 13 13 14 15 16 16 16 17 17 16 16 16 16 16 16 16 15 15 14 14
22 22 23 24 23 22 21 25 27 29 33 30 24 22 22 22 21 18 17 15 15 14 14 14 14 15 15 16 16 17 17 17 16 16 16 16 16 16 16 15 15 14
22 21 21 22 21 17 14 14 16 19 24 24 20 19 20 22 21 19 17 16 16 15 15 15 15 15 16 16 17 18 18 18 18 18 18 18 18 18 18 17 16 16
22 22 22 22 22 18 14 13 12 13 14 16 16 16 17 20 21 20 19 18 18 17 16 16 15 15 15 16 17 18 19 19 19 19 19 19 18 18 17 17 16 16
21 21 21 22 22 20 16 14 13 13 13 14 15 15 15 17 19 19 18 18 18 17 17 17 16 15 15 15 15 16 17 17 18 18 17 17 17 16 16 15 15 14
22 21 21 20 20 19 17 15 14 15 15 14 15 15 15 17 18 19 18 17 17 17 18 17 16 16 15 14 14 15 15 15 16 16 16 15 15 14 14 14 14 14
23 21 19 18 17 16 15 14 15 16 16 16 17 17 18 19 20 20 20 19 18 18 18 18 17 17 16 15 15 16 16 15 15 16 16 16 16 15 14 14 15 15
21 20 18 18 17 16 16 14 14 16 18 19 20 21 22 21 21 21 22 22 21 20 18 18 18 18 18 18 18 18 19 18 17 18 19 19 19 18 17 16 16 17
20 19 19 19 19 18 18 17 16 16 18 19 22 24 25 24 23 22 22 22 22 22 21 20 19 19 20 21 21 21 22 22 21 21 21 21 21 21 20 19 19 19
22 21 21 21 20 19 19 18 17 17 19 21 22 23 24 25 25 26 24 22 22 22 23 23 22 22 22 23 24 25 26 25 24 24 24 24 24 24 24 24 23 23
26 26 25 24 22 21 21 21 20 20 21 23 23 23 23 25 26 27 26 23 22 23 24 24 24 24 25 25 26 26 26 26 26 26 26 26 27 27 27 27 26 26
30 30 30 29 27 26 25 25 24 22 21 22 22 23 23 24 25 26 28 27 25 25 25 24 25 27 26 26 25 25 26 28 28 29 29 29 29 28 26 25 25 26
34 34 34 34 34 32 30 29 27 25 24 24 24 25 26 25 25 27 29 30 28 26 26 26 27 28 27 26 26 27 30 29 25 27 29 28 27 26 25 25 26 27
37 37 37 37 37 37 35 33 31 29 29 28 29 31 31 29 28 29 30 30 29 28 27 27 28 29 29 30 29 29 32 30 25 24 26 26 27 27 28 29 30 31
40 40 40 39 39 40 39 38 36 35 34 32 31 32 32 31 30 31 32 31 31 32 33 33 32 32 33 35 35 33 33 34 34 33 32 30 30 30 30 31 31 32
44 44 43 43 42 42 42 41 41 40 39 37 34 33 33 33 33 33 35 36 36 36 37 38 37 36 35 37 38 36 34 35 37 40 38 33 29 28 28 29 31 31
46 45 46 45 45 44 44 44 44 43 43 42 39 37 37 39 38 37 38 39 39 39 39 38 39 39 37 36 36 35 33 33 34 37 37 34 30 28 29 30 31 32
44 45 45 45 45 45 45 45 45 45 44 43 42 41 41 42 41 40 40 40 39 40 41 41 41 41 38 34 33 32 32 31 31 32 33 33 32 32 32 32 32 32
45 46 45 45 45 45 46 46 46 45 43 41 40 40 42 43 43 43 43 42 41 41 43 43 42 41 38 35 34 34 34 34 33 33 33 33 34 35 35 34 33 33
48 47 46 47 48 48 47 46 46 46 46 45 44 43 44 45 45 45 44 43 42 42 44 44 43 41 39 38 37 37 37 38 38 37 37 37 37 37 37 36 35 35
54 52 51 51 52 51 49 48 46 45 45 47 47 47 45 44 43 42 43 42 43 46 47 46 44 43 42 41 41 41 42 43 42 41 40 40 40 40 40 39 38 37
59 57 56 54 53 52 51 49 47 45 44 44 45 47 47 46 46 46 45 43 43 45 47 47 47 47 46 45 45 45 46 46 45 44 43 42 42 42 41 41 40 40
61 58 56 54 53 52 52 51 48 46 45 44 43 44 45 46 46 44 44 44 43 44 46 47 47 47 47 47 48 48 47 46 44 43 42 41 41 41 41 41 42 42

ECMWFNIL_500_spd_018.txt.gz
Wind_Speed
17 18 17 16 16 16 17 17 17 19 23 25 25 24 21 19 18 18 18 19 21 21 20 19 18 17 16 15 16 16 17 18 20 21 22 22 22 22 21 20 20 19
18 20 19 18 18 18 19 19 20 22 24 26 27 26 25 24 23 21 20 20 21 22 21 20 18 17 16 15 15 15 16 17 19 20 21 21 20 19 18 17 17 16
18 19 20 19 18 17 17 18 20 23 25 29 31 30 28 27 26 24 23 22 21 22 21 21 19 17 15 14 14 14 15 16 18 19 19 19 19 18 17 17 16 15
17 18 18 17 15 14 14 14 16 19 23 26 31 32 29 28 27 27 25 23 21 21 21 20 18 16 15 13 13 13 14 15 16 16 17 17 18 18 17 17 17 16
17 18 18 16 14 13 13 14 16 18 20 22 23 28 28 29 29 28 25 23 21 20 20 19 17 16 14 13 13 13 13 13 14 15 16 17 17 17 17 17 17 17
18 17 16 14 12 11 12 13 15 17 17 17 18 20 21 23 26 25 24 22 21 20 19 18 17 16 15 15 14 13 13 13 14 15 16 16 17 17 18 18 18 17
19 16 14 12 11 11 11 13 15 16 15 14 15 16 15 16 18 19 19 20 19 19 18 17 17 17 16 16 15 14 14 14 14 14 15 15 16 16 17 17 17 17
19 16 14 12 12 12 12 13 15 16 16 15 14 14 14 14 15 16 17 17 18 18 19 19 19 19 18 17 16 15 14 14 14 14 14 14 15 15 15 16 16 16
18 17 15 13 13 13 13 13 14 15 16 15 14 14 14 14 14 14 15 16 17 18 18 19 20 20 19 18 17 16 15 15 15 15 15 15 15 15 15 15 14 14
17 16 15 13 13 13 13 13 14 14 14 13 14 14 15 15 15 15 15 16 18 19 19 20 20 21 20 19 18 18 17 17 17 17 17 16 16 16 16 16 15 15
17 17 15 14 13 13 13 13 14 14 14 14 14 15 16 17 17 17 18 19 20 21 22 22 21 20 20 20 20 19 19 19 20 20 19 18 17 18 18 18 18 18
19 17 16 14 13 13 13 14 14 15 15 16 16 17 17 18 18 19 20 21 22 22 22 23 23 22 21 20 20 19 20 21 22 22 22 21 20 20 21 21 22 22
21 19 18 16 16 16 15 16 16 16 17 17 17 18 19 20 21 21 22 22 22 23 24 24 25 25 24 22 21 20 20 22 24 25 25 25 24 24 24 24 25 25
24 23 21 20 19 19 19 19 19 20 20 20 20 20 21 22 24 24 24 24 24 25 26 26 26 27 27 25 24 23 22 23 25 26 27 28 28 28 27 28 28 28
25 25 25 25 24 24 23 23 24 24 24 24 25 25 25 26 26 26 25 24 24 24 25 26 27 29 29 27 26 25 24 24 25 26 27 28 29 29 29 30 30 29
27 27 27 28 28 29 29 29 29 29 29 29 29 29 29 29 29 29 27 26 26 26 26 27 28 30 31 29 28 29 28 26 24 26 28 28 27 28 30 31 32 31
32 32 32 32 32 33 33 33 34 34 34 33 32 32 32 32 32 33 32 32 32 32 31 31 32 33 32 32 32 32 30 27 24 25 29 28 25 26 28 30 32 33
36 37 38 37 37 37 37 37 37 37 37 37 37 36 36 36 36 36 36 36 37 36 35 34 34 34 34 36 37 35 31 28 27 28 30 31 30 30 30 30 31 33
40 41 42 42 43 43 42 41 40 40 41 41 41 41 41 40 39 39 39 39 39 39 37 35 35 36 37 37 37 35 34 33 34 33 34 35 35 34 33 33 35 36
44 45 45 46 46 46 45 45 43 41 40 40 40 41 42 42 42 42 42 41 41 41 41 40 39 39 40 39 37 38 39 40 39 37 36 36 36 35 34 33 34 35
46 47 47 47 47 46 45 44 41 38 37 37 38 39 40 42 43 43 44 43 43 43 43 43 42 42 43 43 42 40 41 41 40 38 37 36 37 36 34 31 31 32
44 43 42 43 42 41 39 38 37 38 39 40 40 40 41 42 43 44 44 45 45 45 45 46 46 45 45 45 44 43 42 42 41 39 38 37 37 35 33 31 31 32
43 42 41 39 38 38 38 39 42 44 45 44 43 43 43 44 45 45 46 46 47 46 46 46 47 47 47 47 46 45 44 44 42 40 38 38 37 35 34 33 34 34
48 49 49 48 47 47 48 49 49 49 48 47 47 47 47 48 48 48 47 47 47 46 46 44 45 48 47 47 48 48 46 45 43 41 39 39 39 38 37 36 36 37
56 56 57 57 57 57 57 57 56 55 54 53 52 52 52 52 51 50 49 48 47 48 48 44 42 43 43 41 42 42 39 38 39 40 40 41 42 41 41 40 40 41
62 62 62 62 63 63 63 63 62 61 59 58 57 56 55 55 53 51 49 48 47 49 50 46 40 38 38 37 37 37 37 38 40 43 43 43 44 44 44 44 43 44

ECMWFNIL_500_spd_021.txt.gz
Wind_Speed
16 16 16 14 13 13 14 15 16 17 18 19 19 18 18 18 17 16 16 15 14 14 14 16 17 18 17 17 18 18 19 18 17 16 15 15 14 15 15 15 15 15
16 16 16 14 14 15 16 16 16 16 17 17 18 18 19 20 19 18 18 18 17 16 16 17 18 18 17 17 17 18 18 17 16 15 15 14 14 14 14 15 15 14
17 17 15 14 16 16 16 16 15 15 16 16 18 18 18 19 19 18 18 19 19 17 17 18 19 18 17 17 18 18 18 17 16 15 14 13 12 12 13 13 14 14
17 16 15 15 17 17 16 16 15 16 17 18 19 20 19 19 17 14 15 17 19 19 18 18 19 19 18 17 18 18 17 16 15 14 13 12 11 11 12 12 13 13
18 18 17 17 18 18 16 16 15 15 16 18 19 18 19 19 17 14 12 15 18 20 20 19 19 18 17 17 18 17 17 16 15 14 13 12 12 12 12 13 13 13
21 21 20 19 18 18 17 16 15 15 15 17 17 16 17 18 17 14 11 12 15 17 18 19 18 17 16 16 17 17 17 16 15 15 14 14 14 14 14 14 14 15
22 23 23 21 19 18 17 17 16 14 15 15 15 14 15 15 15 14 12 10 11 12 14 16 16 15 15 16 17 17 17 17 16 16 16 16 16 16 16 16 16 16
24 25 24 22 20 19 18 18 16 15 15 15 14 14 14 13 13 13 12 10 10 11 12 14 14 14 15 16 17 18 18 18 18 18 18 18 17 17 17 16 16 16
25 24 23 21 20 19 18 17 17 16 16 15 14 14 13 13 12 12 11 11 10 11 12 13 14 14 15 16 18 19 20 21 21 20 20 20 19 18 18 17 17 16
22 21 20 20 19 19 18 18 18 17 16 16 16 15 13 12 12 12 12 12 12 12 13 14 14 15 16 17 18 19 20 21 22 22 21 21 20 20 19 19 19 18
19 18 19 18 18 18 18 18 18 17 17 17 17 16 14 13 12 12 13 13 13 13 14 15 16 17 17 18 19 19 20 21 22 23 23 22 21 21 21 21 21 20
17 18 18 18 17 17 17 17 17 18 18 18 17 16 14 13 13 13 14 15 15 15 16 17 17 18 19 19 20 21 21 22 23 24 24 23 23 23 23 23 23 22
20 20 20 20 19 18 17 17 18 19 19 19 17 16 14 13 13 14 15 16 17 17 18 18 19 20 21 21 21 23 24 24 25 27 26 25 24 24 25 25 26 26
22 23 22 22 21 20 19 19 19 20 21 20 19 18 17 17 16 16 17 18 19 19 20 20 20 21 21 21 22 23 25 26 28 29 28 27 25 25 25 26 28 29
23 24 23 23 23 23 23 22 22 22 23 22 22 22 21 21 21 21 21 22 22 22 22 22 22 22 21 21 22 23 24 26 28 30 31 30 28 27 27 27 28 31
26 27 26 26 26 26 26 26 26 26 26 26 26 26 26 26 26 25 25 25 25 25 25 25 26 26 26 26 27 27 26 27 28 31 33 32 31 31 30 29 30 30
29 29 29 29 29 29 29 29 29 30 30 30 30 30 30 30 30 29 28 28 28 28 29 29 29 30 30 31 32 32 32 32 31 31 34 35 33 33 33 32 30 30
31 31 31 31 31 31 31 32 32 33 34 34 34 34 34 34 33 32 32 32 32 32 32 32 32 33 33 33 33 34 35 36 35 34 36 36 36 35 36 34 31 31
33 33 34 34 34 34 35 36 36 36 37 37 38 38 37 36 36 36 36 36 35 36 36 35 35 36 36 35 35 36 37 38 39 39 38 36 36 37 38 36 34 33
38 38 38 38 38 38 39 39 39 39 39 40 40 40 40 39 39 39 39 37 36 35 36 37 38 37 37 37 37 38 39 40 42 43 41 38 37 38 39 39 38 37
43 44 43 43 43 43 43 43 43 42 40 39 38 38 39 40 40 39 37 35 34 34 36 38 37 36 36 38 38 40 42 43 43 45 44 43 41 40 40 40 40 41
48 48 48 47 47 46 45 43 41 39 37 35 35 36 37 38 38 37 36 35 36 37 38 39 39 38 38 38 39 41 44 45 45 45 45 46 46 43 43 44 44 44
50 49 48 47 45 43 41 38 37 36 36 36 36 36 36 36 36 36 38 40 41 42 42 42 41 41 40 40 41 42 44 46 47 47 47 48 48 47 47 47 46 45
49 48 46 45 45 44 43 42 42 42 42 43 43 43 43 43 43 43 45 47 48 49 50 49 48 46 45 45 44 44 45 47 49 50 50 49 49 49 49 47 46 45
49 49 49 49 51 51 51 52 52 52 51 51 51 51 51 51 52 52 53 54 54 55 55 54 54 53 51 50 49 47 48 49 50 51 50 48 48 50 50 49 48 47
55 55 56 58 58 59 59 59 59 59 58 58 57 57 56 57 57 57 58 58 58 58 57 57 57 56 55 54 53 51 49 50 51 52 51 49 48 47 45 44 46 47

ECMWFNIL_500_spd_024.txt.gz
Wind_Speed
13 16 16 16 16 17 18 17 16 15 12 11 11 11 11 11 11 13 15 17 19 20 19 17 16 15 14 15 16 16 16 14 13 13 13 12 12 12 11 11 11 10
12 15 17 17 17 19 19 18 17 14 12 11 10 10 10 10 12 14 16 17 19 21 21 19 17 16 16 16 16 16 16 15 14 14 13 12 12 12 11 11 10 10
15 17 19 19 20 21 21 19 17 14 11 10 10 9 10 11 12 14 16 17 18 19 20 22 20 19 18 17 17 16 15 15 15 15 14 13 13 12 12 11 10 10
16 17 19 21 22 23 22 20 17 14 11 10 10 10 11 11 12 12 14 16 17 17 17 20 21 20 19 18 17 17 16 15 15 15 15 15 14 13 12 12 11 10
15 16 18 21 23 24 22 19 17 13 11 11 10 11 12 11 11 12 14 14 15 15 14 16 19 20 20 20 19 18 17 16 16 15 15 15 14 14 13 12 12 12
17 17 17 20 23 23 20 18 16 14 13 12 12 12 12 11 11 12 14 15 16 15 14 14 16 19 20 20 20 19 17 16 16 16 15 15 15 14 14 14 14 14
18 16 14 16 20 21 20 19 17 16 15 15 14 13 12 12 12 12 13 15 16 16 14 13 13 15 17 18 18 18 17 16 15 15 15 15 16 16 16 16 16 16
19 16 13 13 17 19 21 22 20 19 18 17 16 15 14 13 13 12 13 14 15 15 14 12 12 12 14 15 16 17 16 16 16 15 15 16 16 17 17 18 18 18
19 18 16 16 17 18 20 21 21 21 20 18 18 17 16 15 14 13 13 13 14 15 15 13 12 11 12 14 15 16 16 16 16 17 17 17 18 18 19 19 19 19
19 19 19 18 18 18 19 20 21 21 20 19 19 18 17 16 15 14 15 15 15 16 15 14 13 12 12 13 14 15 15 16 17 17 18 19 19 19 19 19 19 19
20 21 20 20 19 19 20 21 21 21 20 19 18 18 17 16 15 16 16 17 17 17 16 14 13 12 12 13 14 15 16 17 18 19 20 20 20 20 20 20 21 21
20 19 19 20 20 19 20 20 20 20 19 18 17 18 18 17 17 17 18 18 18 17 16 14 13 12 12 12 14 15 17 18 19 20 21 22 22 22 22 23 23 23
15 15 16 17 18 18 18 18 18 18 18 18 18 19 19 18 18 18 19 19 18 18 17 16 15 14 13 13 14 15 17 18 20 21 22 23 25 25 25 25 25 25
13 14 15 16 17 18 18 18 18 18 19 19 19 19 19 19 19 19 19 19 20 20 19 19 19 18 17 15 15 15 16 18 20 21 21 24 26 27 27 27 27 27
15 15 16 17 18 19 19 19 19 19 19 19 19 19 20 20 20 20 21 21 21 22 22 22 23 23 22 20 19 18 18 19 20 20 20 23 26 27 28 29 30 31
18 18 18 18 19 20 20 20 21 21 21 21 21 22 22 22 23 23 24 24 24 25 25 26 26 27 26 25 25 24 22 22 23 22 22 23 25 27 28 30 31 33
20 20 20 21 21 22 23 23 23 23 23 23 24 24 24 24 25 25 26 27 27 28 28 29 30 31 30 30 30 29 27 26 26 26 26 26 27 28 29 30 32 34
22 23 23 23 24 25 26 25 25 25 25 26 27 27 26 26 26 27 28 28 29 30 32 33 34 35 34 34 34 33 32 30 30 30 29 29 29 29 30 31 33 35
25 25 26 27 27 28 29 28 27 28 27 28 29 29 28 28 28 29 30 30 31 32 34 35 37 38 36 35 35 35 35 34 33 33 34 34 34 33 32 33 35 37
30 29 30 31 30 31 32 31 31 31 30 30 31 31 31 32 32 33 33 34 34 33 32 33 37 38 35 33 34 34 33 33 34 36 36 37 37 36 35 35 37 39
37 36 37 36 35 35 35 35 35 35 36 36 35 36 36 37 36 35 35 34 33 32 30 31 36 37 35 33 33 32 31 31 33 34 36 37 39 39 39 39 39 40
41 41 41 41 40 40 40 40 40 41 42 41 39 38 36 34 33 32 31 30 29 29 31 33 35 36 35 34 33 32 32 33 34 35 36 38 39 40 41 42 41 41
44 43 43 43 42 42 42 42 43 43 42 42 40 37 34 32 30 30 30 30 30 32 34 35 36 37 37 37 37 37 38 39 40 40 40 41 43 44 45 46 43 41
47 47 45 43 41 42 43 43 43 43 42 41 40 37 35 34 34 35 36 37 39 40 41 42 43 44 44 44 45 46 47 47 48 48 47 48 48 48 49 48 45 44
49 50 48 44 44 46 47 46 46 45 44 44 42 41 40 41 42 43 46 47 48 49 49 50 50 50 50 50 51 52 52 52 52 51 51 52 52 52 53 51 48 48
49 49 49 48 48 49 48 47 45 45 47 48 49 49 50 51 52 53 54 54 54 54 54 54 54 55 55 54 54 55 56 56 55 55 55 55 54 54 53 50 47 47

ECMWFNIL_500_spd_027.txt.gz
Wind_Speed
11 13 15 15 13 13 13 13 12 11 11 11 11 10 9 9 9 9 9 10 11 11 12 13 14 15 15 14 13 12 12 12 12 12 11 11 10 9 8 8 8 8
7 9 11 12 13 13 14 14 14 12 12 12 12 11 10 9 8 9 9 10 11 11 11 12 13 14 16 16 15 15 15 14 14 13 12 12 11 10 9 9 9 9
8 9 10 11 13 15 16 17 16 14 13 13 13 12 11 9 8 9 9 10 11 11 10 11 12 13 15 17 17 17 17 16 15 14 14 13 12 11 10 10 9 9
11 11 11 13 16 17 18 19 18 17 15 14 14 13 11 9 9 8 9 10 11 11 11 11 11 13 14 17 18 18 17 16 15 15 14 13 12 12 11 11 10 10
13 12 13 14 15 16 18 20 21 20 17 16 15 14 12 10 9 9 10 10 11 11 11 11 12 13 14 16 18 18 18 17 16 15 14 13 12 11 11 11 11 10
14 14 14 14 15 15 17 19 21 20 18 16 16 15 14 12 11 10 11 11 11 11 11 11 12 13 14 15 16 17 18 17 17 15 14 13 12 11 11 10 10 10
16 16 15 16 15 15 16 18 20 19 17 16 16 15 15 15 13 12 12 12 12 12 11 11 13 14 14 14 14 14 15 16 16 15 15 14 13 12 11 11 10 10
18 17 16 16 16 16 15 15 17 19 19 18 18 18 18 17 16 15 14 13 12 12 11 11 13 15 15 15 14 14 14 14 15 15 15 14 14 13 12 11 11 10
20 19 18 17 17 18 16 15 17 19 21 22 23 22 21 20 18 16 15 14 13 12 12 12 13 15 16 15 14 13 13 14 14 14 14 14 14 14 13 12 12 11
21 20 20 19 19 19 19 19 19 21 23 25 25 24 22 21 19 17 16 15 14 13 14 14 15 16 16 15 14 13 13 13 13 14 14 14 14 14 14 13 13 12
22 21 21 21 21 21 21 21 21 22 23 24 23 22 22 20 19 17 15 15 15 15 15 16 17 17 16 15 13 13 13 13 14 14 14 15 15 15 15 15 14 14
22 22 22 22 22 22 22 21 21 21 21 22 21 21 21 20 18 17 16 16 16 16 16 17 17 17 16 15 14 13 14 14 15 15 15 16 16 16 16 16 16 17
24 24 23 23 22 20 19 18 18 18 19 19 20 20 19 19 18 17 16 16 16 16 17 17 18 17 17 17 16 15 15 15 16 17 17 17 17 17 16 16 16 17
23 24 22 20 18 16 15 15 15 15 16 17 17 18 18 18 17 18 17 18 18 18 18 19 19 19 19 19 18 17 18 18 19 19 19 18 18 19 18 18 18 18
19 21 19 17 16 15 15 15 14 15 15 15 16 17 17 17 18 18 19 19 19 19 19 20 21 21 21 21 21 21 22 22 22 22 22 21 21 21 22 22 22 22
18 19 19 18 16 15 15 15 15 15 15 16 16 16 17 17 18 19 19 20 20 20 20 21 22 23 24 24 24 24 25 26 26 26 25 24 24 24 25 25 25 25
19 19 20 19 17 14 14 16 16 16 17 17 17 18 19 19 20 21 21 21 21 21 21 21 22 24 25 26 26 26 27 28 29 29 29 29 29 29 29 28 28 28
21 20 20 20 18 13 13 16 18 18 18 19 20 21 22 22 22 23 23 23 23 22 22 22 23 25 26 28 28 28 28 28 29 30 31 33 34 34 33 32 32 31
20 20 21 23 23 21 19 18 19 20 21 21 22 23 24 24 24 24 25 24 24 25 26 26 27 27 28 29 29 29 29 28 27 27 29 31 34 35 35 35 35 35
23 23 25 29 31 31 27 23 23 24 25 25 25 26 27 27 27 27 27 27 27 29 30 31 31 31 32 32 31 30 29 29 29 27 27 28 30 32 33 33 33 33
28 29 31 33 34 34 32 30 29 29 29 29 29 29 30 31 31 31 30 31 32 33 35 35 36 35 34 33 32 30 29 29 30 29 28 29 30 31 33 34 35 35
33 34 35 36 36 36 35 34 33 33 33 33 33 34 34 36 36 35 35 36 37 37 37 37 36 34 32 31 30 30 31 31 32 32 33 33 33 33 35 37 39 40
36 37 38 38 38 37 36 36 36 36 36 37 38 38 38 39 40 39 38 37 37 37 36 34 33 32 31 31 31 32 34 35 36 38 39 39 39 39 41 42 43 44
40 41 41 40 40 40 40 40 40 40 40 41 41 41 41 42 42 42 39 37 36 35 34 34 33 33 33 33 34 36 38 40 42 44 44 44 44 44 44 45 47 47
44 43 43 43 44 44 45 45 45 45 45 45 45 45 45 45 45 45 43 42 41 38 37 37 36 36 37 38 40 42 45 47 47 47 47 47 48 48 47 47 48 49
45 45 45 46 47 48 48 49 50 51 51 50 50 49 49 48 49 49 49 49 47 43 42 42 42 43 44 46 47 49 50 50 50 49 49 50 51 50 50 50 51 51

ECMWFNIL_500_spd_030.txt.gz
Wind_Speed
12 13 14 14 13 11 10 10 9 8 8 7 7 8 7 7 7 7 7 8 8 10 10 10 10 10 10 12 13 13 12 11 10 10 10 10 11 12 12 12 12 12
11 11 11 11 9 8 10 10 9 9 8 8 8 8 8 8 8 8 8 8 7 7 7 8 9 8 8 9 11 13 13 12 11 11 11 11 11 12 12 12 12 12
10 10 10 9 8 8 10 11 10 10 10 9 10 10 9 10 10 10 9 8 7 5 5 6 7 6 6 6 8 11 13 13 13 12 12 12 12 12 12 12 13 12
9 10 10 9 9 10 11 12 13 12 12 11 11 11 11 11 12 12 10 9 7 6 6 7 6 5 5 5 6 8 10 12 13 13 13 13 13 13 13 13 13 13
11 12 12 11 11 12 13 14 15 14 14 13 13 13 13 13 13 13 12 11 9 8 8 8 7 6 5 5 7 8 9 11 12 13 13 13 13 13 13 13 13 12
15 15 16 15 13 13 14 15 15 15 15 15 14 14 14 14 14 14 14 13 12 11 10 9 9 7 5 6 7 8 9 10 11 12 12 12 13 13 13 13 12 12
18 19 19 18 16 16 16 16 16 16 17 17 16 16 15 15 15 16 15 15 14 13 12 11 10 8 6 6 7 9 10 10 10 10 10 11 11 12 11 11 11 12
20 21 22 21 19 19 19 18 17 17 18 18 18 17 16 16 16 17 17 16 16 15 13 11 10 8 7 8 8 10 10 11 10 10 10 10 11 10 10 11 11 12
22 23 24 24 22 21 21 20 19 19 19 20 19 19 18 18 18 18 17 17 16 15 13 12 10 9 9 9 10 10 11 11 11 11 11 11 10 10 10 11 11 12
21 24 25 25 24 23 22 21 20 20 21 21 21 21 20 20 19 19 18 17 16 15 13 12 11 10 10 10 11 11 11 12 11 11 11 11 11 11 12 13 13 13
20 23 26 27 26 24 23 23 22 22 22 22 22 21 20 19 19 18 17 16 15 15 14 13 13 12 12 12 12 12 13 13 13 13 13 13 13 13 13 14 15 14
22 23 24 26 25 24 24 24 24 23 22 22 21 20 19 18 17 17 16 16 15 15 15 14 14 14 14 14 14 14 14 14 14 14 14 14 14 14 14 15 15 15
26 25 25 26 25 23 24 25 24 23 22 21 20 20 19 18 17 17 16 16 16 16 16 15 14 14 14 15 15 15 15 15 16 16 16 16 16 16 16 16 15 15
28 28 29 29 26 24 24 24 24 23 22 22 21 21 20 19 18 18 18 18 18 18 17 16 15 14 15 15 16 16 16 16 16 17 17 18 18 19 19 19 19 18
27 28 28 27 26 24 24 24 24 23 23 23 23 22 21 20 20 20 20 20 20 20 19 18 18 17 17 17 18 18 18 18 18 19 19 19 20 21 22 23 23 23
22 24 24 23 22 22 22 24 25 24 23 23 22 22 22 22 22 22 22 22 22 21 21 21 20 20 20 21 21 21 21 21 20 20 20 20 20 21 23 24 25 26
16 17 19 19 20 21 22 23 23 22 22 21 21 22 23 23 23 23 23 23 23 23 23 23 23 23 23 24 23 23 23 23 22 22 21 21 21 21 22 23 25 26
13 14 17 19 21 22 22 22 22 21 21 21 21 22 22 22 23 23 24 24 24 25 25 25 26 26 26 26 26 25 25 24 24 24 24 24 23 22 22 22 23 25
19 18 19 21 23 23 23 23 23 22 21 21 22 23 22 22 22 23 24 25 26 27 27 27 28 28 28 28 28 28 27 27 27 27 27 27 26 25 24 24 24 24
24 22 22 23 23 23 24 24 24 24 22 20 21 23 24 24 25 25 26 27 29 30 30 29 29 29 29 30 30 31 31 31 31 31 30 29 29 28 28 27 27 27
27 25 24 25 26 26 27 28 29 30 28 25 25 27 27 27 28 28 28 29 31 32 32 32 32 32 32 32 33 34 35 36 36 36 35 34 32 31 31 30 30 31
29 28 28 28 29 30 31 31 32 33 33 33 34 33 31 31 31 32 32 33 34 34 34 34 35 36 36 36 36 37 38 40 41 41 41 39 37 35 34 33 32 33
31 31 32 32 33 34 34 34 34 35 37 37 37 36 35 35 35 36 37 37 38 38 38 38 39 40 41 41 42 42 42 43 44 44 44 43 41 39 37 35 34 35
34 34 35 35 36 37 37 37 38 39 39 38 38 39 39 38 39 39 40 40 40 41 41 42 43 44 45 46 46 46 45 45 44 44 44 44 43 41 38 37 36 37
39 40 39 38 39 40 40 40 40 41 41 41 42 42 42 41 42 42 43 43 43 44 45 46 47 47 48 48 49 48 47 45 44 44 45 46 45 44 42 41 40 42
39 41 41 41 42 42 43 44 44 44 45 46 46 44 44 44 44 44 45 46 47 47 48 48 48 48 48 49 49 49 48 47 46 46 47 48 48 48 47 46 45 47

ECMWFNIL_500_spd_033.txt.gz
Wind_Speed
26 28 28 28 27 26 24 21 18 16 16 15 15 14 14 13 13 12 12 12 11 11 11 12 12 12 12 13 13 13 13 13 11 10 10 10 9 9 10 10 11 12
24 26 26 25 25 24 23 21 19 18 17 16 15 15 14 13 13 13 12 12 12 11 11 11 12 12 11 11 11 11 11 11 11 10 10 10 10 10 10 10 11 12
22 22 22 21 21 21 21 21 20 19 18 17 16 15 14 14 14 13 13 12 12 12 12 11 10 10 10 10 9 8 8 9 9 10 10 11 11 10 10 11 12 13
19 19 19 18 19 19 20 21 20 19 18 17 16 15 14 14 14 14 13 13 12 12 12 11 10 9 9 9 8 7 6 6 7 7 8 9 10 10 10 11 12 12
18 16 15 15 16 18 18 18 17 17 17 17 16 15 15 14 14 14 14 13 13 13 13 12 10 9 9 9 7 6 5 5 5 5 6 7 8 9 10 11 12 13
17 16 14 14 15 17 17 15 14 14 14 15 15 15 15 14 15 14 14 14 13 13 13 13 12 11 11 10 8 6 5 5 5 5 5 6 6 7 9 10 12 13
19 17 16 16 16 17 17 15 14 13 14 14 15 15 14 14 15 15 14 15 15 14 14 14 13 12 12 11 9 7 6 5 5 5 5 5 6 6 8 9 11 12
20 19 18 18 18 18 18 17 16 15 15 16 16 16 15 15 16 16 16 16 16 15 15 14 14 13 12 11 9 7 6 6 5 6 6 6 7 7 8 8 10 11
21 21 20 20 19 19 20 20 19 18 18 18 18 18 17 17 18 18 18 18 17 16 15 15 14 13 12 11 10 8 7 7 7 7 7 7 8 8 8 9 9 9
24 23 22 21 20 20 22 22 21 21 21 21 21 20 19 19 19 20 19 19 18 16 15 15 15 15 14 13 12 11 10 9 9 8 8 8 9 9 9 9 9 9
24 24 22 20 19 21 24 24 23 24 24 23 22 21 20 20 20 21 21 19 18 17 17 17 16 16 16 16 15 13 12 11 11 10 10 10 10 10 10 10 10 10
23 23 22 20 20 22 23 24 25 26 25 24 23 23 22 21 20 21 21 20 19 18 18 18 18 18 17 17 16 15 14 13 13 12 11 11 12 12 12 12 11 11
21 22 22 23 24 25 24 24 25 25 24 23 24 24 23 21 21 21 21 20 19 18 18 18 19 19 18 17 17 16 15 15 14 13 13 13 14 15 15 14 14 14
20 20 21 23 26 27 27 25 24 23 22 23 23 23 23 23 22 22 22 20 20 19 19 19 20 20 19 19 18 18 17 16 16 16 16 16 17 17 17 17 17 17
21 21 21 22 26 28 28 26 25 25 25 25 23 23 24 24 24 24 23 22 21 21 20 20 21 21 20 20 19 19 19 19 19 19 19 19 19 19 20 19 19 19
23 22 21 22 24 27 28 27 27 28 27 26 25 24 25 26 26 25 24 24 23 22 21 21 21 21 21 21 20 20 20 21 21 21 21 21 21 21 21 21 21 20
23 21 20 21 21 22 24 26 27 26 24 25 26 26 27 27 27 26 25 25 24 24 23 22 22 22 22 23 23 23 23 23 23 23 23 24 24 23 23 23 23 22
22 21 21 20 17 16 19 22 24 22 21 23 26 27 28 28 27 26 25 25 25 25 24 23 23 23 24 24 25 25 25 25 26 26 26 26 26 26 25 25 25 25
24 22 22 21 18 16 17 19 22 22 21 22 23 23 24 26 26 26 26 26 26 25 25 25 25 25 25 26 27 27 28 28 29 29 29 29 28 28 28 28 28 28
25 24 24 24 23 21 20 21 23 24 23 22 22 23 24 26 26 26 26 26 26 26 27 26 26 26 27 28 29 30 30 30 31 31 31 31 31 31 31 31 31 31
27 26 26 27 26 25 25 26 27 26 26 25 26 27 29 29 28 27 26 26 26 27 27 27 27 28 29 30 31 32 32 32 32 33 33 33 34 34 34 35 35 36
27 27 28 29 29 28 29 30 30 29 29 30 31 31 30 29 28 26 25 25 26 27 29 30 31 31 31 32 33 34 34 35 35 36 37 37 37 38 38 38 39 40
27 27 28 30 30 30 30 30 29 30 31 32 33 32 31 30 30 30 30 30 30 30 32 34 35 36 36 36 36 36 36 37 38 39 40 41 42 42 42 42 43 43
28 29 31 32 32 31 31 30 30 30 32 33 34 34 33 33 34 35 37 38 37 35 35 37 39 40 40 39 39 39 40 41 42 43 44 45 45 45 46 47 47 46
29 30 31 32 32 32 32 32 33 33 34 35 36 37 37 38 38 39 41 42 42 41 40 40 42 43 43 43 43 43 44 44 45 46 47 48 48 48 48 49 49 49
30 30 31 32 33 33 33 34 36 36 37 37 38 39 40 41 42 43 43 44 45 45 45 45 46 47 47 47 47 47 48 48 49 50 50 51 51 51 51 51 51 51

ECMWFNIL_500_spd_036.txt.gz
Wind_Speed
27 29 30 29 27 25 24 24 22 20 17 14 14 15 16 17 17 16 15 14 13 13 13 13 14 14 14 14 14 14 14 14 15 15 14 12 10 9 8 7 8 8
26 29 31 30 29 27 26 24 22 20 18 16 15 16 17 17 16 15 14 13 12 13 13 13 13 13 13 13 14 14 14 15 16 15 14 12 10 9 9 9 9 10
25 27 29 29 29 28 27 26 24 23 23 20 18 18 18 16 16 15 14 13 13 13 13 13 13 13 13 13 13 13 13 14 15 15 14 12 11 11 12 11 11 11
21 24 26 26 27 26 25 25 25 25 24 21 20 19 18 17 17 17 15 14 14 14 14 13 13 13 12 12 12 11 11 12 12 12 13 13 13 13 13 13 12 12
19 20 22 23 23 22 22 23 24 25 23 21 21 20 19 19 18 18 17 16 16 16 15 14 13 13 13 12 11 11 11 11 10 11 12 13 13 13 13 13 13 14
19 19 20 20 19 19 19 20 21 22 22 21 21 21 20 20 19 19 18 17 17 17 16 16 15 14 14 13 11 11 12 12 11 11 12 13 13 14 14 14 14 14
20 19 19 18 16 15 16 17 18 19 20 21 21 21 21 21 21 21 20 18 18 18 18 17 16 15 15 14 12 13 13 13 13 13 13 13 14 14 14 14 14 13
20 19 18 16 15 14 14 15 16 17 17 18 19 20 21 22 23 22 21 20 20 20 20 19 18 16 16 15 14 14 14 14 14 13 13 14 14 14 13 13 13 12
21 21 19 17 16 15 14 14 15 15 15 16 18 19 20 21 22 21 21 21 21 22 21 21 19 18 17 16 15 15 15 15 15 14 14 14 13 13 12 12 12 12
23 23 21 18 17 17 16 15 16 16 16 17 18 18 18 19 20 20 20 21 21 22 22 22 21 19 18 17 16 16 16 17 17 16 15 13 12 12 11 11 12 12
23 23 22 21 20 19 18 17 17 17 18 20 20 20 19 20 20 20 21 20 21 21 22 22 21 21 19 18 18 18 18 19 18 17 16 14 13 12 11 11 12 13
25 24 23 23 22 21 20 18 17 17 19 21 22 22 22 21 21 22 21 20 20 21 22 23 22 22 21 21 20 20 20 21 20 18 17 16 14 13 12 12 12 13
29 27 25 23 23 22 20 19 18 18 19 21 21 22 23 23 22 22 21 20 21 21 22 23 24 24 24 23 23 22 22 22 21 20 18 17 16 14 14 14 14 13
27 28 27 24 22 22 20 19 20 20 19 20 21 21 22 23 23 23 23 22 22 22 23 24 24 24 25 25 24 24 24 23 23 21 19 18 18 17 16 16 16 16
20 20 21 21 20 21 20 20 21 20 19 20 20 19 19 20 21 23 24 24 23 23 24 24 25 25 25 25 24 24 24 23 22 21 20 19 19 18 17 18 18 18
19 18 18 18 20 21 20 20 21 21 21 21 21 20 19 20 22 23 25 25 24 24 25 25 25 25 25 25 25 24 23 23 22 21 21 20 20 20 20 20 21 21
21 20 20 20 20 20 20 20 21 22 23 23 23 22 22 23 24 24 25 26 26 26 27 27 26 26 26 25 25 25 24 23 23 22 22 22 22 22 23 24 24 24
22 22 20 19 19 20 20 20 21 22 24 24 23 23 23 23 23 24 25 26 27 28 28 28 28 28 27 27 27 26 25 25 24 24 24 24 24 25 26 26 27 27
21 21 19 18 19 20 21 21 21 22 24 24 23 22 22 22 23 23 25 27 28 29 30 30 30 30 29 28 27 27 26 26 26 26 26 26 27 27 28 29 29 30
20 20 19 19 20 21 22 23 23 23 23 23 22 22 22 22 23 24 26 27 28 29 30 31 31 30 29 29 28 27 27 26 26 27 27 28 29 30 31 31 32 32
22 23 24 23 22 22 23 25 26 25 24 23 23 23 23 23 25 26 27 29 29 30 30 31 31 30 30 29 29 28 28 28 28 29 30 30 31 32 33 33 34 34
17 18 19 18 19 20 21 22 24 24 23 23 23 24 25 26 28 29 30 31 31 31 31 32 32 31 31 31 30 30 30 31 31 32 32 33 33 34 35 35 36 37
17 18 17 14 16 17 17 19 21 21 22 23 25 27 28 28 28 28 30 31 32 32 33 34 34 34 33 32 31 31 33 34 34 34 34 35 35 36 36 37 38 39
24 25 23 21 22 21 21 22 24 25 26 27 27 29 29 28 27 27 28 30 31 33 35 36 36 36 35 34 33 34 35 37 38 38 38 39 39 40 40 40 41 42
26 26 26 25 26 25 25 25 26 28 30 30 29 29 29 29 29 29 30 31 32 34 36 37 37 37 38 39 40 40 41 41 41 42 42 42 43 44 45 45 46 46
29 29 29 28 28 27 25 25 26 27 28 29 29 31 32 33 34 34 33 33 34 35 37 38 39 40 42 45 47 47 47 46 46 46 46 46 46 47 48 49 49 49

ECMWFNIL_500_spd_039.txt.gz
Wind_Speed
24 21 20 20 22 25 28 29 28 26 24 22 21 21 20 18 16 16 16 17 18 18 18 18 18 18 18 17 17 16 16 16 16 15 15 14 14 14 14 15 14 14
21 19 20 20 21 24 26 27 25 24 23 23 21 20 19 17 16 16 17 18 18 18 17 17 17 17 17 16 16 15 15 15 15 15 15 15 15 15 14 14 14 14
17 18 19 20 21 22 24 24 23 22 22 21 20 20 20 18 17 16 18 18 18 18 17 17 17 16 16 15 15 14 14 14 15 15 15 15 15 15 15 15 15 15
16 16 17 19 20 22 24 25 25 24 24 23 23 23 22 21 18 16 17 18 17 17 17 16 16 16 15 15 14 14 13 13 14 14 14 14 15 16 16 16 16 16
16 16 16 18 21 24 25 25 25 25 25 25 25 24 23 21 19 17 17 18 17 17 17 16 16 15 15 15 14 13 13 12 12 12 12 12 13 15 16 16 17 17
18 18 17 17 20 22 22 21 21 21 21 22 23 24 24 22 20 19 19 18 17 17 17 17 16 16 16 15 14 13 13 12 11 11 11 11 12 14 14 15 16 16
19 19 18 17 17 18 18 17 17 18 19 20 21 24 24 22 21 20 20 19 17 17 17 18 17 16 16 16 15 14 14 13 12 12 12 12 12 13 14 15 15 15
20 20 19 18 17 16 15 15 15 16 18 19 21 23 23 22 22 21 20 19 18 17 18 18 18 18 18 18 17 17 16 14 13 13 14 14 14 14 15 15 14 13
21 20 19 19 17 16 15 15 15 16 16 17 19 20 21 21 21 20 20 19 19 19 19 20 20 19 20 20 19 19 18 16 15 15 16 16 16 16 16 15 14 13
21 21 21 21 19 18 17 16 16 15 15 16 17 18 19 19 19 18 19 19 20 20 21 21 22 21 22 22 21 21 20 19 17 17 17 18 18 17 17 16 16 15
23 22 22 22 21 21 21 19 18 17 17 17 18 18 18 18 18 18 18 19 20 21 22 22 23 23 24 24 23 22 22 21 19 19 19 19 20 20 19 19 18 17
24 23 23 22 22 22 22 21 20 19 18 18 19 18 18 19 19 18 19 19 20 20 20 21 22 23 24 24 24 24 23 23 22 20 20 21 21 21 21 20 19 18
23 23 23 23 23 22 22 21 21 20 19 19 18 18 18 19 19 20 21 21 21 20 20 20 20 21 22 23 24 24 24 24 23 22 21 22 22 22 22 21 20 19
25 24 24 25 25 24 23 21 21 21 21 20 18 18 18 19 20 21 23 23 22 22 21 21 21 21 22 23 24 25 25 24 24 23 22 23 23 23 22 21 20 20
28 27 27 28 27 26 26 24 22 23 23 22 20 19 20 20 21 21 22 23 23 22 22 22 22 22 23 23 23 24 24 24 24 23 23 23 23 23 22 21 20 20
30 30 30 30 31 31 31 29 25 24 24 23 21 21 20 20 21 21 22 22 23 22 22 22 22 22 23 23 22 22 23 23 23 23 23 23 23 22 22 22 21 21
26 28 29 30 30 30 29 27 25 24 24 23 22 21 21 21 21 21 21 21 22 21 21 21 21 21 21 22 22 22 22 22 23 23 23 23 23 23 23 22 22 22
18 22 25 25 24 24 22 22 23 24 24 23 22 21 21 22 22 21 22 23 23 23 23 23 22 21 21 22 22 23 23 23 23 23 23 24 24 24 25 25 25 26
14 16 19 21 22 23 21 20 22 24 23 22 22 21 20 21 22 21 23 25 24 23 23 22 22 22 23 24 24 25 25 25 25 25 26 26 27 28 28 28 28 28
16 17 18 19 20 19 18 18 20 21 21 21 22 21 20 20 21 21 22 23 23 22 22 22 23 23 24 26 27 27 28 28 28 28 29 29 30 30 31 31 31 31
17 18 19 19 19 18 18 18 19 20 21 22 22 21 20 20 20 20 21 21 21 21 21 22 23 24 25 27 28 28 29 29 30 30 31 31 32 32 33 33 33 33
19 20 20 21 22 22 22 22 22 23 23 23 23 22 21 21 22 22 21 21 21 23 24 24 25 26 27 29 29 30 30 31 31 32 33 34 34 34 35 34 34 34
23 23 22 22 21 21 20 20 21 23 23 23 23 23 23 23 24 23 23 23 25 26 27 28 28 28 29 30 31 31 32 32 33 35 36 36 36 36 36 36 36 37
23 24 23 19 16 16 17 18 20 23 23 21 20 20 21 23 24 25 26 27 29 30 30 30 30 30 31 32 33 33 34 35 37 38 39 39 38 38 38 38 38 39
23 22 23 21 19 19 19 19 21 23 22 20 20 21 23 25 27 29 30 31 32 33 33 33 33 33 33 34 35 36 37 38 39 41 42 41 41 40 40 39 40 41
27 24 23 24 25 25 24 23 24 24 23 24 25 26 27 27 27 30 31 32 32 33 34 34 34 34 35 36 37 38 39 40 41 42 43 44 44 43 43 43 45 47

ECMWFNIL_500_spd_042.txt.gz
Wind_Speed
27 26 26 24 21 18 18 21 22 24 25 26 24 22 20 17 15 15 16 17 17 18 19 20 20 20 20 20 19 18 18 17 17 17 17 17 17 17 17 16 15 15
27 24 22 22 20 18 18 21 23 24 25 25 23 22 20 18 18 18 17 17 17 18 19 20 19 20 20 20 20 19 18 18 18 18 18 18 18 17 16 15 15 15
26 22 21 21 20 18 19 20 21 22 22 22 21 22 22 22 22 19 17 16 17 18 19 20 19 19 19 19 19 18 18 17 17 17 17 17 17 17 16 16 16 15
24 21 19 20 20 19 20 20 20 19 18 19 20 21 21 20 19 17 15 15 17 18 19 19 19 19 19 18 18 17 16 16 16 16 16 16 16 16 16 15 15 15
21 19 17 18 19 20 20 20 19 17 17 18 20 20 19 18 17 18 17 17 17 18 18 19 19 19 19 18 17 16 15 15 15 15 15 14 14 13 12 12 12 13
18 18 18 17 18 19 19 19 18 17 18 19 20 21 21 21 21 21 19 17 17 18 18 19 19 18 18 17 16 15 15 15 14 14 13 12 11 10 9 9 10 12
18 18 19 18 18 18 17 17 17 18 19 20 20 21 21 21 21 20 19 17 17 18 19 19 19 18 17 17 16 15 15 14 14 13 13 12 11 10 9 9 10 12
20 20 20 19 18 18 16 16 17 18 20 20 20 20 20 21 21 20 19 18 18 18 19 20 19 18 17 17 17 16 16 15 14 14 13 13 13 12 11 11 12 13
21 21 20 20 20 19 17 17 17 18 19 19 19 20 20 22 23 21 20 19 19 19 20 20 19 18 17 17 17 18 17 17 16 16 15 15 15 14 14 13 14 14
22 23 22 22 22 21 19 18 18 18 18 18 18 19 21 23 22 20 19 19 19 19 20 20 20 19 18 18 18 18 19 19 19 18 18 17 17 17 16 16 16 16
26 25 24 23 22 21 21 20 19 18 17 17 17 18 19 20 18 17 17 18 18 18 20 21 20 19 19 19 19 19 19 20 20 20 20 19 19 19 18 18 18 18
27 26 26 25 23 23 23 22 20 18 17 16 16 17 17 17 17 17 17 17 18 19 20 21 20 20 19 19 19 19 20 20 21 22 22 22 21 21 20 19 19 19
25 26 26 25 23 24 24 23 22 20 18 17 17 17 17 17 17 17 18 19 20 21 21 22 21 21 20 20 20 20 21 22 23 23 23 23 23 22 21 20 20 20
26 28 28 26 24 24 24 24 24 22 21 20 20 20 19 19 19 19 20 21 22 23 23 24 23 22 22 21 21 21 22 22 23 24 24 24 23 23 22 22 22 22
27 29 29 27 26 26 25 24 23 23 23 23 22 22 22 22 22 22 22 23 24 24 25 25 25 24 23 23 23 23 23 23 23 24 24 24 24 24 24 24 24 24
27 27 28 28 28 28 26 25 24 23 23 24 24 24 25 25 24 24 23 23 24 25 25 25 26 26 25 24 24 24 23 23 24 24 25 25 25 25 25 25 24 24
27 27 28 28 28 28 28 28 27 26 25 25 25 26 27 28 27 25 23 23 23 24 25 25 25 26 26 25 25 24 24 24 24 24 25 25 26 26 26 26 25 25
26 27 27 27 27 28 29 31 30 29 28 27 26 28 29 30 30 27 24 22 22 24 25 24 24 25 26 26 25 25 25 25 25 25 26 26 27 28 28 28 27 28
25 25 26 27 27 26 28 31 31 31 31 29 28 28 30 31 31 27 24 21 20 22 24 24 24 24 25 26 27 27 27 26 26 26 27 27 28 29 29 29 30 30
23 22 22 23 24 26 27 28 30 31 30 28 28 28 30 31 30 26 23 21 19 20 21 24 25 26 27 28 28 27 27 27 27 27 27 28 29 30 31 31 32 33
22 21 20 19 21 24 25 26 29 31 30 28 30 31 30 30 28 25 22 21 21 20 21 23 25 27 28 28 27 26 26 26 26 27 28 29 30 31 32 33 34 34
22 21 20 21 23 26 27 27 27 27 26 25 27 29 30 30 28 25 24 23 23 22 22 23 25 26 26 26 25 25 26 26 27 28 29 30 31 32 33 34 35 36
23 22 21 23 25 26 26 25 24 23 23 23 23 25 29 30 28 27 27 26 25 25 24 24 24 25 26 26 27 27 28 28 29 30 31 31 32 33 34 35 36 38
23 23 23 24 25 25 25 25 25 25 26 26 26 28 30 31 30 29 29 28 27 27 26 25 26 26 27 29 30 31 31 31 32 32 32 33 34 35 36 37 38 39
24 24 26 26 26 26 27 27 27 27 28 28 28 30 32 32 32 32 31 29 28 29 29 28 28 29 30 32 33 33 34 34 33 33 33 34 35 36 37 39 40 41
25 25 26 26 25 25 25 26 25 25 26 26 26 28 30 31 32 32 31 30 30 31 31 31 32 33 34 35 36 37 37 36 36 35 35 35 36 38 39 41 42 43

ECMWFNIL_500_spd_045.txt.gz
Wind_Speed
22 24 25 23 23 23 20 18 17 15 14 15 15 18 21 22 21 19 18 16 16 16 16 15 16 16 17 17 17 17 17 16 16 15 15 15 16 15 14 14 14 14
20 21 21 22 23 22 19 17 16 15 15 16 17 19 22 23 22 21 19 17 16 16 15 16 16 17 17 18 17 17 17 17 17 17 17 17 17 17 16 16 16 14
21 21 21 24 25 21 19 18 16 16 17 18 20 21 23 24 23 23 20 17 17 17 17 17 17 18 18 17 16 16 16 18 18 18 18 18 17 17 17 16 16 16
21 21 22 26 26 21 19 18 17 17 17 18 19 20 21 21 22 23 22 21 20 19 17 17 17 17 17 16 16 16 16 17 17 17 17 17 16 16 16 16 16 16
22 22 23 25 25 21 18 17 18 18 18 17 18 17 17 17 20 23 23 22 20 16 14 14 16 17 16 16 17 16 16 16 17 16 16 15 15 14 15 14 14 15
25 24 24 26 24 20 18 17 18 20 20 18 17 16 16 17 19 19 19 18 16 13 13 14 16 16 16 17 17 16 16 16 16 16 15 14 13 13 13 12 11 11
27 27 26 25 24 21 19 19 20 21 21 19 17 17 18 19 18 17 16 17 16 15 15 15 16 16 16 16 16 16 15 15 15 15 15 14 13 12 11 10 10 9
28 28 27 25 23 23 22 21 21 21 21 20 19 19 19 19 19 18 18 17 17 16 16 16 16 16 16 17 16 16 15 15 16 15 15 14 13 12 12 11 11 10
29 29 29 26 22 23 24 22 21 20 19 20 20 21 21 21 20 20 19 18 18 18 18 18 18 17 17 17 17 17 17 17 17 16 15 15 15 14 13 13 13 12
33 32 27 22 20 22 22 20 19 19 19 19 20 22 22 22 21 20 20 21 20 20 19 19 19 18 18 18 18 19 19 18 18 18 17 17 17 16 15 15 15 14
32 29 21 17 20 21 20 20 20 21 20 20 21 23 22 21 21 21 22 22 21 20 20 20 20 19 18 19 19 20 20 20 19 19 19 19 18 18 18 18 17 17
25 23 19 19 19 19 19 21 23 23 22 22 22 22 21 20 20 20 21 20 19 19 19 20 20 19 19 20 21 21 22 21 21 21 21 20 19 19 20 21 21 20
22 24 23 21 20 20 20 21 23 24 22 21 21 20 19 18 18 17 17 17 17 18 19 20 20 19 20 21 22 23 23 23 23 23 23 22 21 21 22 23 23 23
26 26 25 22 21 22 21 21 22 23 23 22 21 20 19 18 17 16 16 16 17 17 18 19 19 19 21 22 23 24 25 25 25 25 25 25 24 24 24 24 25 25
27 28 27 25 22 21 21 23 23 23 23 23 22 21 21 20 20 18 17 17 18 18 18 18 19 20 22 23 24 25 26 26 26 26 26 26 26 26 26 25 26 26
28 28 29 28 26 23 23 24 25 24 24 24 24 24 23 23 23 22 21 21 21 21 20 20 21 22 24 25 26 27 28 28 28 27 27 27 27 27 27 26 27 27
28 28 29 30 29 27 25 26 27 27 25 25 26 27 27 26 26 25 24 25 25 24 23 23 23 24 26 26 27 29 30 30 30 29 29 28 28 28 27 27 27 27
27 27 29 30 29 28 27 26 28 28 27 27 28 28 28 28 27 27 27 27 27 27 26 25 24 25 26 26 27 28 30 31 32 31 30 30 29 29 29 29 28 28
26 26 28 30 31 30 28 27 27 28 28 28 28 29 29 28 28 28 27 28 29 30 29 27 24 24 25 25 26 27 28 30 31 31 30 30 30 30 30 30 29 29
29 28 28 29 30 30 29 28 28 29 28 28 28 30 31 31 31 30 29 30 32 33 33 29 25 24 25 26 26 26 27 28 28 29 30 30 30 31 30 30 29 29
31 29 29 31 31 30 29 28 28 29 28 28 29 31 32 34 34 33 33 33 34 36 36 31 27 26 26 27 27 27 27 28 28 29 30 30 30 30 30 30 29 29
32 31 30 31 31 29 28 28 28 29 29 28 29 31 32 33 33 33 33 33 33 37 36 32 29 28 27 28 28 29 29 30 30 30 30 29 28 28 29 29 29 29
33 32 31 30 29 28 27 27 28 28 28 28 28 29 30 31 31 32 32 31 31 34 34 32 31 30 29 28 28 29 29 30 31 31 30 29 28 28 28 29 30 31
34 33 32 30 29 28 27 28 28 27 28 29 28 26 26 26 27 28 29 30 31 33 34 32 32 31 30 29 28 29 30 30 31 31 30 30 30 30 30 31 32 33
36 33 31 29 29 28 27 27 27 25 25 26 25 23 23 23 24 25 26 26 30 34 35 33 32 32 32 31 30 30 30 31 31 32 32 32 32 33 34 35 35 35
33 32 30 29 29 28 26 25 25 24 24 25 25 25 25 26 27 28 28 27 29 33 34 33 33 33 34 34 34 33 33 33 33 33 33 34 35 36 37 38 39 39

ECMWFNIL_500_spd_048.txt.gz
Wind_Speed
17 19 21 22 25 26 29 31 29 25 19 14 11 10 10 11 13 16 17 18 17 17 16 15 15 15 15 14 14 14 15 16 16 16 16 15 14 13 12 12 11 12
17 20 21 21 23 25 30 32 28 22 16 13 12 11 11 11 12 15 17 18 18 18 17 17 17 16 15 14 15 15 16 17 17 18 17 16 15 14 14 14 13 13
18 20 21 19 16 16 22 26 24 18 13 12 13 13 12 12 13 14 16 18 19 19 18 17 17 16 15 15 15 16 18 18 18 18 18 17 17 16 15 15 14 14
19 19 19 18 15 12 14 19 20 15 12 13 13 13 13 13 14 14 15 17 18 20 20 19 17 16 17 17 18 19 19 19 18 17 17 18 17 16 15 14 14 13
18 18 18 18 18 15 15 19 18 13 11 13 13 14 15 14 14 15 15 16 17 20 22 21 19 19 20 21 21 21 20 19 18 17 16 16 16 15 14 13 13 12
17 18 19 19 18 16 16 19 18 13 12 13 15 16 16 15 15 15 14 15 16 20 22 23 22 21 21 21 21 21 20 19 18 17 16 15 14 14 13 12 12 12
16 18 19 20 20 18 16 18 19 17 14 14 16 19 18 17 16 15 15 15 16 19 21 22 21 20 20 20 21 20 20 19 17 16 15 13 13 13 12 12 11 11
16 17 19 20 21 21 19 20 21 19 17 15 17 20 19 17 16 17 17 17 17 18 20 20 20 19 20 20 20 20 20 19 17 16 14 13 13 13 12 12 11 10
16 17 18 19 21 22 22 21 22 21 19 18 19 20 19 18 17 18 19 19 19 20 21 21 21 20 20 20 20 20 19 18 17 16 15 14 14 13 12 12 12 12
17 18 19 20 21 22 23 23 23 22 21 19 20 21 21 20 20 20 20 21 22 22 22 22 22 22 21 20 20 20 19 18 18 17 15 15 15 14 14 14 14 14
18 20 21 22 22 23 24 24 23 22 20 19 20 21 21 22 22 22 22 23 24 24 24 24 24 23 22 21 21 21 20 19 19 18 17 16 16 16 16 17 17 16
20 21 22 24 24 23 24 25 22 20 20 20 21 22 22 22 22 22 23 24 24 24 24 24 23 22 22 22 22 22 21 20 19 18 18 18 17 17 18 19 19 19
21 21 22 24 25 25 24 23 22 21 21 21 22 23 23 22 22 21 22 22 23 23 22 21 21 22 23 24 24 23 22 20 20 20 19 19 18 18 19 20 21 21
23 23 20 18 21 25 22 20 20 21 22 23 24 24 23 22 21 21 21 21 21 21 20 21 22 24 24 24 24 24 23 22 21 21 20 20 20 20 21 22 23 23
24 24 22 18 18 23 22 19 19 20 22 23 24 25 23 21 21 21 21 21 21 19 19 21 23 23 24 24 24 24 23 22 21 21 21 22 22 22 23 24 24 24
24 24 24 22 21 23 24 23 21 21 21 22 24 25 24 23 22 22 22 22 20 18 18 20 22 22 23 23 23 23 22 21 21 21 21 22 23 23 24 25 25 25
25 25 24 24 24 24 25 25 24 23 22 22 23 24 25 24 24 24 24 22 20 19 19 21 21 22 22 22 22 22 21 21 22 23 23 24 25 25 25 26 26 25
27 26 25 24 25 24 24 25 25 24 24 24 23 24 25 25 26 25 24 23 23 23 23 22 23 23 23 23 23 23 22 22 23 24 25 25 26 27 27 27 27 26
26 24 23 22 24 23 23 25 24 24 26 25 24 25 27 27 26 24 23 25 27 27 26 25 26 26 26 25 25 23 22 23 24 24 25 26 27 28 29 28 28 28
25 24 21 22 24 23 23 24 24 24 26 25 25 26 27 28 26 24 26 28 29 28 28 28 27 27 27 27 26 25 24 24 25 25 25 27 27 28 29 30 30 30
26 26 25 25 26 25 23 23 25 26 26 26 26 26 26 27 27 27 28 28 28 28 29 29 28 27 27 27 28 27 27 26 26 27 28 28 28 27 29 30 30 31
24 25 25 26 26 25 24 23 24 26 26 26 27 27 26 26 27 28 28 27 27 28 29 31 31 30 29 30 31 31 30 29 28 28 29 29 29 29 29 29 29 30
26 28 27 27 27 28 27 26 26 27 28 27 27 27 27 26 26 27 27 27 27 27 28 30 31 30 31 33 34 34 34 32 31 30 30 30 30 30 30 30 30 31
28 32 32 31 32 32 31 30 29 30 29 28 26 26 26 26 25 26 26 27 28 28 28 29 29 28 29 31 33 35 35 34 33 31 30 30 31 31 31 32 33 33
30 32 33 34 34 34 34 33 32 30 29 28 27 27 26 25 25 27 27 27 28 27 27 27 26 27 29 30 32 34 35 35 34 31 30 31 32 32 33 33 34 33
32 32 32 33 34 34 34 35 34 32 31 30 28 28 27 26 27 29 29 27 25 24 24 24 23 25 28 30 31 33 35 34 33 32 32 32 33 34 34 33 33 32

ECMWFNIL_500_spd_051.txt.gz
Wind_Speed
15 16 13 11 12 14 15 17 18 17 16 17 22 20 14 12 14 15 17 19 21 21 20 19 16 15 16 16 15 14 13 12 11 10 10 10 10 10 9 9 11 12
14 15 13 10 10 12 13 16 19 19 18 19 24 21 15 15 15 15 17 19 21 22 22 21 19 18 18 17 16 15 13 13 12 11 11 11 11 11 10 11 12 13
12 13 12 10 10 10 11 13 16 19 21 22 25 22 16 16 16 15 17 19 21 22 22 22 20 19 18 16 15 15 14 15 14 13 13 13 13 13 12 13 14 14
12 11 11 10 9 8 9 10 11 15 20 22 24 21 17 16 15 15 16 18 20 21 22 22 21 20 19 17 16 16 16 16 16 15 14 14 14 14 14 15 15 15
13 13 11 10 9 7 7 9 8 10 18 21 21 19 17 16 15 15 16 17 18 20 21 22 22 21 20 18 18 17 17 16 16 17 17 16 15 15 15 15 15 15
15 15 12 10 10 8 8 7 5 9 17 19 17 17 15 16 17 18 19 18 19 19 20 22 23 23 21 19 18 17 17 17 17 18 19 17 16 15 14 14 15 16
18 16 13 11 11 10 8 8 7 11 15 14 13 13 14 16 18 20 20 20 20 19 20 22 24 24 23 21 20 19 18 18 19 19 19 18 16 15 15 15 15 16
17 16 13 12 12 11 10 10 11 12 13 12 11 11 12 16 19 20 21 20 20 20 20 22 23 24 24 22 21 20 19 19 20 20 18 17 16 15 15 15 15 16
14 16 14 12 13 12 11 11 12 12 13 14 14 13 14 16 19 20 20 19 19 19 20 21 21 22 22 21 20 20 20 20 20 20 18 17 16 15 15 15 15 16
14 16 16 14 14 13 12 11 11 13 15 16 15 15 16 17 18 19 19 19 19 19 19 19 19 19 19 19 20 21 22 22 21 19 18 17 16 16 16 16 16 16
14 16 16 15 15 14 13 12 12 14 16 17 16 17 17 17 18 18 19 20 19 20 20 20 19 19 19 20 22 24 24 23 21 19 19 18 18 17 17 17 17 17
13 15 16 16 16 15 14 13 13 14 17 17 17 17 17 17 18 19 20 21 21 21 21 21 21 22 22 23 24 25 24 22 21 20 20 20 19 18 18 18 18 18
14 16 18 17 16 17 16 15 16 16 17 19 18 17 17 18 19 21 22 21 22 22 22 23 24 24 24 23 23 23 23 22 21 21 22 22 20 19 19 19 19 19
18 19 21 20 19 18 17 17 19 19 19 20 19 18 19 19 21 22 22 22 22 22 23 25 25 24 23 22 22 22 23 23 23 23 24 23 22 21 20 20 19 20
22 20 20 20 19 18 17 17 18 20 20 21 20 20 21 22 23 24 24 23 21 22 24 26 24 22 22 22 22 23 23 24 24 25 25 24 23 21 20 20 21 22
24 22 22 22 20 19 18 17 18 20 21 21 21 22 23 23 24 25 26 23 21 22 25 24 22 21 22 21 22 23 24 24 25 25 25 25 23 22 21 22 22 23
23 21 22 21 20 20 20 18 19 22 22 21 22 23 22 23 24 26 25 22 21 23 24 23 21 21 21 21 20 21 22 23 24 25 25 25 23 23 22 22 23 23
24 19 19 20 20 20 20 20 22 25 24 23 23 22 20 21 23 24 23 23 25 26 25 23 22 21 21 20 19 18 20 22 23 24 25 25 24 23 23 24 24 24
24 22 20 21 21 20 20 20 22 26 27 26 23 20 19 21 22 23 23 25 29 29 25 23 23 22 22 21 19 19 20 21 23 24 24 25 25 25 26 26 26 26
25 24 21 20 21 21 21 21 22 25 27 27 24 20 21 23 24 24 24 27 30 28 24 23 25 24 24 23 23 23 23 23 25 25 26 27 27 27 28 28 28 27
28 25 23 22 22 23 23 22 24 25 25 25 24 23 24 25 25 24 25 27 29 26 24 24 26 26 27 26 26 26 26 27 28 28 29 29 28 28 28 28 28 27
32 27 25 25 24 25 25 24 25 26 25 25 25 26 26 27 25 24 25 26 27 27 27 26 26 26 27 27 27 27 28 29 30 30 31 31 30 30 29 28 27 27
34 31 28 27 27 26 26 27 28 28 27 27 27 27 28 28 25 24 25 25 26 27 28 27 27 27 27 27 28 28 29 31 31 31 31 31 32 33 32 30 29 27
34 35 32 29 28 28 29 30 30 28 27 26 25 25 26 27 26 25 25 25 25 26 26 26 27 28 28 29 30 30 31 33 35 34 33 33 35 36 36 34 31 29
32 34 33 30 27 26 30 33 32 29 26 24 23 23 25 29 30 30 27 25 25 25 25 25 27 29 30 31 32 33 34 35 36 36 34 33 35 38 38 36 33 30
29 32 36 38 35 32 34 37 36 31 27 27 27 28 30 33 35 32 27 24 24 24 25 27 28 30 31 32 33 35 36 36 35 35 33 31 33 37 38 36 34 32

ECMWFNIL_500_spd_054.txt.gz
Wind_Speed
21 22 22 22 18 15 16 19 21 19 18 18 17 19 22 24 22 21 21 21 22 24 24 24 24 23 22 22 22 22 20 20 19 18 17 16 15 15 15 15 15 15
18 19 20 21 20 17 14 15 19 20 18 17 17 18 21 26 26 22 22 23 23 25 24 23 23 22 21 21 21 21 20 19 19 18 17 16 16 15 15 15 15 15
19 20 20 20 20 18 15 13 16 19 20 19 18 18 21 27 27 22 23 24 23 23 23 22 22 22 21 21 21 21 20 19 19 18 17 17 16 15 15 15 15 15
20 20 20 19 19 19 17 16 18 20 22 21 20 21 23 27 27 23 22 23 22 22 23 23 23 22 21 21 21 20 19 19 18 18 18 17 16 15 15 16 16 16
17 17 18 18 18 19 17 18 19 21 22 22 23 25 25 26 27 24 22 22 21 22 23 24 24 24 23 22 21 20 20 20 19 19 18 17 16 16 16 17 17 17
15 15 16 17 19 19 17 16 18 20 22 24 27 28 27 28 27 24 22 22 22 23 24 25 25 25 24 23 22 22 22 21 21 20 19 17 17 17 17 17 17 17
15 15 16 16 18 19 17 16 17 19 20 24 28 28 27 28 27 23 22 22 22 23 24 25 26 26 26 25 25 24 24 24 23 21 20 19 19 18 18 18 17 17
16 16 17 19 18 17 17 16 15 16 19 23 27 28 26 24 23 22 21 22 23 24 25 26 27 28 28 28 27 26 25 25 24 22 21 20 20 19 19 18 18 18
18 18 18 20 21 18 17 16 15 15 18 19 22 23 20 20 21 21 21 21 22 23 24 26 27 28 28 28 28 27 26 26 25 24 23 21 21 20 19 19 18 19
17 20 20 20 22 21 18 17 17 17 18 19 19 18 17 17 20 21 20 20 20 22 23 24 26 27 28 29 29 29 28 27 27 26 24 23 21 21 20 20 20 20
12 16 19 21 22 22 20 18 19 19 21 23 23 21 19 19 19 19 19 18 19 21 22 23 25 26 28 28 28 28 28 28 28 26 25 24 22 22 21 20 20 20
13 13 16 18 19 21 21 20 20 20 22 24 24 23 23 23 21 19 18 18 19 20 21 22 24 26 26 26 26 25 26 26 26 26 25 25 24 23 22 22 22 21
15 15 15 16 17 19 21 21 21 20 21 23 23 24 26 25 22 20 19 18 19 19 21 22 24 25 25 25 24 24 24 25 26 26 27 25 24 23 23 24 23 22
18 17 16 16 15 16 19 21 21 20 21 23 23 25 28 26 23 21 19 18 19 20 21 24 26 26 25 25 25 25 25 25 26 27 27 25 24 24 24 24 23 23
21 19 18 17 15 15 18 21 22 21 22 25 25 26 28 26 24 22 19 19 21 22 23 26 26 26 26 25 25 25 25 26 26 27 26 25 25 25 25 24 24 24
22 21 21 21 20 18 19 22 24 23 25 28 29 28 29 28 25 23 21 21 22 24 26 28 27 26 26 26 25 25 25 26 26 25 25 24 24 25 25 25 26 26
26 25 25 25 24 22 22 23 23 23 26 30 32 32 32 30 26 24 23 23 25 27 29 28 27 27 26 25 25 25 25 25 25 24 24 24 24 25 26 26 26 26
28 27 26 26 25 23 23 23 23 24 27 31 32 32 33 31 27 25 24 24 26 29 30 29 28 27 26 25 25 25 24 23 23 23 23 23 23 25 26 27 27 26
27 26 26 26 26 23 21 24 27 27 28 31 32 31 31 30 27 25 25 25 26 29 31 31 29 27 25 24 24 24 23 22 22 22 22 21 22 23 25 25 26 25
28 27 28 28 27 25 23 26 29 29 30 32 32 31 31 29 27 25 24 25 26 28 30 31 29 27 26 25 24 24 24 23 22 22 21 20 20 22 23 24 25 24
28 28 28 29 28 27 26 27 28 30 31 31 31 33 32 28 25 24 25 26 27 29 30 30 28 26 26 26 26 26 25 25 24 23 22 21 21 22 23 24 24 24
28 28 29 30 29 28 27 27 28 30 31 30 29 32 33 30 27 26 25 26 27 29 29 29 26 25 26 27 27 28 27 27 26 25 25 24 24 24 25 25 26 26
28 30 31 32 31 29 27 27 29 32 32 31 29 31 33 32 29 27 26 27 28 29 29 28 26 26 27 28 29 29 28 28 28 28 28 28 27 27 28 28 28 28
27 28 30 33 32 31 29 29 30 32 33 34 32 31 32 33 30 28 28 29 30 31 30 28 27 28 28 30 31 29 28 28 28 28 29 30 30 30 30 30 30 29
22 23 26 31 34 34 31 31 31 31 33 36 36 33 32 32 32 32 31 31 33 34 33 30 29 28 29 30 30 29 29 28 29 29 30 30 31 31 32 33 33 33
21 26 28 30 36 36 32 32 34 33 33 36 37 37 35 34 33 33 32 33 35 36 35 33 30 29 29 29 27 27 28 29 30 32 32 31 31 31 32 34 36 36

ECMWFNIL_500_spd_057.txt.gz
Wind_Speed
31 32 30 28 27 27 26 24 22 23 22 20 22 26 26 25 25 25 26 27 28 29 29 28 27 26 25 25 25 24 23 23 23 22 21 22 23 22 22 21 20 19
34 33 32 28 26 26 25 23 21 22 22 22 24 27 26 24 26 26 27 29 30 29 28 27 27 26 25 26 26 24 23 23 23 22 21 22 22 22 23 22 20 19
33 31 31 29 26 24 23 22 21 20 21 22 25 26 26 25 26 27 28 30 30 28 27 27 27 27 26 26 25 23 22 23 22 21 21 22 23 23 23 21 20 20
27 28 29 28 25 22 22 22 21 20 20 21 24 24 24 25 26 27 28 28 28 27 26 26 26 26 26 25 24 22 22 23 22 21 22 23 23 24 23 22 21 21
26 27 28 26 23 22 22 22 22 21 20 21 24 24 23 24 25 27 28 28 27 26 25 25 25 25 25 25 24 23 23 24 23 22 23 24 25 25 24 23 23 22
27 26 24 21 21 22 22 22 23 22 20 21 23 24 24 24 24 26 28 28 27 25 24 25 26 25 24 25 26 25 24 24 24 23 24 25 26 26 25 24 23 22
25 25 22 18 19 23 23 22 23 22 21 21 23 24 26 26 25 26 28 28 27 25 25 26 26 26 26 27 27 26 25 25 24 24 25 26 26 26 25 24 23 22
23 23 21 17 18 22 23 23 23 23 22 22 23 25 26 27 27 28 27 27 28 27 26 27 28 28 29 28 28 26 26 26 25 25 26 26 26 25 25 24 23 22
21 22 20 17 18 20 22 22 22 23 24 23 24 25 27 28 30 30 28 28 29 29 28 29 29 29 28 28 27 27 27 26 26 26 27 27 26 26 25 24 23 23
19 22 21 18 18 20 22 22 22 23 24 24 24 24 25 27 30 32 31 30 31 31 30 30 29 28 28 28 28 28 27 27 27 27 27 27 27 26 25 24 23 24
13 16 19 20 21 24 25 24 23 23 24 25 24 22 23 26 29 30 30 30 30 30 29 28 28 28 28 28 28 28 28 28 28 28 28 28 28 27 26 25 25 25
12 13 16 18 21 24 27 27 25 23 25 26 24 21 21 25 26 26 26 28 29 28 27 27 27 27 28 28 28 28 28 29 29 29 30 30 29 28 27 27 26 26
16 16 17 17 18 21 24 27 26 24 25 27 25 21 21 23 23 23 25 27 28 29 28 28 28 29 29 28 28 28 29 29 29 29 29 29 29 28 27 27 26 26
18 19 19 19 18 20 22 24 26 25 25 27 25 22 24 25 25 25 27 27 28 29 29 29 30 30 30 29 29 29 28 28 28 27 27 27 27 26 26 26 26 26
20 20 20 21 21 20 19 20 24 25 24 26 26 25 27 28 28 29 29 28 27 28 29 30 32 32 32 31 29 28 27 26 26 25 25 24 25 25 25 26 27 28
21 21 21 21 21 21 19 17 21 23 23 25 27 28 29 29 29 30 30 29 28 29 31 33 34 34 32 30 28 27 26 26 25 25 24 24 25 26 27 28 29 29
23 23 22 21 22 22 22 21 21 21 22 24 28 30 29 29 31 31 30 28 27 29 32 34 34 33 31 29 28 27 27 26 25 25 25 25 26 27 28 28 29 29
25 25 24 24 25 25 25 26 25 24 23 24 27 29 28 28 31 33 30 27 27 29 32 33 32 30 29 29 28 27 26 26 26 25 25 26 27 28 28 28 28 29
26 27 26 26 26 26 27 28 28 27 26 25 27 31 30 28 31 32 30 27 27 29 32 32 31 30 29 29 28 27 27 26 26 26 25 26 27 28 28 28 29 29
28 28 28 27 27 26 27 29 28 27 28 26 27 32 33 30 32 34 32 31 31 31 32 32 31 31 30 29 28 28 28 27 26 26 25 25 26 27 28 28 29 30
29 28 27 27 28 27 29 31 29 28 29 27 27 32 34 31 33 36 35 34 35 33 33 32 32 31 31 30 29 28 28 28 27 26 25 25 26 27 26 27 27 29
29 29 27 27 28 29 31 32 32 30 29 27 28 33 35 32 33 37 36 34 35 34 33 33 33 32 31 30 29 28 29 29 28 27 26 26 26 26 25 25 26 27
28 29 27 26 28 31 31 31 32 31 30 29 29 33 35 34 35 39 39 35 34 34 34 34 33 31 31 30 29 28 29 30 29 29 28 27 27 27 26 26 26 26
27 29 27 27 29 32 32 32 33 32 32 31 30 32 36 36 37 42 41 37 35 34 35 35 33 30 31 30 29 28 28 28 28 28 28 28 28 28 28 28 27 27
25 27 26 26 28 31 32 32 32 32 32 32 31 32 35 36 38 42 41 38 37 37 36 35 31 29 29 30 30 29 28 28 28 28 29 30 30 29 29 29 30 31
26 26 26 25 25 29 32 32 32 32 32 32 31 33 37 38 39 42 41 39 38 40 39 35 31 30 31 31 31 31 31 30 29 29 30 30 29 28 28 28 30 32

ECMWFNIL_500_spd_060.txt.gz
Wind_Speed
30 27 26 28 29 30 30 31 30 29 28 26 23 21 22 24 25 26 26 24 22 25 28 30 30 28 27 28 29 30 29 28 29 29 28 28 27 25 25 24 23 23
30 28 26 27 30 31 31 30 29 29 30 28 24 22 23 23 24 26 27 26 25 27 29 31 31 29 28 29 31 32 31 28 29 30 29 29 27 26 26 24 24 24
30 29 29 28 30 33 35 33 31 32 32 30 27 24 24 24 25 27 29 29 28 28 29 31 31 30 30 31 32 33 32 30 29 29 29 29 27 27 26 25 25 24
28 29 28 27 27 29 31 32 32 33 32 31 29 26 25 25 26 28 29 30 28 27 29 30 29 30 32 32 32 32 32 30 28 27 28 28 27 26 26 27 26 24
26 26 25 24 23 23 26 29 31 32 31 31 31 28 26 26 27 27 28 28 27 27 28 29 28 29 32 32 32 31 30 29 27 27 28 28 27 26 26 26 25 24
21 22 21 20 21 23 26 27 29 30 30 31 32 30 27 26 25 26 27 29 28 28 29 29 28 29 31 32 31 29 29 28 26 27 28 27 27 26 25 25 25 23
17 18 16 15 17 22 27 27 27 27 29 32 32 31 29 26 25 26 27 28 29 29 29 31 31 31 31 31 30 28 28 28 27 27 28 27 26 25 25 25 24 24
15 14 12 12 15 20 25 27 26 24 26 29 30 30 29 26 26 27 27 26 29 31 30 31 32 32 31 30 29 28 28 29 29 28 27 27 26 26 25 25 25 25
16 13 11 12 16 20 22 25 25 24 23 25 27 29 29 27 26 28 28 27 28 30 30 31 32 31 29 29 29 29 29 29 29 28 28 28 27 27 26 25 25 25
17 14 12 12 17 21 22 22 24 23 23 23 25 27 27 27 27 28 29 28 27 28 29 30 31 31 29 29 30 29 29 29 29 28 28 28 27 27 26 26 26 26
15 15 14 13 15 20 23 22 23 23 23 22 24 26 26 26 27 28 29 29 28 28 28 29 31 31 30 29 30 30 30 31 30 28 28 28 29 28 28 27 27 27
16 15 15 14 15 17 21 21 21 22 24 24 25 26 27 27 28 28 29 30 29 28 28 29 30 31 31 30 30 30 31 31 31 30 31 31 30 29 28 28 28 28
19 17 16 16 16 17 18 18 18 18 22 25 27 27 28 29 28 28 29 30 30 29 29 30 30 31 32 31 29 29 30 31 31 32 32 32 30 29 29 28 28 28
22 21 18 17 17 18 19 19 18 17 18 22 25 27 29 29 29 28 28 29 30 30 31 32 32 32 32 31 29 28 29 30 31 32 32 31 30 29 29 29 28 29
24 24 22 20 18 19 20 20 20 19 19 20 23 26 29 29 29 29 27 28 29 30 32 33 32 31 32 31 30 29 30 32 32 32 32 31 30 30 29 29 29 30
24 25 25 23 21 20 20 20 20 19 19 20 21 25 27 27 28 28 27 27 29 29 30 31 31 30 32 32 32 32 33 33 33 32 32 31 31 30 30 30 30 29
23 25 25 25 24 22 21 21 20 18 18 18 18 21 24 25 27 27 26 26 27 26 27 28 30 31 32 33 33 34 34 34 33 33 33 32 31 31 30 30 29 29
23 24 26 26 25 24 23 23 22 20 18 18 17 19 22 24 26 26 26 26 26 26 26 28 30 32 33 34 34 35 35 34 34 34 33 31 30 30 30 30 29 29
25 25 27 27 27 26 25 24 23 22 22 23 22 21 22 23 24 26 27 28 29 29 30 31 33 34 33 33 34 34 35 35 35 34 32 31 31 31 30 30 31 31
26 26 27 29 28 28 27 25 24 25 25 26 26 26 25 24 24 26 28 30 31 31 33 34 35 35 34 33 34 34 34 35 36 34 33 32 31 31 30 30 31 31
27 27 27 28 28 28 27 26 25 26 26 26 27 29 28 26 26 28 29 30 32 32 33 35 36 35 33 33 33 34 35 36 36 35 34 32 31 30 30 30 30 31
26 27 28 29 29 28 26 26 26 27 28 27 28 29 29 28 28 29 30 31 33 33 34 37 39 37 33 32 33 34 36 37 37 36 34 32 30 29 29 30 30 30
25 26 28 30 30 29 27 25 26 28 29 29 29 30 31 30 30 30 31 32 35 36 36 39 41 40 35 33 32 34 36 37 37 37 34 32 30 29 30 30 30 30
25 25 27 29 31 31 29 27 26 27 29 30 31 31 32 32 33 32 32 32 35 37 38 40 42 42 39 36 33 33 35 36 36 35 33 31 30 30 31 31 31 31
28 26 26 27 30 31 31 29 27 27 29 31 32 32 32 33 34 34 33 33 34 37 39 41 43 45 44 39 35 34 35 35 35 33 31 31 31 32 33 33 33 32
30 29 27 27 28 30 31 30 28 28 29 31 32 33 33 34 36 36 34 33 34 37 41 43 44 47 47 40 35 35 35 34 34 33 31 31 31 32 34 35 34 33

ECMWFNIL_500_spd_063.txt.gz
Wind_Speed
28 29 30 30 32 32 29 29 29 28 29 29 29 29 30 32 33 30 28 28 29 29 30 30 29 30 31 31 30 30 30 29 27 28 28 26 25 26 26 25 25 24
26 27 28 29 31 32 30 29 28 28 30 30 29 28 29 31 33 31 28 28 28 29 29 27 24 25 30 32 31 31 32 31 29 29 29 27 26 27 26 25 25 25
25 26 27 28 31 32 32 30 29 29 30 31 30 29 29 29 31 30 28 27 27 28 29 28 26 24 28 30 31 31 31 30 30 30 30 28 27 27 26 26 26 27
25 25 25 27 29 31 32 31 31 31 31 32 33 32 30 30 30 30 29 27 27 28 29 29 28 26 27 29 30 31 30 29 29 30 30 28 27 27 26 26 26 27
23 23 24 25 28 30 31 32 32 31 31 33 34 34 32 30 30 31 30 30 28 29 30 31 30 29 28 29 30 30 30 30 30 30 29 29 27 26 26 26 26 27
24 24 24 24 26 28 29 31 32 32 30 31 33 35 33 29 28 29 30 30 28 28 30 30 30 31 30 29 30 32 33 32 31 29 29 29 28 27 27 26 26 27
26 26 26 25 25 26 26 29 31 31 28 29 32 34 33 30 27 26 27 29 28 27 28 28 28 30 30 28 30 34 36 34 31 30 29 29 29 28 27 27 27 28
25 26 26 25 24 24 24 25 26 25 25 28 31 31 31 30 28 26 26 27 27 27 28 28 28 29 28 28 29 32 35 35 32 30 29 29 30 30 29 29 29 29
24 25 25 24 23 24 23 21 20 21 23 27 29 27 28 29 28 28 28 27 27 27 27 28 29 29 28 29 30 31 34 34 31 29 30 31 32 32 31 31 30 29
24 24 24 22 22 23 23 20 18 20 22 25 27 27 27 28 27 27 26 27 27 27 27 28 29 29 30 30 31 32 33 31 29 30 32 33 32 32 31 31 30 29
24 24 24 23 22 22 22 20 18 18 20 22 24 25 25 26 27 26 25 25 26 25 27 29 29 29 29 29 31 33 32 30 28 30 31 32 33 32 31 30 30 30
25 25 24 23 22 22 22 21 18 16 17 19 20 22 23 25 26 26 27 27 26 24 26 28 29 29 29 30 31 34 34 32 29 30 31 33 33 32 31 31 31 31
25 25 25 24 23 22 22 21 19 16 16 17 18 19 22 25 26 28 29 29 28 27 26 28 29 29 30 31 32 33 36 36 33 32 34 34 33 31 31 32 32 31
24 25 25 25 24 24 23 22 21 19 17 17 17 17 19 22 25 28 29 29 29 29 29 29 29 31 32 31 31 32 34 36 35 34 34 33 32 31 32 32 31 31
23 24 25 25 24 24 24 23 22 22 21 20 19 18 19 20 23 27 29 29 28 30 31 30 29 31 33 32 31 32 33 35 35 34 34 34 33 34 35 34 32 32
25 24 24 24 24 24 24 24 23 22 22 22 21 19 19 20 22 25 28 29 29 30 30 30 29 30 32 33 33 32 32 35 36 36 35 35 35 36 36 35 34 32
27 26 24 23 23 23 24 24 24 23 22 23 23 21 20 20 22 24 26 28 29 29 30 29 29 30 31 33 34 34 33 34 35 37 36 35 34 35 35 35 35 34
29 29 26 24 23 23 24 24 24 23 23 23 23 23 22 21 20 21 24 25 26 28 29 29 30 31 32 33 34 36 36 35 36 38 37 35 33 34 34 35 35 35
30 30 29 27 25 24 24 24 25 24 24 23 23 24 24 22 21 20 21 24 25 27 28 29 29 29 30 32 34 37 37 36 37 39 37 34 33 34 34 35 35 35
30 31 31 30 27 25 24 24 24 25 25 24 24 24 24 24 24 22 21 22 24 26 28 28 28 28 27 28 30 32 33 33 34 36 35 34 34 34 35 35 35 34
30 31 32 32 30 27 25 24 24 24 25 25 25 25 25 26 26 26 25 23 23 26 28 29 30 30 30 28 28 28 29 30 31 33 34 35 35 35 35 35 35 35
30 31 32 33 32 30 28 26 25 24 24 25 25 25 26 26 27 27 27 27 26 27 29 30 31 32 33 33 32 31 30 31 33 34 35 36 36 36 36 35 35 36
30 30 31 32 33 32 30 28 27 26 25 25 25 26 26 27 27 27 27 28 29 30 31 31 31 32 34 36 36 34 33 33 35 36 36 37 37 37 36 35 36 36
31 31 30 31 32 33 32 30 29 29 28 27 26 26 26 27 27 27 28 29 31 32 33 33 33 33 34 35 36 35 34 35 37 37 36 36 37 37 36 35 36 36
32 31 31 30 31 33 33 33 31 30 30 29 28 27 27 27 28 28 29 29 31 33 34 35 36 35 34 34 35 35 35 36 38 38 36 35 36 36 36 36 37 38
34 33 32 31 31 32 33 33 33 32 31 30 29 28 28 28 29 29 30 31 33 34 35 36 37 37 36 35 36 36 37 39 40 40 38 36 35 35 36 37 38 39

ECMWFNIL_500_spd_066.txt.gz
Wind_Speed
29 30 31 31 31 32 33 34 37 37 38 40 40 39 38 37 36 35 34 33 34 35 34 33 34 33 32 31 31 30 30 35 39 37 36 34 31 30 29 27 26 26
29 30 30 30 31 31 32 33 35 36 38 41 41 39 39 38 36 36 34 33 33 34 33 33 33 33 32 31 30 29 30 33 40 41 38 34 30 31 30 28 28 27
28 29 30 30 30 30 31 31 34 35 38 41 41 39 39 38 37 37 36 33 32 33 34 33 33 32 32 31 28 27 28 30 36 40 39 34 30 30 30 29 29 28
28 28 29 30 30 30 30 31 32 33 36 40 40 39 40 39 39 38 37 35 32 32 34 33 32 30 31 30 27 28 29 29 32 38 37 33 30 30 31 29 30 29
28 28 28 30 30 31 31 32 32 33 35 37 37 37 39 39 40 39 37 36 33 31 32 32 31 29 29 29 28 29 30 29 31 35 33 32 31 31 31 30 31 30
28 27 28 29 30 31 32 33 33 33 34 35 34 34 36 38 39 39 38 37 34 31 30 31 32 30 29 30 29 29 30 29 32 34 31 31 32 32 32 30 31 29
28 27 27 28 29 30 31 32 32 33 33 33 33 31 33 35 36 37 38 38 35 31 30 32 33 30 29 31 30 30 30 30 32 34 33 33 34 33 32 31 30 30
27 27 27 28 29 30 30 31 31 31 30 30 31 29 29 30 33 35 36 37 34 30 29 31 32 30 28 30 30 30 32 33 35 34 33 34 34 32 32 33 33 33
27 27 27 28 29 30 30 31 31 30 29 29 28 27 27 27 30 33 34 34 33 31 29 29 30 30 29 28 28 28 30 33 35 35 33 34 34 33 33 33 34 34
27 27 27 28 29 30 30 31 31 30 30 29 28 27 25 25 28 29 30 31 31 30 29 28 28 29 28 26 26 27 28 29 32 34 33 33 33 33 32 32 34 35
27 27 27 27 28 29 29 30 30 30 30 30 29 28 25 23 25 26 27 28 27 27 28 27 27 29 28 27 26 27 28 29 30 31 31 30 30 32 32 33 35 36
28 28 27 27 27 28 28 28 29 30 30 30 30 30 28 23 21 22 24 26 25 26 27 26 26 28 29 29 27 27 29 29 28 29 30 30 31 32 34 35 37 36
28 28 28 27 27 27 27 27 28 28 29 30 29 29 29 25 20 19 21 23 24 25 26 27 27 28 29 30 28 28 30 29 28 29 31 31 31 32 34 36 37 35
27 28 28 27 26 27 27 27 27 28 28 29 29 29 29 27 23 20 20 20 22 25 27 27 28 28 29 29 28 29 30 30 31 32 33 32 32 32 34 36 35 33
27 27 27 27 27 27 27 27 27 27 27 28 28 28 28 27 25 22 21 19 19 23 26 28 29 29 30 30 30 30 30 31 32 34 34 34 33 32 32 33 32 31
29 28 28 28 27 27 28 28 27 27 27 27 27 27 27 28 26 23 23 21 20 21 24 28 30 30 31 32 32 31 32 32 32 32 34 36 35 33 33 33 33 34
30 30 30 29 28 27 28 28 28 27 27 27 27 26 26 27 27 25 24 23 22 22 24 27 30 31 32 33 34 33 33 33 33 32 33 34 34 33 33 33 34 35
31 31 32 31 29 28 28 29 29 28 28 27 27 26 26 26 26 26 25 25 24 24 24 25 29 32 32 33 33 33 33 34 34 34 32 31 30 32 34 34 34 33
33 33 33 33 32 31 30 30 30 30 29 28 27 27 26 26 26 26 26 26 26 26 25 25 28 30 30 30 31 32 33 33 34 34 33 30 28 30 33 34 34 33
35 35 35 35 35 34 32 31 31 31 30 29 28 27 27 27 26 26 26 26 27 28 27 26 26 27 27 28 29 31 32 33 33 33 34 32 31 30 31 32 33 35
35 35 36 36 36 35 34 32 31 31 31 30 29 28 27 27 26 27 26 26 27 28 27 27 27 27 27 26 27 29 30 31 32 33 35 37 37 37 37 36 36 36
35 34 35 35 35 35 34 33 32 31 31 30 30 29 28 27 27 27 27 27 27 27 27 27 28 28 28 27 27 28 28 29 31 34 37 40 41 42 43 42 41 40
35 35 34 34 33 33 33 33 33 33 32 31 30 30 29 29 28 27 28 28 27 27 27 27 27 29 29 29 29 29 29 30 32 33 35 37 38 39 40 41 41 42
37 36 36 35 35 34 33 33 33 33 33 33 31 30 30 31 30 29 28 28 28 28 28 29 29 29 31 30 30 31 31 32 33 34 36 35 33 33 34 35 36 37
39 39 38 38 38 37 36 35 34 34 34 34 33 32 31 31 31 31 30 30 30 29 28 30 31 31 31 32 32 32 33 33 33 35 37 36 35 34 33 33 35 35
41 41 40 40 40 40 38 37 36 35 35 35 35 34 33 32 32 32 32 32 32 31 29 31 33 33 32 33 33 33 34 35 34 35 36 36 37 37 36 36 37 37

ECMWFNIL_500_spd_069.txt.gz
Wind_Speed
28 28 28 29 30 31 31 32 33 34 35 37 37 36 37 39 40 41 41 43 44 43 41 40 39 37 36 37 38 39 36 33 32 31 31 30 29 31 34 35 34 34
29 29 29 30 31 32 32 33 33 34 35 37 37 38 39 41 41 41 41 42 42 42 41 40 39 37 36 36 38 39 36 34 33 32 31 30 30 30 33 36 35 34
30 30 30 30 31 32 33 33 34 34 35 36 38 39 40 41 42 42 42 41 40 39 39 40 38 36 35 35 36 37 36 34 34 33 31 31 31 30 32 36 36 35
31 31 31 31 32 33 33 34 34 35 35 36 37 38 40 41 42 42 42 41 40 38 37 37 37 36 35 35 35 35 36 35 34 34 32 31 30 29 32 36 37 36
31 31 31 31 32 33 33 34 34 35 35 35 36 37 38 39 40 42 42 41 40 38 36 36 36 36 36 36 35 35 35 36 35 34 33 31 30 30 32 35 38 37
32 32 32 32 33 33 34 34 34 34 34 33 33 34 35 36 37 39 40 40 39 36 36 37 37 37 36 35 35 34 35 36 35 34 33 31 31 32 32 35 38 38
31 32 32 33 34 34 34 34 33 34 34 32 32 33 34 35 35 36 36 37 37 35 34 35 35 35 35 34 34 34 35 34 33 33 32 31 31 31 31 33 36 36
32 32 33 34 35 35 34 34 33 33 33 33 32 32 33 34 33 33 34 35 35 33 32 31 32 34 34 34 35 35 34 33 31 31 31 30 31 30 30 31 33 34
32 33 34 35 35 34 33 33 33 33 33 33 32 32 32 33 33 32 32 32 33 32 31 29 30 32 34 34 35 35 34 32 31 30 30 31 30 29 29 31 32 33
33 33 34 34 33 33 32 33 33 33 33 32 31 31 31 32 32 32 31 31 31 31 31 30 29 30 31 32 33 33 33 32 32 31 29 29 29 29 30 33 34 36
33 33 33 32 32 32 32 33 33 33 33 32 31 31 30 31 32 32 31 30 30 30 29 30 30 29 29 31 31 32 32 31 32 32 29 28 27 27 31 34 35 36
32 32 31 31 31 31 32 33 33 33 33 32 31 30 30 30 31 31 31 30 29 28 27 28 30 29 28 29 30 31 32 31 32 32 31 29 27 26 29 35 36 35
31 31 31 31 31 32 32 32 33 33 32 32 32 30 29 30 30 31 31 30 30 28 26 26 29 29 29 28 28 30 32 31 31 32 32 30 29 26 28 32 36 37
32 33 33 34 33 32 32 32 33 33 32 32 32 31 29 29 30 31 31 31 31 29 26 26 26 27 29 28 27 28 30 31 32 34 33 31 30 30 29 31 34 36
34 34 35 35 34 32 32 32 33 33 33 32 32 31 29 28 29 30 31 32 32 30 27 27 26 26 28 30 28 27 29 32 32 33 34 32 30 31 31 32 34 35
35 35 35 35 34 33 33 33 34 34 34 32 32 32 31 29 29 30 31 31 32 31 29 30 29 27 27 29 30 29 29 31 31 32 34 33 32 32 31 32 34 35
36 36 36 36 36 35 35 35 35 36 36 34 33 34 34 32 31 31 31 31 31 31 31 31 32 30 29 29 29 28 28 30 30 31 34 34 33 34 33 31 33 34
38 38 38 38 38 38 38 38 38 37 38 37 35 35 36 35 33 32 32 31 31 31 31 31 32 32 32 31 29 27 27 30 30 30 33 35 33 33 33 33 34 35
40 40 39 39 40 40 40 40 39 38 39 39 38 36 36 36 35 32 32 32 31 31 31 31 31 31 32 32 30 28 27 28 30 29 31 33 33 33 33 34 36 36
41 41 41 41 41 41 41 41 40 38 38 38 38 37 36 37 35 33 32 32 32 31 30 30 29 30 31 31 31 30 27 27 30 30 29 30 32 34 34 35 36 35
42 42 42 42 43 42 42 41 39 38 38 37 37 36 36 36 36 33 32 32 32 32 31 30 29 29 30 30 30 29 28 27 28 31 31 29 31 33 34 34 35 35
43 43 43 43 44 43 43 42 41 39 38 37 36 35 34 35 36 34 32 32 33 32 32 31 30 29 30 30 29 29 29 28 27 29 30 30 30 32 32 33 34 34
43 43 43 43 44 43 43 43 42 41 40 38 37 36 34 34 36 35 33 32 32 33 32 32 31 30 30 30 30 30 30 30 27 27 28 29 30 32 33 33 34 33
42 42 43 43 43 43 43 43 43 42 41 40 39 38 37 35 35 36 34 32 32 32 33 33 32 31 31 30 30 30 31 31 29 28 28 30 30 30 31 33 35 35
43 43 43 43 43 43 43 43 43 43 42 41 41 40 39 38 37 37 36 35 33 33 33 33 33 33 32 31 31 31 31 31 31 30 30 30 30 31 31 33 35 35
45 45 45 45 46 46 46 46 46 45 45 44 43 43 42 41 39 38 38 37 36 35 35 34 34 34 34 33 32 31 32 32 32 32 31 31 31 31 33 35 36 34

ECMWFNIL_500_spd_072.txt.gz
Wind_Speed
25 26 26 27 28 29 29 30 30 30 31 32 32 32 31 32 33 34 37 38 39 40 39 40 41 40 39 40 38 35 33 33 33 34 33 32 31 31 30 28 28 29
27 27 27 28 29 29 30 30 30 30 30 30 31 31 31 32 33 35 37 39 39 39 39 39 40 39 38 39 39 37 35 33 32 33 33 32 31 31 30 29 30 30
28 29 29 29 30 30 30 30 30 30 29 29 30 31 31 32 34 36 37 38 38 37 38 38 39 38 36 36 37 37 36 34 32 32 32 31 30 31 31 31 31 29
30 30 30 30 31 30 30 31 31 31 30 29 30 31 32 33 34 35 35 35 35 36 36 37 37 36 35 33 34 36 34 32 32 32 31 30 30 31 31 31 31 28
31 31 31 31 31 31 31 31 31 31 31 30 31 32 33 33 34 34 33 34 34 35 35 36 35 34 33 32 33 34 33 31 31 33 32 31 31 31 31 32 31 29
32 32 32 32 32 32 32 31 31 31 31 31 32 33 33 32 33 33 33 33 34 34 35 35 34 32 31 31 32 32 31 31 31 32 33 32 31 31 31 31 31 30
32 32 32 32 32 32 32 32 32 32 32 32 32 33 32 32 32 32 33 34 34 34 34 35 35 32 29 29 29 29 29 30 31 32 33 32 31 31 31 31 31 30
33 32 33 33 33 33 33 33 33 33 33 33 33 32 31 31 32 32 33 33 33 34 35 35 35 34 31 28 27 26 26 28 31 32 33 33 32 31 31 31 31 29
33 33 33 33 33 33 33 33 33 34 34 34 33 32 31 32 32 32 32 33 34 34 35 34 33 33 32 30 27 25 24 27 30 32 33 33 33 33 31 31 31 30
33 33 33 34 33 33 33 33 34 34 34 34 33 32 32 33 33 33 33 34 34 35 35 34 33 32 32 30 28 27 25 26 28 30 32 33 33 34 32 31 31 30
33 34 34 34 33 33 33 33 34 34 34 34 34 35 35 34 33 33 33 34 34 35 35 34 33 33 32 32 32 31 29 27 28 28 29 30 31 33 33 32 31 29
34 34 34 34 34 33 33 33 34 35 35 36 37 37 36 35 33 32 33 34 34 35 35 35 34 33 33 33 34 34 30 28 28 27 25 27 30 31 33 34 31 29
34 34 34 34 34 34 34 34 35 36 37 38 38 38 37 35 34 33 33 34 34 35 36 35 35 34 33 34 35 34 32 30 30 29 25 25 28 30 32 34 32 29
36 35 35 35 35 35 35 35 36 37 38 38 39 39 38 37 36 35 35 35 36 36 36 36 35 35 34 34 35 35 33 33 32 31 28 26 27 28 30 32 32 31
37 37 37 37 37 36 37 37 38 38 39 39 40 40 40 39 38 37 37 38 38 39 38 37 36 36 35 34 35 35 34 34 32 31 31 28 26 27 27 30 32 32
39 39 39 39 39 39 40 40 40 40 41 41 42 42 42 42 41 41 41 41 41 41 40 39 37 36 35 34 34 35 36 34 32 32 32 29 27 26 27 30 32 33
40 41 41 41 41 41 41 41 42 42 43 43 44 44 44 44 44 43 43 43 43 42 42 41 38 37 36 34 33 34 36 35 32 31 31 30 28 27 28 31 32 32
40 40 41 41 41 41 41 42 42 43 44 44 45 45 46 46 45 44 44 44 44 43 43 42 39 37 36 35 33 33 34 34 32 30 30 31 29 26 26 31 33 33
41 41 41 41 42 42 42 43 43 44 44 45 45 45 46 46 46 46 45 44 44 44 43 42 40 37 36 35 33 33 33 33 32 30 29 30 30 26 25 28 31 33
42 42 42 43 43 44 44 45 45 45 45 45 46 46 46 46 46 46 46 45 44 44 43 42 41 38 36 35 33 32 32 32 32 30 29 29 29 28 26 26 29 32
43 44 44 45 45 46 46 46 46 47 47 47 47 47 47 47 46 46 46 45 45 44 43 42 41 40 38 36 34 32 32 32 31 30 29 29 28 28 27 26 28 30
43 44 45 45 45 46 46 46 47 47 47 47 47 47 47 47 47 46 45 45 44 44 44 43 42 40 39 37 35 32 31 32 31 30 29 29 28 28 28 27 28 29
43 44 44 44 45 45 45 46 46 47 47 47 47 47 47 47 47 46 45 44 44 44 44 43 43 41 39 38 36 33 31 31 32 31 31 29 28 27 28 28 28 29
44 44 45 45 45 46 46 46 47 47 48 48 48 47 47 47 47 46 46 45 43 43 44 44 43 43 41 39 37 35 32 31 32 32 32 31 29 27 27 28 29 29
45 45 46 46 47 47 47 47 47 48 48 48 48 48 48 48 48 48 48 47 45 44 44 44 43 43 43 41 39 38 35 33 32 32 32 32 31 29 28 28 29 29
46 46 47 47 48 48 48 49 48 48 49 49 49 49 49 48 48 49 49 48 47 46 45 45 44 44 44 43 41 40 38 36 34 33 33 33 32 32 31 30 30 30

ECMWFNIL_500_spd_075.txt.gz
Wind_Speed
27 27 28 28 29 29 30 30 29 29 29 29 29 28 28 28 28 28 30 30 30 31 33 34 33 32 33 33 33 34 35 33 31 30 29 30 29 30 30 29 29 30
28 29 29 30 31 31 32 31 30 30 30 29 29 29 29 28 28 28 29 30 30 31 32 34 34 32 32 34 33 34 35 34 32 30 27 27 28 29 29 29 30 31
29 31 32 32 33 33 33 33 32 31 30 30 30 30 30 29 29 28 28 29 29 30 31 32 33 33 33 34 34 34 34 33 33 31 29 27 28 30 30 29 30 30
31 32 33 34 35 35 35 34 34 32 32 32 32 32 31 30 29 28 28 29 29 30 30 31 31 32 33 33 34 35 35 34 32 31 30 29 29 30 30 29 29 29
32 33 34 35 36 36 36 36 35 34 33 33 33 32 32 31 30 29 28 29 29 30 30 30 30 32 33 33 34 34 35 34 32 30 29 30 31 31 30 30 30 31
33 34 34 35 36 37 37 36 35 35 34 34 33 33 32 32 30 29 29 29 29 30 30 30 31 32 33 33 33 33 34 34 32 30 29 30 31 31 30 31 32 32
35 35 36 36 37 37 37 37 36 35 35 34 34 33 33 32 31 30 30 30 30 31 32 32 32 33 33 33 32 32 33 34 33 31 31 31 31 31 31 32 32 32
36 36 37 37 37 38 38 37 37 36 35 35 35 34 34 33 32 31 31 31 31 32 32 33 33 33 33 32 31 32 33 33 32 31 31 31 31 31 32 33 32 32
37 37 38 38 38 38 38 38 37 37 36 36 36 35 35 34 33 33 32 32 33 33 33 33 33 32 32 32 32 32 32 33 33 32 31 30 31 32 32 33 33 32
38 38 38 39 39 38 38 38 37 37 37 37 37 36 36 35 35 34 34 34 35 35 34 34 34 33 32 32 32 32 32 33 33 32 32 31 30 32 32 33 33 33
38 38 39 39 39 38 38 37 38 38 38 38 38 38 37 37 36 36 36 36 36 36 35 34 34 34 32 32 33 33 33 34 34 33 33 32 31 31 31 32 33 32
38 38 38 38 38 38 38 38 38 38 39 39 39 39 38 38 38 38 38 38 38 38 37 36 36 35 35 34 34 35 35 35 35 34 33 33 33 32 31 31 31 30
38 37 37 38 38 38 38 38 39 39 40 40 40 40 40 40 40 40 40 40 40 40 40 39 38 37 37 36 36 36 36 35 36 35 34 34 34 33 32 30 31 30
37 36 36 37 37 38 38 39 39 40 41 41 41 42 42 42 42 43 43 43 43 43 43 42 41 40 40 39 39 38 36 35 36 36 35 34 34 34 33 31 30 32
36 35 36 36 37 37 38 39 40 41 42 42 43 43 44 44 45 45 45 45 45 46 46 45 45 44 43 41 40 39 37 36 36 36 35 35 34 34 33 32 30 31
36 36 37 37 38 38 39 39 40 41 42 43 43 44 44 45 45 46 46 46 46 47 47 47 47 46 45 43 41 39 38 36 35 36 36 35 34 33 33 33 32 31
38 38 38 39 39 40 40 41 41 42 42 43 44 44 45 45 45 46 46 46 47 47 48 48 48 47 46 44 42 41 39 38 36 35 35 35 35 34 33 32 33 32
39 39 39 40 40 41 42 42 43 43 44 45 45 45 46 46 47 47 47 48 48 48 49 49 49 48 47 45 43 42 40 39 37 35 35 35 35 34 33 31 31 32
40 40 40 41 42 42 42 43 44 44 45 46 47 47 48 48 49 49 49 50 50 50 50 50 50 49 49 48 46 43 41 40 38 36 34 35 36 35 33 32 31 31
41 41 41 42 43 43 43 44 45 46 47 47 48 49 49 50 50 50 51 51 51 51 52 51 51 50 50 49 48 46 43 41 39 37 35 34 35 36 34 32 31 30
41 41 42 43 43 44 45 46 46 47 48 49 49 50 51 51 51 51 51 51 51 52 52 52 52 51 50 50 49 47 45 42 40 39 37 35 35 36 36 33 31 30
41 41 42 43 44 45 45 46 47 48 49 50 50 51 52 52 52 52 52 52 51 52 52 52 53 52 51 50 48 47 46 43 42 40 39 36 35 36 36 35 33 31
41 43 44 44 45 46 46 47 48 49 50 51 51 52 52 53 53 53 53 52 52 52 52 52 52 52 52 51 50 48 46 44 42 41 41 39 36 36 36 36 34 32
42 43 45 46 46 47 48 49 50 51 52 52 53 54 54 54 54 54 54 54 53 52 52 52 52 52 52 52 51 49 47 45 43 42 42 41 39 37 37 36 36 35
43 44 45 45 46 47 48 49 50 51 52 52 53 54 55 55 56 56 56 56 55 54 53 53 52 52 51 51 51 50 48 46 44 42 42 42 41 39 38 38 37 36
41 42 43 43 44 45 47 48 49 50 51 52 53 54 55 55 56 56 56 56 56 56 55 54 53 53 52 51 51 50 49 47 45 43 42 43 43 41 41 40 38 37

ECMWFNIL_500_spd_078.txt.gz
Wind_Speed
26 26 26 27 27 27 27 28 29 31 32 33 34 35 34 34 34 33 33 32 32 31 31 30 29 27 25 25 25 25 25 26 27 28 29 30 32 33 32 32 34 34
27 27 28 28 29 29 29 29 30 32 33 34 35 36 36 35 35 34 34 33 32 32 32 31 30 29 26 25 25 25 25 27 28 28 29 30 32 33 33 32 33 34
29 29 29 29 30 31 31 31 32 33 34 35 36 37 37 37 36 36 35 34 33 33 32 30 30 29 28 26 25 25 27 28 30 30 30 30 31 31 33 33 33 34
30 30 30 31 31 31 32 32 33 34 35 37 38 38 38 38 37 37 36 35 34 33 32 31 30 29 28 27 26 26 28 29 30 31 30 30 31 30 32 33 33 33
32 31 31 32 32 32 32 33 34 35 36 37 38 39 38 38 38 37 37 36 35 34 33 33 32 30 29 28 27 27 29 30 30 30 30 30 31 30 31 32 32 33
34 33 32 33 34 34 34 34 35 36 37 38 39 39 39 39 38 38 37 37 36 35 34 34 33 31 30 29 28 29 29 30 29 29 30 30 30 30 31 31 31 31
36 35 34 35 35 35 36 36 37 38 38 39 40 40 40 39 39 38 38 37 37 36 36 35 34 33 32 31 30 30 30 30 30 29 30 30 30 30 31 31 31 31
38 37 37 37 37 37 37 38 38 38 39 40 41 41 40 40 39 39 38 38 37 37 37 36 36 34 33 32 31 30 30 31 31 30 31 31 31 31 31 32 32 32
40 39 39 38 38 39 39 40 40 39 40 40 41 41 40 40 39 39 39 39 38 38 38 38 37 37 35 34 32 31 31 31 31 32 32 33 33 33 33 33 33 33
42 41 41 40 40 41 41 41 41 40 40 40 40 41 41 40 40 40 40 40 40 40 39 39 39 38 37 36 34 33 32 32 32 32 33 34 35 35 35 35 35 34
44 43 42 42 42 43 43 42 42 41 40 40 40 40 40 40 40 40 40 41 41 41 41 41 40 40 39 39 37 36 35 34 34 33 34 35 36 37 36 36 35 35
45 44 44 43 43 43 43 42 42 41 41 41 41 41 41 41 41 41 41 42 42 43 43 43 43 43 42 41 41 40 39 38 37 36 35 36 37 38 38 37 35 35
46 45 45 44 44 43 42 41 40 40 40 40 40 41 41 42 42 42 42 43 43 44 44 45 45 45 44 44 43 42 42 41 40 38 37 37 38 39 38 37 36 35
45 45 45 45 43 42 41 40 39 39 39 40 40 41 42 43 43 44 44 44 44 45 45 46 46 46 46 45 44 43 43 42 41 40 39 38 38 39 38 38 37 36
45 44 44 43 42 41 40 39 39 39 40 41 41 42 42 43 44 45 46 46 46 46 47 47 48 48 48 47 46 45 44 43 43 42 41 39 38 38 39 39 38 37
44 43 43 42 41 41 40 40 40 41 41 42 42 42 43 44 45 46 46 47 48 48 49 49 49 49 50 49 49 48 47 46 45 44 44 42 40 39 39 39 39 38
43 42 42 41 41 41 41 41 41 41 42 43 43 43 44 45 45 46 47 47 48 49 50 50 50 50 51 51 51 50 50 49 48 47 46 45 43 41 40 39 39 38
41 41 41 41 41 41 41 41 41 42 42 43 43 44 45 46 46 47 48 49 49 50 51 52 53 53 53 52 52 52 52 51 50 50 48 47 45 44 42 40 39 39
39 40 41 41 41 41 42 42 42 43 43 44 45 46 47 48 49 50 50 51 52 53 53 54 55 55 56 55 55 54 54 53 52 52 51 50 48 46 44 42 40 39
40 40 41 41 41 42 42 43 44 45 45 46 47 48 49 50 52 53 54 54 55 56 56 57 57 58 58 58 58 57 56 55 55 54 53 52 51 49 46 45 42 40
40 40 40 40 41 42 44 45 46 47 48 49 50 51 52 53 54 55 56 58 58 59 60 60 60 60 61 61 61 61 60 59 57 56 54 53 52 51 49 47 44 41
39 39 40 41 43 44 45 46 48 49 50 50 51 52 53 54 55 56 57 58 59 60 61 62 62 62 62 62 62 63 63 62 60 58 57 55 53 52 51 49 47 44
39 40 41 43 44 45 46 46 47 48 48 49 50 51 52 53 54 56 57 58 59 60 61 62 63 63 63 63 62 62 63 63 63 61 59 57 55 53 52 50 48 46
39 41 42 43 44 44 44 44 45 46 46 47 49 50 51 52 53 54 55 56 58 59 60 62 63 63 64 64 63 63 62 62 62 62 60 59 57 55 53 51 49 48
39 40 40 40 40 41 41 42 43 43 44 45 46 46 47 48 49 50 51 52 53 54 56 58 59 61 62 63 64 64 63 62 62 61 60 59 57 56 54 52 50 48
37 37 37 37 38 38 38 39 39 40 40 41 41 42 43 44 45 46 47 48 49 50 51 52 54 55 57 58 60 61 62 62 62 61 60 59 57 56 54 53 51 49

ECMWFNIL_500_spd_081.txt.gz
Wind_Speed
28 28 28 29 28 28 28 28 29 29 28 28 28 29 30 31 32 33 33 34 34 34 34 35 34 34 33 31 30 29 28 27 27 27 27 26 27 28 28 28 28 28
29 29 30 31 31 30 30 30 31 30 30 30 30 31 32 33 33 34 35 35 36 36 36 36 36 35 35 33 31 30 29 28 28 29 29 28 29 29 30 29 29 30
31 31 32 32 33 33 33 33 33 32 32 32 32 32 33 34 35 35 36 37 38 38 38 38 37 37 36 35 33 31 30 29 29 30 30 30 30 30 31 30 30 30
32 32 33 34 35 36 36 35 34 34 34 34 34 33 34 35 36 37 38 38 39 39 40 39 39 38 38 36 35 32 31 30 30 31 31 32 32 31 31 31 31 30
34 34 35 36 37 38 37 36 35 35 35 35 35 34 35 36 37 38 39 40 40 40 40 40 40 39 38 37 36 34 32 31 32 32 33 33 33 33 33 33 32 31
35 36 37 38 39 40 39 38 37 37 37 37 36 36 36 37 38 40 41 42 42 42 42 41 41 40 39 38 37 35 33 32 32 33 33 34 35 35 34 34 34 33
37 37 39 40 41 41 40 39 38 39 39 38 37 37 38 39 40 41 42 43 43 44 43 43 42 41 40 39 38 37 36 34 33 34 34 35 36 36 36 36 36 35
37 39 40 41 42 42 42 41 40 41 40 40 39 40 40 41 42 43 43 44 44 44 44 43 43 42 41 41 40 39 38 37 36 35 35 35 36 36 37 38 38 38
39 41 42 43 43 44 43 42 42 43 42 41 41 41 42 43 43 44 44 44 45 45 44 44 43 43 42 42 42 41 40 39 39 38 37 37 37 37 38 39 39 39
41 42 43 44 44 45 45 44 44 44 43 43 43 43 43 43 43 44 44 45 45 44 44 44 44 44 43 43 43 42 42 41 41 41 40 40 39 39 39 40 41 41
42 43 44 45 45 46 46 46 45 45 44 44 44 44 44 43 43 44 44 44 44 44 44 44 43 44 44 44 44 44 43 43 42 42 42 42 42 41 41 41 41 42
43 44 45 45 46 47 47 46 45 45 45 44 44 44 44 44 45 44 44 44 44 44 44 44 44 44 44 45 45 45 45 45 44 44 44 44 43 43 42 41 41 42
44 45 45 46 47 47 46 46 45 45 45 44 44 45 45 45 45 45 45 45 45 45 45 45 45 45 46 46 46 47 47 47 47 46 46 46 46 45 44 43 42 41
45 45 46 47 47 46 46 45 45 45 45 44 44 44 44 44 45 45 45 45 46 46 46 46 46 46 46 47 47 48 48 48 49 48 48 48 48 48 47 46 45 43
45 46 46 45 45 45 45 45 45 45 45 44 44 44 43 43 43 44 44 45 45 46 46 46 47 47 47 47 47 48 49 49 49 50 50 50 50 50 49 49 48 46
44 44 44 44 44 44 44 44 44 44 44 44 44 43 43 42 43 43 44 45 46 47 48 49 50 50 51 51 51 50 50 51 51 51 51 51 51 51 51 51 50 49
42 42 42 42 42 43 43 44 44 44 44 43 43 43 43 44 45 46 47 48 50 51 52 53 54 55 56 56 56 56 56 56 56 55 55 54 54 53 53 53 52 52
40 40 41 41 42 43 43 43 43 43 42 42 43 44 45 47 48 50 51 52 53 53 54 55 56 56 57 58 59 59 60 60 60 60 59 59 58 58 57 56 55 54
38 39 41 42 42 42 42 41 41 41 42 43 45 46 48 49 50 51 52 52 53 53 54 54 55 56 57 58 59 59 60 61 61 61 61 61 61 61 60 60 59 58
38 40 41 41 41 40 40 40 41 42 44 45 46 47 48 49 49 50 50 51 52 52 53 54 54 55 56 57 58 59 60 61 62 63 63 63 62 62 61 61 61 60
40 40 40 39 39 39 39 41 42 43 44 45 45 45 46 46 47 48 49 49 50 51 51 52 52 53 54 55 56 57 59 60 61 62 64 64 64 64 63 62 61 61
39 38 37 37 38 39 40 41 42 43 43 43 43 44 44 45 46 46 47 47 48 49 49 50 51 51 52 53 54 55 56 58 59 61 62 63 64 65 65 64 63 62
37 37 37 37 38 39 40 40 40 40 41 41 42 43 43 44 44 45 46 46 47 48 49 50 51 51 52 52 53 54 55 56 57 59 60 61 62 63 64 65 64 63
36 36 36 37 38 38 38 37 38 38 39 40 41 42 43 44 44 45 46 47 48 50 50 51 51 51 52 52 53 54 55 56 57 58 59 59 60 60 61 62 63 63
34 35 35 36 36 35 35 35 36 37 39 40 41 42 43 44 45 46 47 48 49 49 50 50 50 51 52 52 54 55 56 58 59 59 59 58 58 57 57 58 59 60
33 33 34 33 33 33 33 34 36 37 38 40 41 42 43 44 45 46 47 48 48 48 48 49 49 50 51 52 54 56 58 59 60 60 58 56 54 53 53 53 54 56

ECMWFNIL_500_spd_084.txt.gz
Wind_Speed
31 33 34 35 35 35 35 35 35 35 34 33 33 33 33 34 34 34 34 34 34 34 33 33 33 33 34 35 36 36 36 35 35 35 36 36 35 35 35 35 35 35
32 33 34 35 36 36 37 37 37 36 36 35 35 35 35 36 36 36 36 36 35 35 34 34 34 34 35 36 37 38 39 38 38 37 37 37 37 36 36 36 36 36
33 33 35 36 37 38 38 38 38 38 38 38 37 37 37 37 37 37 37 37 36 36 36 35 35 35 36 37 38 39 40 40 40 39 38 38 38 37 37 37 37 38
33 34 35 36 38 39 39 39 39 40 40 39 39 39 38 38 38 38 37 37 37 36 36 37 37 37 37 38 40 41 42 42 41 41 40 39 39 38 38 38 38 38
34 35 36 37 39 40 40 41 41 42 41 41 40 40 39 39 39 39 38 38 37 37 37 38 38 38 39 40 41 42 43 43 43 42 41 40 40 40 39 39 39 40
36 36 37 39 40 41 41 42 43 43 43 42 42 41 40 40 40 40 39 39 39 39 39 40 40 40 40 41 42 42 43 43 43 43 42 41 41 41 41 40 40 40
37 38 39 40 42 42 43 43 43 44 44 44 43 42 42 42 41 41 41 41 41 41 41 41 42 42 42 43 43 43 43 43 43 43 42 42 41 41 41 41 41 41
38 39 41 42 43 43 44 44 44 44 45 45 44 44 43 43 43 42 42 42 42 42 43 43 43 43 43 44 44 44 44 44 44 44 43 43 42 41 41 42 42 42
39 40 41 42 43 44 44 44 45 46 46 46 45 45 45 44 44 43 43 43 43 43 43 43 44 44 44 44 44 44 44 45 45 44 44 44 44 43 43 42 42 43
40 41 42 43 44 44 44 45 46 46 46 46 46 46 45 45 44 44 44 44 44 44 44 44 44 44 45 45 45 45 44 45 45 45 45 45 45 45 45 44 44 44
41 42 43 43 44 44 44 45 46 46 46 47 47 46 46 45 45 45 44 44 44 44 44 44 43 44 44 44 44 44 44 44 45 45 46 46 47 47 47 47 47 46
42 43 43 43 43 44 44 45 45 46 46 47 46 46 46 45 45 45 44 44 44 43 43 43 43 43 43 43 44 44 45 45 45 46 46 47 48 48 49 49 49 49
42 43 43 43 43 44 44 45 45 46 46 46 45 45 45 44 44 44 44 44 44 43 43 43 43 44 44 45 46 47 48 48 49 49 49 50 50 51 51 51 52 52
42 42 42 43 43 44 44 44 44 45 44 44 44 43 43 43 43 43 43 43 43 43 44 45 46 47 48 49 49 50 51 51 51 52 52 52 53 53 54 54 55 55
41 41 42 43 43 43 43 44 44 43 43 42 42 42 42 42 41 41 42 43 44 45 46 47 48 49 50 50 50 50 50 50 51 51 51 51 52 52 53 54 55 56
40 41 41 42 42 42 43 43 42 42 41 42 42 41 41 40 41 42 43 44 46 47 48 48 49 49 49 49 49 49 49 50 50 51 51 51 51 51 51 52 53 54
39 39 40 40 41 41 41 40 40 40 41 41 40 40 40 41 42 44 45 45 46 46 47 47 47 48 48 49 49 50 50 50 51 51 52 53 53 53 53 53 53 53
38 38 39 40 40 39 39 39 39 40 39 39 39 40 41 42 43 44 44 44 45 45 45 46 46 47 48 48 49 50 51 52 52 53 54 54 55 55 56 56 55 55
37 38 38 38 38 38 38 38 38 38 38 38 40 41 41 42 42 42 42 43 43 44 44 45 46 47 48 49 50 51 52 53 54 55 55 56 56 57 57 58 58 57
37 37 37 36 37 37 37 37 37 37 38 39 39 40 40 40 40 40 41 42 43 43 44 45 46 47 48 49 50 51 53 53 54 55 55 56 57 57 58 59 59 60
35 35 36 36 36 36 36 35 36 36 37 37 37 37 37 37 38 40 41 42 43 44 45 46 47 48 49 49 50 51 51 52 53 54 55 55 56 57 59 60 60 61
35 35 35 35 35 34 34 35 35 35 35 35 34 34 35 37 38 40 41 42 43 44 45 47 47 48 49 49 49 49 50 51 52 53 54 55 56 57 59 61 62 63
34 34 34 34 33 33 34 34 34 33 33 33 33 34 36 38 39 40 41 43 44 45 46 46 47 47 48 48 49 50 50 51 52 52 53 55 56 58 60 62 63 64
33 33 32 32 32 32 32 32 31 31 31 32 34 35 37 38 39 41 42 43 44 45 45 46 47 47 48 49 50 50 50 51 51 52 53 55 57 59 61 63 65 65
32 32 31 31 31 31 30 30 29 29 30 32 34 36 37 38 40 41 42 43 43 44 45 46 47 47 48 49 49 50 50 50 51 52 54 55 57 59 62 64 64 62
31 30 29 29 29 29 28 27 28 29 31 33 35 36 37 38 39 40 41 42 43 43 44 45 46 47 48 48 49 49 49 50 51 53 54 56 58 60 63 63 61 58

ECMWFNIL_500_spd_090.txt.gz
Wind_Speed
25 25 25 25 26 27 28 28 29 30 31 32 33 34 35 36 37 38 38 38 39 39 40 40 39 38 37 37 37 37 37 37 37 36 37 37 37 37 38 38 39 40
25 26 26 27 28 29 29 30 30 31 32 33 34 35 36 37 38 39 40 40 41 41 42 41 41 39 39 39 39 38 37 37 37 37 37 37 37 38 38 38 39 40
24 25 26 28 29 30 31 31 32 32 33 33 34 36 37 38 39 40 41 42 42 43 43 43 42 40 40 40 40 38 38 37 37 37 38 38 38 38 39 39 40 40
25 27 28 29 30 31 32 32 33 33 34 34 35 36 38 39 40 41 42 43 43 44 44 44 42 41 41 41 40 39 39 39 39 39 39 39 39 39 39 40 40 41
30 31 31 32 32 32 33 33 33 34 34 35 35 37 38 39 41 42 43 44 44 45 45 44 43 42 42 41 41 41 40 40 40 40 40 40 40 40 40 40 41 41
33 33 33 33 33 33 33 34 34 34 34 35 36 37 38 39 41 42 43 44 45 45 45 44 43 43 42 42 42 42 42 42 42 41 41 41 41 40 40 40 41 41
33 32 32 32 32 33 33 34 34 34 34 35 35 37 38 39 41 42 43 44 45 44 44 43 43 43 43 43 43 43 43 43 42 42 41 41 41 41 41 41 41 42
31 30 30 31 31 32 33 33 33 33 34 34 35 36 38 39 41 42 43 44 44 43 43 43 43 43 43 43 43 43 43 42 42 42 41 41 42 42 42 43 43 44
29 29 29 29 30 31 32 32 32 33 33 34 35 36 38 39 41 42 43 43 43 43 43 43 43 43 43 43 43 43 42 42 42 42 42 42 43 44 44 44 45 45
28 28 28 28 29 30 31 31 32 33 33 34 36 37 39 40 41 41 41 41 42 42 42 42 42 42 43 43 43 43 42 43 43 43 43 44 44 44 45 45 45 46
26 27 27 28 29 30 30 31 32 33 34 35 36 37 38 39 39 40 40 41 41 42 42 42 42 43 43 43 43 43 43 44 44 44 44 44 45 45 45 45 46 46
26 27 27 28 29 30 30 31 32 33 34 35 36 36 37 38 38 39 40 40 41 41 42 42 43 43 43 43 43 44 44 44 44 45 45 45 45 46 46 46 46 47
27 28 28 28 29 30 30 31 32 33 34 34 35 36 36 37 38 38 39 40 40 41 42 42 43 43 43 44 44 44 44 44 44 45 45 46 46 46 46 46 47 47
28 28 29 29 29 30 30 31 32 32 33 34 34 35 35 36 37 38 39 39 40 41 42 42 43 43 43 44 44 44 44 44 45 45 45 46 46 46 46 47 47 48
29 30 29 29 29 29 30 30 31 32 32 33 33 34 35 36 37 38 39 40 41 41 42 42 42 43 43 43 43 43 44 44 45 45 45 45 45 46 46 47 47 47
31 30 30 30 29 29 30 30 30 31 31 32 33 34 35 36 37 38 39 40 41 41 42 42 42 42 42 42 43 43 44 44 44 44 45 45 45 45 46 46 47 47
30 30 30 30 29 29 29 29 30 30 31 32 33 34 35 37 38 39 40 40 41 41 41 42 42 42 42 42 43 44 44 44 44 44 44 44 45 45 46 46 46 47
29 29 29 29 29 28 28 28 29 30 31 32 33 35 36 37 38 39 40 40 41 41 41 41 41 41 42 42 43 43 43 43 43 43 43 44 44 45 45 45 45 45
28 28 28 27 27 27 27 28 29 30 32 33 34 35 37 38 38 39 40 40 40 40 40 40 41 41 42 42 42 42 42 42 43 43 43 44 44 45 45 45 45 45
27 26 26 26 26 26 27 29 30 31 32 34 35 36 37 38 38 39 39 39 39 39 39 39 40 41 42 42 41 41 42 42 42 43 44 44 45 45 44 45 45 46
26 25 25 25 26 27 28 29 31 32 33 35 36 36 37 37 38 38 38 38 38 38 38 39 40 40 40 40 40 41 41 42 43 44 44 45 44 44 44 44 45 46
25 24 25 25 26 28 29 31 32 33 34 35 35 36 36 37 37 37 37 37 37 37 38 39 39 39 39 39 39 40 41 42 44 44 44 44 43 43 44 45 46 47
24 24 25 26 27 29 30 32 32 33 34 34 35 35 36 36 36 36 36 36 36 37 38 38 37 37 37 38 39 40 41 42 43 43 42 42 42 43 44 45 46 47
24 25 26 27 28 30 31 31 32 33 33 34 34 35 35 35 35 35 35 36 36 37 37 36 35 35 36 37 38 40 41 42 42 41 40 41 42 43 45 45 46 47
25 26 27 28 29 30 30 31 31 32 32 33 34 34 34 34 34 34 35 35 36 35 35 34 34 34 35 37 38 40 41 41 40 39 40 41 43 44 45 45 46 47
25 26 28 29 29 30 30 30 31 31 32 33 33 33 33 33 34 34 34 35 34 34 33 33 33 34 35 37 39 40 40 39 38 38 40 42 43 44 45 45 46 47

ECMWFNIL_500_spd_093.txt.gz
Wind_Speed
21 22 23 24 24 24 24 23 23 24 26 28 29 31 32 33 33 34 34 35 36 36 37 38 39 39 40 40 41 41 41 40 40 39 39 39 39 39 39 39 39 39
22 23 24 24 24 24 23 23 24 26 28 30 31 32 33 34 35 35 36 36 37 37 38 39 40 40 41 42 42 43 42 41 41 40 40 40 40 41 40 40 40 40
23 24 24 25 25 25 25 27 28 30 31 32 33 34 34 35 36 36 37 37 37 38 39 40 41 41 42 43 44 43 43 42 41 41 41 41 41 41 41 41 41 41
25 26 26 27 27 28 30 31 33 34 34 34 35 35 36 36 37 37 37 38 38 39 40 40 41 42 43 44 44 44 43 43 42 42 42 42 42 42 42 41 42 42
26 27 28 29 31 32 33 34 35 36 36 36 36 36 37 37 38 38 38 38 39 39 40 41 42 43 44 44 44 44 44 43 43 43 43 43 42 42 43 43 43 43
26 28 29 30 32 33 34 35 35 36 36 36 36 36 37 37 38 38 38 38 39 40 41 41 42 44 44 44 44 44 44 44 44 44 43 44 44 44 44 44 44 44
26 28 29 30 32 32 33 34 34 35 35 35 36 36 37 37 37 38 38 39 39 40 41 42 43 43 43 44 44 44 44 44 44 44 44 45 45 45 45 45 45 46
28 29 30 31 32 32 33 33 33 33 33 34 35 35 36 36 37 38 38 39 40 41 41 42 42 42 43 43 43 44 44 44 44 45 45 46 46 46 46 46 47 47
29 30 30 31 31 32 32 31 31 32 33 33 34 35 36 37 37 38 38 39 40 40 41 41 41 41 42 42 43 43 44 44 45 45 46 46 47 47 47 48 48 48
29 29 30 30 31 31 31 31 31 31 32 33 34 35 36 37 37 37 38 38 39 39 40 40 40 41 41 42 42 43 44 44 45 46 46 47 47 48 48 48 48 49
29 29 30 30 30 30 30 31 31 32 32 33 34 35 35 36 36 37 37 37 38 38 39 39 40 40 41 42 42 43 44 45 45 46 47 47 48 48 48 48 49 50
30 30 30 30 30 30 30 31 31 32 32 33 34 34 35 35 36 36 36 37 37 37 38 38 39 40 41 41 42 43 44 45 46 46 47 47 47 48 48 49 50 50
30 30 30 31 31 31 31 31 31 31 32 32 32 33 33 34 34 35 35 36 36 37 37 38 39 40 41 42 42 43 44 45 46 46 47 47 47 48 49 50 50 51
30 31 31 32 32 32 32 32 32 31 31 31 31 32 32 33 33 34 34 35 36 36 37 38 39 40 41 42 43 44 45 45 45 46 46 47 48 49 50 50 50 50
31 32 32 33 33 34 33 33 32 31 31 31 31 31 31 32 32 33 34 35 35 37 38 38 39 40 41 42 43 44 44 44 44 45 46 48 48 49 49 49 50 50
32 32 33 33 33 33 33 32 32 31 30 30 30 30 31 31 32 33 34 35 36 37 37 38 39 40 42 42 43 43 43 43 44 46 47 47 47 48 48 48 49 49
32 32 32 32 32 32 32 31 31 30 29 29 29 30 30 31 32 33 34 35 36 37 38 39 40 41 42 42 42 42 43 44 45 46 46 46 46 46 47 47 48 48
31 31 31 31 31 31 31 30 29 28 28 28 29 29 30 31 33 34 35 36 37 37 38 39 40 41 41 41 41 42 43 44 45 46 46 46 46 46 46 47 47 47
31 31 30 31 31 31 30 29 28 27 28 28 29 30 31 32 33 34 35 36 37 38 39 40 40 40 40 41 41 42 44 45 45 45 45 45 45 45 46 46 46 45
31 30 30 31 30 29 28 27 27 27 27 28 29 30 32 33 34 35 36 36 37 38 39 40 40 40 40 41 42 43 44 44 44 44 45 45 45 45 46 45 44 44
30 30 30 30 28 27 27 26 26 27 28 29 30 31 33 34 34 35 36 37 38 39 39 39 39 39 40 41 42 43 44 43 44 44 44 45 45 45 45 44 43 43
30 30 29 28 27 26 26 26 26 27 28 29 31 32 33 34 34 35 36 37 38 38 38 38 38 39 40 42 42 43 43 43 43 43 44 44 44 44 43 42 43 43
30 30 29 27 26 26 26 26 27 28 29 30 32 33 33 34 35 36 36 37 37 37 37 38 38 39 40 41 41 41 41 41 42 42 43 43 43 42 41 41 42 44
30 29 28 27 26 26 26 26 27 28 30 31 32 33 33 34 35 36 36 37 37 37 37 37 38 39 40 39 39 39 39 40 41 42 42 42 40 40 40 41 42 43
30 28 27 26 26 26 26 27 28 29 31 32 32 33 34 34 35 36 36 36 36 36 36 37 38 38 38 37 37 37 38 39 40 41 40 39 38 38 40 41 42 42
29 27 26 26 26 26 27 27 29 30 31 32 33 33 34 34 35 35 35 35 35 35 36 37 37 36 36 35 35 36 37 38 39 39 38 37 37 37 39 41 41 42

ECMWFNIL_500_spd_096.txt.gz
Wind_Speed
17 18 18 18 18 19 19 20 21 22 23 24 25 26 28 30 32 34 36 37 38 39 39 39 39 39 39 39 39 39 40 40 41 41 42 42 42 42 42 42 42 42
18 18 19 19 20 20 21 22 24 25 26 27 29 30 32 34 36 37 38 39 40 40 40 39 39 39 40 40 40 40 41 42 42 43 43 43 43 42 42 42 43 42
19 20 20 21 22 23 24 25 26 28 29 31 32 34 35 36 38 39 40 40 40 40 40 39 40 40 40 40 41 42 42 43 43 44 44 43 43 43 43 43 43 43
20 21 22 23 24 25 26 27 28 30 31 33 34 35 36 38 38 39 40 40 40 39 39 40 40 40 41 41 42 43 43 44 44 44 44 44 43 44 44 44 44 44
21 22 23 24 25 26 28 29 30 31 32 34 35 36 37 38 39 39 39 39 39 39 40 40 40 41 41 42 43 43 44 44 44 44 43 43 44 44 44 44 45 45
21 22 24 25 27 28 29 30 31 33 34 35 36 36 37 38 38 38 38 39 39 39 40 40 41 41 42 43 43 43 44 44 43 43 43 43 44 44 44 45 45 46
23 25 26 27 29 30 31 32 33 33 34 35 36 36 37 37 37 38 38 38 39 39 40 41 41 42 42 43 43 43 43 43 43 43 43 44 44 44 45 45 45 46
26 27 28 29 30 31 32 32 33 33 34 35 35 36 36 36 37 37 37 38 39 40 40 41 41 42 42 42 42 42 42 42 43 43 43 44 45 45 45 46 46 47
27 28 29 30 31 31 32 32 33 34 34 35 35 36 36 36 36 37 37 38 39 40 40 41 41 41 41 41 41 41 41 42 42 43 44 44 45 45 46 46 47 48
28 29 30 31 31 32 32 33 34 34 35 35 35 36 36 36 37 37 38 39 39 40 40 40 40 40 40 40 40 41 41 42 43 43 44 44 45 46 46 47 48 48
29 30 31 32 33 33 33 34 34 34 35 35 35 36 37 37 38 38 39 39 39 39 39 39 39 39 39 39 40 41 41 42 43 43 44 44 46 46 47 47 48 48
31 32 33 33 33 33 33 33 34 34 35 35 36 37 38 38 39 39 39 39 39 39 38 38 38 38 38 39 40 41 41 42 43 43 44 45 46 47 47 47 48 49
32 33 33 33 33 33 33 33 34 34 35 36 37 37 38 38 38 38 38 38 37 37 36 36 37 37 38 39 40 41 41 42 43 44 45 46 46 47 47 48 49 50
33 33 34 33 33 33 33 34 34 35 36 36 37 37 37 37 37 37 36 36 35 35 35 36 36 37 39 39 40 41 42 43 44 45 45 46 46 47 48 49 50 50
33 34 34 33 33 33 33 34 34 35 35 35 35 36 36 36 36 36 35 34 34 34 35 36 37 38 39 40 41 42 43 43 44 44 45 45 46 47 48 49 49 49
34 34 33 33 33 33 34 34 34 35 34 34 34 35 35 35 35 34 33 33 33 34 35 36 37 38 39 40 41 42 43 43 43 44 44 45 47 48 48 48 49 49
34 34 34 33 33 34 34 34 35 34 34 34 34 35 34 34 33 32 32 32 33 34 36 37 37 38 39 40 41 42 42 42 43 43 44 45 46 47 47 48 48 49
34 34 33 33 33 34 34 34 34 34 33 34 34 34 33 32 31 31 31 32 33 35 36 37 38 38 39 40 41 41 41 41 42 43 44 45 46 46 47 47 47 48
33 33 33 33 34 34 34 34 34 33 34 33 33 32 31 31 30 31 31 33 34 35 36 37 38 38 39 40 40 40 41 41 42 44 45 45 45 46 46 46 47 47
33 33 33 33 34 34 34 34 34 34 34 33 32 31 30 30 30 31 32 33 35 36 36 37 38 39 39 40 40 40 41 42 43 44 44 45 45 45 46 46 46 46
32 32 33 33 34 34 34 34 34 34 34 32 31 31 30 30 30 31 32 34 35 36 37 37 38 39 39 39 39 40 41 42 43 43 44 44 44 45 45 45 45 44
32 32 33 33 34 34 34 34 34 34 34 32 31 30 30 30 30 31 33 35 35 36 37 38 39 39 39 39 39 40 41 42 42 43 43 44 44 44 44 44 43 42
32 32 33 33 34 34 34 34 34 34 33 32 31 30 30 30 31 32 34 35 36 37 38 38 38 38 38 38 39 40 41 41 42 42 42 43 43 43 42 41 41 40
32 33 34 34 34 34 34 34 34 33 32 31 30 30 30 30 31 33 34 35 36 37 37 38 38 38 38 38 39 40 40 40 41 41 41 41 42 41 40 39 38 39
33 34 34 35 34 34 34 33 33 33 32 31 30 30 30 31 32 33 35 36 36 36 37 37 37 37 37 38 39 39 39 39 39 39 40 40 40 38 37 37 38 38
34 34 35 35 34 34 34 33 33 32 31 30 30 30 30 31 32 34 35 36 36 36 36 36 36 36 37 38 38 38 37 37 37 38 38 38 36 35 35 36 37 37

ECMWFNIL_500_spd_099.txt.gz
Wind_Speed
13 13 14 15 16 16 16 16 17 18 19 20 21 23 24 25 27 28 30 31 32 33 34 35 36 37 37 38 38 38 38 38 39 39 40 41 42 42 43 43 43 43
15 16 16 17 17 17 18 18 19 19 20 21 23 24 25 27 28 29 31 32 33 34 35 36 37 37 37 37 37 38 38 39 40 40 41 42 43 43 43 43 43 43
17 18 18 18 18 19 19 20 20 21 22 23 24 25 27 28 30 31 32 33 34 35 35 36 36 36 37 37 37 38 39 40 41 41 42 43 43 43 43 43 43 43
17 18 18 19 19 20 20 21 22 23 24 25 26 28 29 30 31 32 33 33 34 34 35 35 35 36 36 37 38 39 40 40 41 42 42 43 43 43 43 44 44 44
17 17 18 19 20 21 22 23 24 25 26 27 29 30 30 31 32 32 33 33 34 34 34 35 35 36 37 38 39 39 40 41 41 42 42 42 43 43 44 44 44 45
18 18 19 20 22 23 24 25 26 27 28 29 30 30 31 32 32 33 33 34 34 34 35 35 36 37 38 39 39 40 40 41 41 42 42 42 42 43 44 44 45 45
19 20 21 22 24 25 26 26 27 28 29 29 30 31 32 33 33 34 34 34 34 35 35 36 37 38 39 39 40 40 40 41 41 41 41 42 42 43 44 45 45 46
20 21 23 24 25 26 27 27 28 28 29 30 31 32 33 33 33 33 34 34 35 36 36 37 38 38 39 39 39 39 40 40 40 40 41 42 43 44 45 45 46 46
21 23 24 26 27 27 27 28 28 28 30 31 32 32 33 33 33 33 34 34 35 36 37 37 37 37 38 38 38 38 38 39 39 40 41 43 44 45 45 46 46 47
23 24 26 27 28 28 28 28 29 30 31 32 32 32 32 32 33 33 34 35 35 36 36 36 36 36 37 37 37 37 38 39 40 41 42 43 44 45 46 46 46 47
25 26 28 29 29 30 30 30 30 31 32 32 32 32 32 32 33 33 34 35 35 35 35 35 36 36 36 36 36 37 38 39 40 42 43 44 45 45 46 46 47 47
26 28 30 31 31 32 32 32 32 32 32 32 32 31 32 32 33 33 34 34 34 34 34 35 35 35 35 35 36 37 38 40 41 43 43 44 45 45 46 46 47 48
28 30 32 33 33 34 33 33 33 33 32 32 31 31 31 32 33 33 33 33 33 34 34 34 34 34 35 35 36 38 39 41 42 43 44 44 45 46 46 47 48 49
30 32 33 34 34 35 34 34 33 33 32 32 31 31 32 32 32 32 32 33 33 33 33 33 33 34 34 35 37 38 40 41 42 43 44 45 46 46 47 47 48 49
32 33 34 35 35 35 35 34 34 33 32 32 32 32 32 32 32 32 32 33 33 33 33 33 33 33 34 36 37 39 40 41 43 44 45 46 46 46 47 48 48 48
33 35 35 36 36 36 35 35 34 33 32 32 32 32 32 32 32 32 32 33 33 33 33 33 33 33 35 37 38 39 41 42 43 44 45 45 46 46 47 47 47 46
35 35 36 36 36 35 35 35 34 33 32 32 32 32 32 32 32 32 33 33 33 33 33 33 33 34 36 37 39 40 41 43 44 44 45 45 46 46 46 45 45 45
36 36 36 37 36 35 35 35 34 33 32 32 32 32 32 32 32 33 33 34 34 34 33 33 33 35 36 38 39 41 42 43 43 44 44 44 45 45 44 44 44 44
36 36 36 36 35 35 35 34 33 33 32 32 32 33 33 33 33 33 34 34 34 34 33 33 34 35 37 38 40 41 42 42 42 43 43 44 44 43 43 43 43 43
36 36 36 36 35 35 35 34 33 33 32 33 33 33 33 33 33 34 34 35 34 34 33 33 34 36 38 39 40 41 42 42 42 42 43 43 42 42 42 42 42 42
35 36 36 36 35 35 35 34 34 34 33 33 34 34 33 33 33 34 35 35 34 34 33 34 35 37 38 40 41 41 41 41 41 42 42 41 41 41 41 41 41 40
35 36 36 36 35 35 35 35 35 35 34 34 34 34 34 34 34 34 34 34 34 34 34 35 36 38 39 40 40 40 40 40 41 41 40 40 40 40 40 40 39 38
35 36 36 36 35 35 35 35 36 36 36 35 35 34 34 34 34 35 34 34 34 34 34 35 37 38 40 40 39 39 39 39 40 40 39 39 38 38 38 38 37 36
36 36 36 36 35 35 35 36 37 37 37 36 35 34 34 35 35 34 34 33 33 34 34 36 38 39 39 39 38 38 38 39 39 38 38 37 37 37 36 35 35 35
36 37 36 36 35 35 36 37 38 38 37 36 35 35 35 35 35 34 33 33 33 34 35 36 38 39 39 38 37 37 38 38 37 37 36 36 36 35 34 33 34 34
36 37 37 36 36 36 37 38 38 38 38 36 36 36 36 36 35 34 33 33 33 34 35 37 38 38 37 36 36 37 37 37 36 35 34 34 34 33 32 32 33 33

ECMWFNIL_500_spd_102.txt.gz
Wind_Speed
12 12 12 12 12 13 15 16 16 16 17 18 19 20 21 22 24 25 26 27 28 29 30 31 31 32 33 34 34 34 33 33 34 34 35 35 36 37 37 38 38 39
10 11 11 12 13 14 16 17 17 18 18 19 20 21 22 24 25 26 27 28 29 30 31 31 32 33 33 33 33 33 32 33 34 35 36 36 37 37 37 38 38 39
10 11 12 13 14 15 16 17 18 18 19 20 21 23 24 25 26 27 28 29 30 31 31 32 32 32 32 32 32 32 33 33 34 35 36 36 36 37 37 37 38 39
11 12 13 14 15 16 16 17 18 19 21 22 23 25 26 27 27 28 29 30 31 31 32 32 31 31 31 32 32 33 33 34 34 35 35 35 36 36 37 37 38 40
10 11 12 13 14 16 17 18 20 21 22 24 25 26 27 28 29 29 30 31 31 32 31 31 31 31 32 32 32 33 33 33 34 34 35 35 35 36 37 38 40 41
10 11 13 14 15 17 19 20 21 22 23 25 26 27 28 28 29 31 31 32 32 32 32 31 31 31 32 32 32 32 33 33 33 34 35 35 35 36 38 39 41 42
12 13 14 16 17 18 20 21 21 23 24 26 27 28 28 29 30 32 32 32 32 32 31 31 31 31 31 32 32 32 32 32 33 34 34 35 36 37 38 40 41 42
13 14 15 17 18 19 21 22 22 24 26 27 27 28 28 30 31 32 33 32 32 31 31 31 31 31 31 31 31 31 32 32 33 33 34 35 36 38 39 40 41 43
15 16 17 18 19 21 22 23 24 25 27 28 28 28 29 31 32 33 32 32 31 31 31 31 31 31 31 31 31 31 32 32 33 33 34 36 37 38 39 41 42 44
16 17 18 19 20 22 24 25 26 27 28 29 29 29 30 32 33 33 32 32 31 31 31 31 30 30 30 30 31 31 32 32 33 34 35 37 38 39 40 42 44 46
17 18 19 20 22 23 25 26 28 29 30 30 30 30 32 33 33 33 32 31 31 31 31 30 30 30 30 30 30 31 32 32 33 34 36 37 39 40 42 44 45 47
19 20 21 22 23 24 26 28 29 30 31 31 31 32 33 33 33 32 32 32 31 31 30 30 30 30 30 30 31 32 32 33 33 35 36 38 40 42 43 45 47 49
21 22 24 24 25 26 27 29 30 32 32 32 32 33 33 33 33 32 32 31 31 31 30 30 30 30 31 31 32 32 33 33 35 36 37 39 41 43 45 47 49 50
23 24 26 27 27 27 29 30 32 33 33 33 33 34 34 34 33 32 32 32 31 31 30 30 30 31 31 32 32 33 33 34 36 37 39 41 43 45 46 48 50 51
26 26 27 29 29 29 30 32 33 34 34 34 34 35 35 34 33 32 32 32 32 31 30 30 30 31 32 33 33 33 34 35 37 39 41 43 45 46 48 49 50 51
28 29 29 30 30 30 32 33 34 34 34 34 35 35 35 34 33 32 33 32 32 31 30 30 31 32 33 33 33 34 35 36 38 40 42 44 46 47 48 48 49 49
30 31 31 31 31 32 33 34 35 35 34 34 35 36 35 34 33 33 33 33 32 31 31 31 32 32 33 33 34 34 35 37 39 42 43 45 46 47 47 48 48 48
32 32 32 32 32 33 34 35 35 35 34 34 35 36 35 34 34 34 34 34 33 32 31 32 32 33 33 34 35 35 36 38 40 42 44 45 46 46 47 47 47 46
33 33 33 33 34 35 36 35 35 35 34 35 36 36 36 35 34 35 35 34 33 32 32 32 33 33 34 34 35 35 37 39 41 43 44 44 45 45 46 45 44 44
33 33 34 34 36 36 36 35 34 34 34 35 36 36 36 36 36 35 35 34 33 32 32 33 33 34 34 34 35 36 38 40 42 43 43 43 44 44 44 43 42 42
34 34 35 36 37 37 35 33 33 33 34 35 35 36 37 37 37 36 35 34 33 33 33 33 34 34 34 34 35 37 39 41 41 42 42 42 43 42 41 41 41 40
35 36 36 37 37 35 33 32 32 33 34 35 35 36 37 38 37 36 35 34 33 33 34 34 35 34 34 34 35 37 39 41 41 40 40 41 41 40 40 39 38 36
35 36 36 36 35 33 32 31 32 34 35 35 35 36 37 38 37 36 35 35 34 34 35 36 36 35 35 35 36 38 40 40 39 39 40 40 39 38 38 37 35 34
35 35 35 35 34 32 31 32 33 34 35 35 35 36 37 38 38 37 36 36 35 35 36 37 37 36 36 36 38 39 39 38 38 38 39 38 37 36 35 34 32 32
35 35 35 34 33 32 32 32 33 34 34 34 35 36 37 37 38 38 38 37 36 36 37 38 37 37 37 38 38 39 38 37 37 38 37 36 35 34 32 31 30 30
35 35 35 34 33 32 32 33 34 34 34 35 35 36 36 37 38 38 38 38 37 37 37 38 38 38 38 38 37 37 36 35 36 36 35 35 34 32 29 28 28 28

ECMWFNIL_500_spd_105.txt.gz
Wind_Speed
13 13 13 12 12 12 12 11 11 12 13 13 13 14 16 17 19 21 23 25 26 28 29 30 31 32 34 35 35 35 35 35 35 35 34 34 33 33 32 32 32 32
13 13 13 13 13 14 14 12 11 12 12 13 14 15 17 19 21 23 24 26 27 28 30 31 33 34 35 35 36 36 35 35 35 34 33 33 32 32 32 32 32 32
13 14 14 14 14 14 13 11 10 11 12 13 15 17 19 21 23 24 25 27 28 29 31 33 34 35 35 36 36 35 35 34 34 33 33 32 32 32 31 31 32 32
14 14 14 14 13 12 11 10 11 12 13 15 17 19 20 22 24 25 27 28 29 31 32 34 35 35 35 35 35 34 34 34 33 33 32 32 32 31 31 32 33 33
14 14 13 12 10 10 10 10 12 13 15 16 18 19 21 23 25 26 28 29 30 32 33 35 35 35 35 35 34 34 34 33 33 33 32 31 31 31 32 33 33 34
13 12 10 9 9 9 10 11 12 14 16 17 18 20 22 24 26 27 28 29 31 33 34 35 35 35 35 34 34 34 33 33 33 32 31 31 31 32 33 34 34 35
12 11 10 9 9 10 11 12 14 15 17 18 19 21 23 25 27 28 29 30 32 33 35 35 35 35 34 34 34 33 33 33 32 31 31 31 32 33 34 34 35 36
12 12 12 11 11 11 12 13 15 17 18 19 21 22 24 26 28 29 29 31 32 34 35 35 35 35 34 34 33 33 32 32 31 31 31 32 33 34 34 35 36 38
15 15 14 13 12 13 14 15 17 18 20 21 23 24 26 28 29 29 30 31 33 34 35 35 35 35 34 34 33 32 32 31 31 31 32 33 34 34 35 36 38 40
17 16 15 15 14 14 15 16 18 20 21 23 25 26 27 29 30 30 31 32 33 34 35 35 35 35 34 34 33 32 31 31 31 32 32 33 34 35 36 37 39 41
17 17 16 16 16 16 17 18 20 21 23 24 26 28 29 30 31 31 32 33 34 34 35 35 34 34 34 33 32 31 31 31 31 32 33 34 34 35 36 38 41 43
18 18 18 18 18 19 20 21 23 23 24 26 28 29 30 31 32 32 33 33 34 35 35 34 34 34 33 33 32 31 31 31 32 32 33 34 34 35 37 40 42 44
20 20 20 19 20 21 22 24 25 26 27 28 29 31 31 32 33 33 33 34 35 35 34 34 34 34 33 32 31 31 31 31 32 32 33 34 35 36 39 41 43 44
21 21 21 22 22 23 24 26 28 29 30 31 31 32 32 33 34 34 34 34 35 35 34 34 34 34 33 32 31 30 30 31 32 33 33 34 35 38 40 42 43 44
22 23 23 24 25 26 27 28 30 31 32 33 33 33 34 34 34 34 34 34 35 35 34 34 34 34 33 31 30 30 30 31 32 32 33 34 36 39 42 43 44 45
24 25 26 27 28 29 30 31 32 33 34 34 34 34 35 35 34 33 34 35 35 35 34 34 34 33 32 31 30 30 31 32 32 32 33 35 38 41 43 44 45 46
27 27 28 29 30 31 33 34 35 35 35 35 35 35 35 34 33 33 34 35 35 35 35 35 34 33 31 30 30 31 32 32 32 32 33 36 39 42 43 44 44 45
29 30 31 32 33 34 35 36 37 37 36 36 35 36 35 34 32 33 34 35 35 35 35 35 34 33 31 30 31 32 32 33 33 33 34 37 40 42 43 43 44 44
32 33 34 35 36 37 38 38 38 38 37 36 36 36 35 33 32 32 34 34 35 35 35 35 34 33 32 31 31 32 33 34 34 34 36 38 41 42 42 42 42 42
34 35 36 36 37 38 38 39 39 37 36 36 37 36 33 32 31 32 33 34 34 35 36 35 34 33 32 31 32 33 34 34 35 35 37 39 41 41 41 41 41 41
36 36 36 37 37 38 38 38 38 37 37 37 36 34 32 31 31 32 33 33 34 35 36 36 35 34 33 32 32 33 35 35 36 37 38 39 40 40 40 40 40 39
36 36 37 37 37 37 37 37 38 38 37 37 35 33 31 31 31 32 33 33 34 35 36 36 35 34 33 32 32 33 34 36 37 38 38 38 38 39 39 38 38 37
37 37 37 38 38 37 37 38 38 38 37 35 33 32 30 30 31 32 33 33 34 35 35 36 36 34 32 32 32 33 34 36 38 38 37 37 37 37 37 36 36 35
38 38 38 38 38 38 38 38 38 37 35 34 32 31 30 30 31 32 32 33 35 35 35 36 36 33 32 32 32 33 35 36 37 36 35 35 35 36 35 35 34 32
38 38 38 38 38 38 38 38 37 35 34 33 31 31 30 31 32 32 32 34 35 35 35 36 36 33 32 32 32 34 35 35 34 33 33 33 34 34 34 33 31 29
38 38 38 37 37 37 37 36 35 34 33 33 32 31 31 32 32 32 34 35 35 34 35 36 35 32 32 32 32 33 33 32 31 31 31 32 32 32 32 30 28 27

ECMWFNIL_500_spd_108.txt.gz
Wind_Speed
20 20 19 17 15 13 12 12 12 11 12 13 13 13 13 13 14 14 15 17 19 20 22 23 23 24 26 28 30 32 33 34 35 35 35 35 35 35 35 35 34 32
20 19 17 15 13 12 12 12 12 12 13 13 13 13 14 14 14 14 16 18 20 21 22 23 24 25 27 29 32 33 34 35 35 35 36 36 36 36 35 34 33 32
20 18 16 14 13 13 13 12 12 13 14 14 14 14 14 14 14 15 17 19 20 21 23 24 25 27 29 31 33 34 35 36 36 36 36 36 36 35 34 33 32 31
18 17 15 14 14 13 13 12 13 13 14 14 14 13 13 14 15 16 18 20 21 23 24 26 27 28 30 32 33 35 36 36 36 36 36 36 35 34 33 32 31 32
17 16 15 14 14 13 13 13 13 13 13 14 13 13 14 15 16 18 19 21 22 24 26 27 28 29 31 32 34 35 36 36 36 36 36 35 34 34 32 32 32 32
17 16 15 14 14 14 14 14 14 14 14 13 13 14 15 16 18 19 20 22 24 25 27 28 29 30 31 33 34 35 36 36 36 36 35 35 34 33 32 32 32 33
17 16 15 14 14 14 14 15 15 14 14 14 14 16 17 18 19 20 22 23 25 27 28 29 30 31 32 33 35 35 36 36 36 35 35 34 33 33 32 32 32 33
17 15 14 14 14 14 15 15 15 14 15 15 16 17 18 20 21 22 23 24 26 28 30 31 31 32 33 34 35 35 36 36 35 35 34 34 33 32 32 32 32 33
16 15 14 14 15 15 16 16 16 16 16 16 17 18 20 21 22 23 24 26 28 30 31 32 33 33 34 35 36 36 36 36 36 35 35 34 32 32 31 32 32 32
17 16 16 16 16 16 17 17 18 18 18 18 18 20 21 22 23 24 26 28 29 31 32 33 33 34 35 36 36 37 37 36 36 36 34 33 32 31 31 32 31 32
18 17 17 17 17 18 19 20 20 20 20 19 20 21 22 23 25 26 28 30 31 32 34 34 34 35 35 36 37 37 37 36 36 35 33 32 31 31 31 31 30 31
19 19 18 18 19 20 21 22 22 22 21 21 22 24 25 26 27 29 30 32 33 34 35 35 35 35 36 36 37 37 37 36 35 33 32 31 31 32 32 31 31 32
20 20 20 20 21 22 23 24 24 24 23 23 24 26 27 28 30 31 32 33 34 35 35 36 35 35 36 37 37 37 36 35 34 32 32 32 32 32 32 32 32 34
21 21 21 22 23 24 25 26 26 25 25 25 27 28 29 30 31 33 34 35 35 35 36 36 35 35 36 37 37 36 36 34 33 32 32 32 32 32 32 33 34 36
22 23 23 23 24 25 26 27 28 27 27 28 29 30 31 32 33 35 36 36 35 36 36 35 35 35 36 36 36 36 35 34 33 32 32 31 31 32 32 33 35 37
24 24 24 25 26 27 28 29 29 29 29 30 31 32 33 34 35 36 37 36 36 36 36 35 34 35 36 36 36 36 35 34 34 33 32 31 31 32 33 34 36 38
26 26 26 26 27 28 30 31 31 31 31 32 33 34 36 37 37 38 37 36 36 36 35 34 34 35 36 36 36 36 35 35 34 33 32 32 32 32 34 35 37 38
27 27 28 28 29 31 32 33 34 33 33 34 35 37 38 39 39 38 37 36 36 36 35 34 34 35 36 36 36 36 36 35 34 33 33 32 32 33 34 35 36 37
29 29 30 31 32 34 34 35 35 35 35 36 38 39 39 39 39 37 36 36 36 36 34 33 34 35 35 36 36 36 36 36 34 33 32 32 32 33 34 35 35 35
29 31 32 33 35 36 36 36 37 37 37 38 39 39 39 38 37 36 36 36 36 35 34 33 34 35 35 36 36 36 36 36 34 33 33 32 32 33 33 33 33 33
30 32 32 34 36 37 37 37 38 38 38 38 39 38 38 37 37 37 37 37 36 35 34 33 34 35 35 36 36 36 36 36 35 34 33 32 32 32 32 32 32 32
31 32 33 35 36 37 38 38 39 39 38 39 39 38 38 38 38 37 37 36 35 34 33 33 34 35 35 36 36 36 36 36 35 34 33 32 31 31 30 30 30 30
33 34 35 36 37 38 39 39 39 39 39 39 39 39 39 38 38 37 36 34 34 34 33 34 35 35 35 36 36 35 35 36 35 33 33 31 30 29 29 29 29 29
34 36 37 37 38 39 40 40 40 39 39 40 40 39 38 37 36 35 34 34 34 33 33 34 35 35 36 37 36 35 35 35 34 33 32 30 29 28 28 28 28 28
36 37 38 39 39 40 41 40 40 40 39 39 38 37 36 35 34 34 34 34 33 34 34 35 35 35 36 36 35 34 35 35 34 33 31 29 28 28 27 27 27 27
37 38 39 40 40 41 41 40 39 39 38 37 37 36 35 34 34 34 33 33 34 34 35 35 35 35 36 35 34 33 34 34 34 32 30 28 27 27 26 26 26 26

ECMWFNIL_500_spd_111.txt.gz
Wind_Speed
17 17 17 17 16 15 16 16 15 14 13 14 14 14 13 13 14 15 15 15 16 17 17 18 19 21 22 23 24 24 26 27 28 29 30 32 32 33 33 33 33 33
16 16 17 18 17 16 16 15 14 13 14 15 15 14 14 15 15 15 15 16 16 17 18 19 20 22 22 23 24 25 26 28 29 30 31 32 33 33 33 34 33 33
14 16 18 18 17 15 15 15 14 15 16 16 15 15 16 16 15 15 15 16 16 17 19 20 21 22 23 24 25 26 27 28 29 30 31 32 33 33 34 34 34 33
15 17 17 16 16 16 16 16 16 16 16 16 16 16 16 15 15 15 16 16 17 19 20 21 21 22 23 25 26 27 28 29 30 31 32 33 34 34 34 34 34 33
17 17 16 15 16 17 17 17 17 16 16 16 16 16 15 15 15 16 16 17 18 19 20 21 22 23 25 26 28 29 30 31 31 33 34 34 35 35 35 34 34 34
15 15 16 16 18 18 18 18 17 17 17 16 16 15 15 16 16 16 16 17 18 19 20 21 23 24 26 28 30 31 31 32 33 34 35 36 36 36 35 35 34 34
15 15 16 18 19 19 19 18 17 17 16 16 16 16 16 16 16 16 17 18 19 20 21 22 24 26 27 29 31 32 33 33 34 35 36 36 37 36 36 35 35 34
15 16 18 19 19 19 18 17 17 16 16 16 17 17 16 16 16 17 18 19 20 21 22 24 25 27 29 31 32 34 34 34 34 35 36 37 37 37 37 36 35 35
16 17 18 19 19 19 18 17 17 17 17 17 17 16 16 17 17 18 19 20 21 22 24 25 27 29 30 32 34 35 35 35 35 36 37 38 38 37 37 36 35 35
17 18 19 20 19 19 19 18 18 18 18 17 17 17 17 18 19 20 21 22 23 24 25 27 29 31 32 33 35 36 36 36 36 37 38 38 38 37 37 36 36 36
18 19 20 20 20 20 20 19 19 19 18 18 17 18 19 20 21 22 22 23 25 26 27 29 31 32 33 34 35 36 37 37 37 37 38 38 38 37 36 36 36 36
19 20 21 21 21 21 21 21 20 19 19 18 19 20 21 23 23 24 24 26 27 28 29 31 32 33 34 35 36 37 38 37 37 37 38 38 37 37 36 36 36 37
19 20 21 22 22 23 22 21 20 20 20 20 21 23 24 25 25 26 27 28 29 30 31 33 34 35 35 36 36 37 38 38 37 37 38 38 37 37 36 36 37 37
20 21 22 23 23 23 22 22 21 21 21 22 23 25 26 27 28 28 29 30 31 33 34 35 36 36 36 36 36 37 38 37 37 37 38 38 37 37 37 37 37 37
20 21 22 23 23 23 23 23 22 23 23 24 25 27 28 29 30 31 31 32 33 34 35 36 37 37 36 36 36 37 38 37 37 37 38 38 38 37 37 37 37 37
21 21 22 23 23 24 24 24 24 25 25 26 27 29 30 31 32 32 33 34 35 36 37 37 37 36 36 36 37 37 37 37 37 37 37 37 38 38 37 37 38 38
22 22 23 24 25 26 26 26 26 26 27 28 29 30 32 33 34 34 35 36 37 37 37 37 36 36 36 37 37 37 37 36 37 37 37 38 38 38 38 38 38 39
22 24 25 26 26 27 28 27 28 28 28 30 31 32 33 35 36 36 37 38 38 38 37 36 35 35 36 37 37 36 36 36 37 37 37 38 38 39 39 39 39 39
24 25 26 27 28 29 30 30 30 30 31 32 33 34 35 37 37 38 38 38 38 37 36 35 35 36 37 37 36 36 36 36 37 38 38 38 39 39 39 39 39 39
25 26 27 28 29 30 31 32 32 33 33 34 35 36 37 37 37 38 38 37 37 37 36 36 36 36 37 37 36 36 36 36 38 38 38 38 39 39 39 39 39 39
26 27 28 28 29 30 31 32 33 33 34 34 35 36 37 37 37 37 37 37 37 36 36 36 36 36 36 36 35 36 36 37 39 39 38 39 39 38 39 40 39 38
27 28 29 29 30 31 31 32 33 33 33 34 35 35 36 36 37 37 37 37 37 37 36 36 36 36 36 35 35 35 36 38 39 39 38 39 39 38 39 40 39 37
28 29 29 30 30 31 32 32 33 33 33 34 34 35 36 37 37 38 38 38 37 36 36 36 36 35 35 35 35 35 37 39 40 39 38 39 38 38 39 40 38 35
29 29 30 31 31 32 33 33 33 33 34 34 35 36 37 37 38 38 37 37 36 35 35 36 36 35 35 35 35 35 37 39 39 38 39 39 37 38 39 39 36 33
31 31 31 32 32 33 35 35 34 35 35 36 36 37 38 38 38 37 36 35 35 35 35 36 37 37 37 35 34 35 37 38 38 39 39 38 37 38 39 37 34 31
33 33 33 34 34 35 36 36 36 36 36 37 37 38 38 37 36 36 35 35 35 35 36 37 38 39 38 36 34 35 36 37 37 39 39 38 37 38 38 36 32 30

ECMWFNIL_500_spd_114.txt.gz
Wind_Speed
18 17 17 16 17 17 16 16 15 15 16 16 16 16 16 16 15 16 15 15 15 16 17 18 19 20 21 21 22 23 23 24 25 26 26 27 28 29 31 32 33 34
19 18 18 18 18 17 17 16 15 15 16 16 17 17 17 16 16 16 15 15 16 17 18 19 20 20 21 22 23 23 24 24 25 26 27 28 29 31 32 33 34 35
19 18 18 18 18 17 17 16 15 16 16 17 18 18 17 16 16 16 16 16 17 17 18 19 19 20 21 22 23 23 24 24 26 27 29 30 31 32 33 34 35 36
18 18 18 18 18 18 18 17 16 16 17 17 18 17 17 16 16 16 17 17 17 18 19 19 19 21 22 23 23 23 24 25 27 29 30 31 32 33 34 35 36 36
17 17 17 18 18 18 17 17 16 16 17 18 18 17 17 17 17 17 17 18 18 19 19 19 20 21 22 22 23 24 25 26 28 30 31 33 33 34 35 36 36 37
17 18 18 18 18 18 17 16 16 17 17 17 17 17 17 18 18 18 18 19 19 19 19 19 20 21 22 22 23 25 26 28 29 31 33 34 35 35 35 36 37 38
19 18 18 19 19 18 16 16 16 17 17 18 18 18 18 19 19 19 19 19 19 19 19 20 20 21 22 24 25 26 27 29 31 32 34 35 36 36 36 37 37 38
18 17 17 18 18 17 16 16 17 17 18 18 19 19 20 20 20 20 20 20 19 19 20 20 21 22 24 25 26 28 29 31 32 33 35 36 37 37 37 37 38 38
18 17 18 18 18 17 16 16 17 18 19 19 20 20 20 20 21 21 21 20 19 20 21 22 23 24 25 27 28 29 31 32 33 34 35 36 37 38 38 37 38 38
19 18 19 19 18 17 17 17 18 19 20 20 21 21 21 22 22 22 21 20 20 21 22 24 25 26 27 28 30 31 33 34 34 35 35 36 37 38 38 38 38 38
19 19 20 20 19 18 18 18 19 20 20 21 21 22 22 23 22 22 21 21 21 23 24 25 26 28 29 30 32 33 34 35 35 35 35 36 38 38 38 38 38 38
20 20 20 20 20 19 19 20 20 20 21 21 22 23 23 23 23 22 22 22 23 25 26 27 29 30 31 32 34 35 36 35 35 35 36 37 38 38 38 38 38 39
20 20 20 20 20 20 20 20 20 21 21 22 23 23 23 23 23 23 23 24 26 27 28 30 31 32 33 34 36 36 36 36 35 35 36 37 38 38 38 39 39 39
20 20 20 20 20 20 21 21 21 21 22 23 23 24 23 24 24 24 25 26 28 29 30 32 33 34 35 36 37 37 37 36 35 35 36 37 38 38 38 39 39 39
20 20 20 20 20 21 21 21 22 22 22 23 23 23 24 24 25 26 27 28 30 31 32 34 35 36 37 38 38 37 37 36 35 36 36 37 38 38 38 39 39 40
21 20 20 20 20 21 21 21 22 22 22 23 23 24 25 26 27 28 29 30 32 33 34 35 36 37 38 38 38 37 36 36 35 36 37 38 38 38 38 39 40 40
22 21 21 21 20 21 21 22 22 22 23 23 24 25 26 27 28 30 31 32 34 35 36 37 38 38 38 38 37 37 36 36 36 36 37 38 38 38 38 39 41 41
23 23 22 22 21 22 22 22 23 24 24 25 26 27 28 29 31 32 33 35 36 36 37 38 38 38 37 37 37 37 37 36 36 37 38 38 38 38 39 40 41 42
25 24 23 23 23 23 23 24 24 25 26 26 27 29 30 32 33 34 35 36 37 37 38 38 38 37 36 36 37 37 37 37 37 38 38 38 37 38 39 40 42 42
26 25 25 24 24 25 25 25 26 26 27 28 29 31 32 34 35 36 36 37 37 37 37 37 37 36 36 37 37 38 38 38 38 38 38 38 37 38 39 40 42 43
26 26 26 25 26 26 26 27 27 28 29 30 31 32 33 34 35 36 36 37 37 37 37 36 36 37 37 37 38 38 38 39 39 39 38 38 37 38 39 40 42 42
26 26 27 27 27 27 27 28 28 29 29 30 31 32 33 34 35 35 36 36 36 36 36 36 37 37 37 37 37 38 39 40 40 40 39 38 38 38 39 40 41 41
27 27 27 27 28 28 28 28 29 29 30 30 31 32 33 33 34 35 36 36 36 36 36 37 37 36 36 36 37 38 39 40 41 41 40 39 38 38 39 39 40 39
27 27 27 27 28 28 29 29 30 30 30 31 32 32 33 34 35 35 36 36 37 37 37 37 36 36 36 36 36 37 38 39 40 41 42 41 40 39 38 38 38 38
27 27 27 27 28 28 29 30 30 31 31 32 32 32 33 34 35 36 36 37 37 37 37 36 36 36 35 35 36 37 37 38 39 40 41 41 40 37 36 36 37 39
26 27 27 28 28 29 30 31 32 32 32 33 33 33 34 36 36 37 37 37 37 37 36 36 35 34 35 35 36 37 37 38 38 39 39 39 37 35 35 37 38 39

ECMWFNIL_500_spd_117.txt.gz
Wind_Speed
20 19 19 19 19 18 17 16 16 15 15 14 14 15 15 16 16 15 14 13 14 14 14 15 15 16 17 18 19 20 21 23 23 24 25 26 27 27 27 28 29 30
20 19 20 20 20 19 18 17 17 17 15 14 15 16 17 17 16 15 14 14 14 15 15 15 16 17 17 18 20 21 22 23 23 25 26 27 27 27 28 29 30 31
20 21 22 22 21 20 19 18 18 17 15 15 16 17 18 18 16 15 15 15 16 16 16 16 17 17 18 19 20 21 22 23 24 25 26 27 28 28 29 30 31 33
21 23 24 22 21 19 19 18 17 16 16 16 17 17 18 18 16 16 16 16 17 17 17 17 17 18 19 20 21 21 22 23 24 26 27 27 28 29 30 31 32 34
22 24 23 21 20 19 18 18 17 17 17 17 17 18 18 18 17 17 17 17 18 18 18 18 18 19 20 20 21 21 22 24 25 26 28 29 30 31 32 33 33 34
23 23 23 21 20 19 18 18 18 17 18 18 18 18 18 17 17 18 18 19 19 18 18 19 19 20 21 21 21 22 24 25 26 27 29 30 32 33 33 34 34 35
23 23 22 21 19 18 19 19 19 19 18 18 18 18 18 18 19 19 20 20 19 19 19 20 20 21 21 21 22 23 25 26 27 29 31 32 34 34 34 34 35 35
23 22 22 21 19 18 19 20 20 20 19 19 19 19 19 19 20 20 20 20 21 21 21 21 21 21 21 22 23 24 26 27 29 31 32 34 35 36 36 35 35 35
23 22 21 20 19 19 19 21 21 20 20 20 20 20 20 20 21 21 21 21 22 22 22 22 22 22 23 23 24 26 27 29 31 33 34 36 37 37 37 36 35 36
23 21 20 20 19 19 20 21 22 21 21 20 20 20 20 20 21 21 21 22 22 23 23 23 23 24 24 25 26 28 29 31 33 35 36 38 39 38 37 36 36 36
24 22 21 20 20 20 21 22 22 22 21 21 20 20 20 21 21 21 22 23 23 24 24 24 25 25 26 27 28 30 31 33 35 36 38 39 40 39 38 37 36 37
24 23 22 21 21 21 21 23 23 23 22 21 21 21 20 21 21 22 23 23 24 25 25 26 26 27 28 29 30 31 33 35 36 38 39 40 40 39 38 37 37 37
23 23 23 22 21 21 22 23 24 23 23 22 21 21 21 21 22 22 24 25 25 26 26 27 28 28 29 30 32 33 35 36 38 39 40 40 40 39 38 37 37 38
23 23 23 22 21 21 22 23 23 23 23 22 22 21 21 22 23 24 25 26 26 27 27 28 28 29 31 32 33 35 36 38 39 40 41 40 40 39 38 38 38 38
24 23 23 22 21 21 22 23 23 23 22 22 22 22 22 23 24 25 26 26 27 27 28 29 29 30 32 33 35 37 38 39 40 41 41 40 39 39 39 39 39 39
24 24 23 22 22 21 22 23 23 22 22 22 22 23 24 25 25 26 26 27 28 28 29 30 31 32 34 35 37 38 39 40 41 41 40 39 39 40 40 40 40 39
24 24 24 23 22 22 22 22 22 23 23 23 23 24 25 25 26 26 27 28 28 29 30 31 32 34 36 37 38 39 40 40 40 40 39 39 39 39 41 42 42 42
25 25 24 24 23 23 22 22 22 23 24 24 24 25 26 26 27 27 28 29 30 31 32 33 34 36 37 38 39 40 40 40 40 39 38 38 38 39 41 43 44 44
25 25 25 25 24 24 23 23 22 23 24 24 25 26 26 27 28 29 29 30 32 33 34 35 35 37 38 38 39 40 40 39 39 38 38 38 38 39 40 42 44 45
25 25 25 25 25 25 25 24 23 24 25 25 26 27 27 28 29 30 31 32 33 34 35 35 36 37 38 39 39 39 39 38 38 38 38 38 38 39 41 42 42 43
25 25 26 27 27 26 26 25 25 25 25 26 27 28 29 29 30 31 32 33 34 34 34 35 36 37 38 38 38 38 38 38 38 38 38 38 38 39 41 41 41 41
26 27 27 28 28 27 27 26 26 26 27 27 28 29 29 30 30 31 32 33 33 33 34 35 36 37 37 38 38 38 38 38 38 38 38 38 38 40 40 40 40 40
28 28 29 29 29 28 27 27 27 27 27 28 28 29 30 30 30 31 32 33 33 34 35 35 36 37 37 38 38 38 38 38 38 37 37 37 39 40 40 39 39 40
29 29 29 29 29 28 28 27 27 27 27 28 28 29 30 31 31 32 33 34 35 35 35 36 36 37 37 37 38 38 37 37 37 37 37 38 39 39 38 38 38 39
28 28 28 28 28 28 27 27 27 27 27 28 29 29 31 32 32 33 34 34 35 36 36 36 37 37 37 37 37 37 37 37 36 37 38 39 39 38 37 38 38 39
26 26 26 26 27 26 26 26 26 26 27 28 30 31 31 32 33 33 34 34 35 36 37 37 37 37 37 37 37 36 36 36 37 37 38 38 37 37 37 38 38 39

ECMWFNIL_500_spd_120.txt.gz
Wind_Speed
21 21 21 21 22 22 21 21 20 20 21 21 20 19 17 16 15 15 15 15 15 14 14 14 14 14 15 16 16 16 16 17 18 19 20 21 21 22 24 25 27 29
21 20 20 21 21 20 20 21 21 20 19 20 19 19 18 17 16 16 16 16 15 15 14 14 14 15 16 16 17 17 17 18 19 20 20 21 22 23 25 26 28 30
20 20 20 21 21 20 21 21 21 19 19 19 19 19 17 17 16 16 17 16 15 15 15 15 15 16 17 17 17 17 18 18 19 20 20 21 23 24 25 27 29 31
20 20 21 22 22 21 21 21 20 19 19 19 19 18 17 17 17 17 17 16 16 16 16 16 16 17 18 18 18 18 18 19 20 20 21 22 23 25 26 28 31 33
20 21 22 22 22 22 21 20 19 19 18 18 18 18 17 17 17 17 17 16 16 17 17 17 17 18 18 18 18 19 19 20 20 21 22 23 24 26 28 30 32 34
20 21 22 23 23 22 21 19 18 18 18 18 18 18 17 17 17 17 17 17 17 18 18 18 18 19 19 19 19 20 20 21 21 22 23 24 26 27 29 32 34 36
21 21 22 23 23 22 20 19 18 18 19 18 18 18 18 17 17 17 17 18 18 19 19 19 20 20 20 20 20 21 22 22 23 23 24 26 27 29 31 33 35 37
21 21 21 22 22 21 20 19 18 19 19 19 19 18 18 18 18 18 18 18 19 19 20 20 21 21 21 21 22 22 23 24 24 25 26 28 29 31 33 35 37 39
21 21 21 22 22 21 20 18 18 19 19 19 19 19 18 18 18 18 19 19 20 20 20 21 21 22 22 22 23 24 25 25 26 27 28 29 31 32 34 36 38 40
21 21 21 22 23 22 20 18 18 19 19 20 20 20 19 19 19 20 20 20 20 20 21 21 22 22 23 24 24 25 26 27 28 29 30 31 32 34 36 38 40 41
23 23 23 23 23 23 20 18 19 19 20 20 20 21 21 21 21 20 20 20 20 21 21 22 23 23 24 25 26 27 28 29 29 30 31 32 34 35 37 39 41 41
24 24 24 24 24 23 21 19 19 20 20 20 21 21 22 22 21 21 21 21 21 21 22 23 23 24 25 26 27 28 29 30 31 32 33 33 35 37 39 40 41 40
25 26 25 25 25 24 21 19 19 20 20 21 21 22 23 23 22 22 22 22 22 23 23 24 24 25 26 27 28 29 30 30 31 33 34 35 36 38 40 40 40 40
26 26 25 25 25 24 21 19 20 20 21 21 22 23 24 24 24 23 23 23 23 24 24 24 25 26 27 28 29 30 31 31 33 34 35 36 38 39 40 40 40 41
25 25 25 25 25 23 20 19 20 21 21 22 22 23 24 24 24 24 24 24 24 25 25 26 26 27 28 29 30 31 32 33 34 35 36 37 38 39 40 40 41 41
24 24 24 24 24 22 21 20 21 22 22 22 22 23 23 24 24 25 25 25 26 26 26 27 27 28 29 30 31 32 33 34 35 36 37 38 39 40 40 40 41 41
23 23 23 24 24 22 22 21 21 22 22 22 22 23 23 24 25 25 26 26 27 27 28 28 29 30 31 31 32 33 35 35 36 37 38 39 39 40 40 40 40 40
24 23 23 24 24 23 22 22 21 22 22 22 22 23 24 25 25 26 27 28 28 28 29 29 30 31 32 33 34 35 35 36 36 37 38 39 39 40 40 40 39 39
24 23 23 24 23 23 23 23 22 22 23 23 23 23 24 25 26 27 28 28 29 29 29 30 31 33 33 34 35 35 36 36 37 37 38 38 39 39 39 39 39 38
25 25 24 24 23 24 24 24 23 23 24 25 24 24 25 25 26 27 28 29 29 30 30 31 33 34 34 34 35 35 35 36 36 37 38 38 38 38 38 38 38 38
26 26 25 24 24 25 26 25 24 25 26 26 25 25 25 26 27 27 28 29 29 30 30 31 33 34 34 34 35 35 35 36 36 37 37 37 38 38 38 38 37 38
26 26 25 25 26 27 27 27 26 26 27 27 26 26 27 28 28 28 29 29 30 30 30 31 34 35 35 34 34 34 35 35 36 37 37 37 37 38 37 37 37 38
27 27 27 27 28 29 30 29 28 27 28 28 27 28 28 28 28 29 29 29 30 31 31 31 34 36 35 35 35 34 34 36 36 36 36 37 37 37 36 36 37 38
29 29 29 29 30 30 31 30 28 28 28 27 28 28 29 29 29 30 30 30 31 32 31 31 33 34 35 37 37 35 35 36 36 36 36 36 36 36 36 36 37 37
31 31 30 30 30 31 31 30 28 27 27 27 27 28 28 29 29 31 31 30 31 33 33 33 34 35 36 37 37 36 36 36 36 36 36 35 35 36 36 36 36 36
30 30 30 30 30 29 29 29 27 26 26 26 27 27 28 29 30 31 33 33 32 34 35 35 35 36 37 37 37 36 36 36 36 35 35 35 35 36 36 36 36 36